     2              OBSERVATION DATA    GPS                 RINEX VERSION / TYPE
teqc 1999Jul19 19991123 03:03:06UTC                         PGM / RUN BY / DATE
                                                            COMMENT
Original Marker Name: 0457                                  COMMENT
Campaign Name: HPGN 1991                                    COMMENT
4-Character Station Name: 0413                              COMMENT
6-Character Antenna Code: TRMSST                            COMMENT
Vertical Measurement Point: BPA                             COMMENT
Vertical Offset to Rinex Ref. Point: 0.0000                 COMMENT
Radial Measurement Point: RRP                               COMMENT
Radial Offset to Rinex Ref. Point: 0.0000                   COMMENT
Antenna Height from Field Measurement: 2.2200 m             COMMENT
                                                            COMMENT
Original XYZ: -2745557.4424 -4163737.9283 3962339.5937      COMMENT
New XYZ position is based on association with SCEC monument COMMENT
E1F8R1V5+0011. Position of that monument is believed to be  COMMENT
valid to within 1 m horizontally; vertical accuracy         COMMENT
should be no worse than 3-times this value.                 COMMENT
                                                            COMMENT
Revised Rinex header created by UCSD GPS archive for        COMMENT
GSAC on 10-Mar-2000 (2000:070) 05:07:04 GMT                 COMMENT
For assistance contact dagnew@ucsd.edu or hjohnson@ucsd.edu COMMENT
                                                            COMMENT
HPGN CA 04 13                                               MARKER NAME
0457                                                        MARKER NUMBER
-Unknown- CALIF DEPT TRANSPORTATION                         OBSERVER / AGENCY
457 TRIMBLE 4000 SST NP 4.30 / SP 4.20                      REC # / TYPE / VERS
140 TR 4000SST L1/L2 GEO                                    ANT # / TYPE
 -2745557.5733 -4163735.1755  3962338.2784                  APPROX POSITION XYZ
        2.2200        0.0000        0.0000                  ANTENNA: DELTA H/E/N
     1     1     0                                          WAVELENGTH FACT L1/2
     5    C1    L1    L2    S1    S2                        # / TYPES OF OBSERV
     0                                                      INTERVAL
  1991     7    24     0    49   15.000000                  TIME OF FIRST OBS
  1991     7    24     6    50   60.000000                  TIME OF LAST OBS
                                                            END OF HEADER
 91  7 24  0 49 15.0000000  0  5G 3G16G17G20G23
  20824926.711          -0.57117        -0.43033        25.500           3.000
  22664956.617          -0.77917        -0.23132        20.250           1.750
  21044027.602          -0.32617        -0.43734        24.500           3.531
  23110119.836          -0.67116        -0.01731        14.000           0.906
  24027848.688          -0.38815                         8.750
 91  7 24  0 49 30.0000000  0  5G 3G16G17G20G23
  20818361.023      -34488.266 7    -26873.94223        25.500           3.000
  22667640.922       14110.851 6     10995.84222        19.500           1.781
  21036183.273      -41237.608 7    -32133.35823        25.000           3.469
  23115811.648       29908.929 6     23306.07721        14.250           0.938
  24013371.445      -76083.121 5                         8.000
 91  7 24  0 49 45.0000000  0  5G 3G16G17G20G23
  20811808.727      -68936.329 7    -53716.57423        25.750           3.063
  22670339.281       28288.471 6     22043.33022        18.000           1.719
  21028342.953      -82426.865 7    -64228.85824        25.250           3.531
  23121508.211       59836.350 6     46626.07521        14.500           0.969
  23998893.031     -152162.385 5        -0.47631         8.250           0.500
 91  7 24  0 50  0.0000000  0  5G 3G16G17G20G23
  20805260.047     -103342.287 7    -80526.39523        25.750           2.906
  22673046.617       42533.786 6     33143.56022        18.000           1.781
  21020515.367     -123566.145 7    -96285.41124        25.750           3.500
  23127205.148       89783.147 6     69961.15621        14.250           0.875
  23984417.125     -228236.068 5    -59278.48821         8.250           0.438
 91  7 24  0 50 15.0000000  0  5G 3G16G17G20G23
  20798720.289     -137704.083 7   -107301.80923        25.250           2.906
  22675773.672       56848.515 7     44297.88422        20.000           1.750
  21012696.492     -164653.428 7   -128301.45424        24.750           3.594
  23132908.359      119751.119 6     93312.73021        14.000           0.906
  23969945.156     -304301.740 5   -118550.26421         8.750           0.500
 91  7 24  0 50 30.0000000  0  5G 3G16G17G20G23
  20792193.469     -172011.035 7   -134034.48423        25.250           3.031
  22678513.609       71242.549 7     55514.02722        20.250           1.625
  21004888.352     -205678.379 7   -160268.92124        24.750           3.594
  23138616.711      149750.245 6    116688.60821        14.250           0.875
  23955470.453     -380348.639 5   -177807.42221         9.250           0.406
 91  7 24  0 50 45.0000000  0  5G 3G16G17G20G23
  20785674.602     -206261.496 7   -160723.14123        25.750           3.000
  22681264.781       85717.345 6     66793.09522        19.500           1.750
  20997095.297     -246639.602 7   -192186.73324        24.750           3.531
  23144332.859      179781.662 6    140089.62621        14.250           0.813
  23941004.281     -456375.088 5   -237048.65221         9.000           0.469
 91  7 24  0 51  0.0000000  0  5G 3G16G17G20G23
  20779165.453     -240457.467 7   -187369.35523        25.750           3.000
  22684035.000      100270.035 6     78132.83522        19.000           1.594
  20989312.320     -287539.152 7   -224056.49724        24.500           3.563
  23150053.789      209842.768 6    163513.77321        14.500           0.875
  23926539.945     -532382.990 5   -296275.43221         9.000           0.500
 91  7 24  0 51 15.0000000  0  5G 3G16G17G20G23
  20772673.008     -274595.181 7   -213970.16123        25.750           3.063
  22686820.148      114903.943 6     89535.86722        18.750           1.656
  20981541.164     -328373.318 7   -255875.30324        24.750           3.625
  23155779.984      239936.571 6    186963.39821        14.500           0.750
  23912080.016     -608368.755 5   -355484.95921         8.750           0.469
 91  7 24  0 51 30.0000000  0  5G 3G16G17G20G23
  20766186.883     -308669.440 7   -240521.51523        25.750           3.063
  22689622.453      129623.980 6    101006.02822        18.750           1.625
  20973785.609     -369137.210 7   -287639.33924        24.500           3.656
  23161513.906      270068.012 6    210442.36421        14.250           0.813
  23897628.148     -684326.951 5   -414672.98921         9.000           0.500
 91  7 24  0 51 45.0000000  0  5G 3G16G17G20G23
  20759714.336     -342682.419 7   -267025.13723        25.750           3.031
  22692438.797      144427.201 6    112540.98622        19.250           1.625
  20966040.641     -409833.568 7   -319350.77124        24.500           3.656
  23167253.273      300234.296 6    233948.47021        14.250           0.875
  23883176.617     -760259.613 5   -473841.17121         9.000           0.469
 91  7 24  0 52  0.0000000  0  5G 3G16G17G20G23
  20753254.188     -376635.642 7   -293482.18623        25.500           2.969
  22695271.242      159312.051 6    124139.56922        19.750           1.500
  20958306.719     -450463.887 7   -351010.73724        24.750           3.719
  23173001.695      330433.466 6    257480.20221        14.250           0.719
  23868733.422     -836168.181 5   -532990.53421         9.000           0.406
 91  7 24  0 52 15.0000000  0  5G 3G16G17G20G23
  20746803.000     -410527.857 7   -319891.70223        25.500           3.031
  22698118.398      174278.869 6    135802.02322        19.500           1.625
  20950589.609     -491027.418 7   -382618.66424        24.750           3.750
  23178754.992      360665.862 6    281037.80621        14.000           0.750
  23854291.016     -912051.504 5   -592120.23121         9.000           0.406
 91  7 24  0 52 30.0000000  0  5G 3G16G17G20G23
  20740366.500     -444356.609 7   -346251.76123        26.000           2.906
  22700983.813      189329.579 6    147529.84022        19.000           1.688
  20942883.805     -531521.686 7   -414172.61324        24.500           3.781
  23184512.867      390933.535 6    304622.91721        14.000           0.719
  23839858.063     -987906.954 5   -651228.20121         9.500           0.469
 91  7 24  0 52 45.0000000  0  5G 3G16G17G20G23
  20733943.258     -478121.703 7   -372562.22023        26.000           3.031
  22703862.570      204464.266 6    159323.08222        19.000           1.656
  20935190.180     -571946.493 7   -445672.44524        24.750           3.781
  23190279.750      421236.158 6    328235.25721        13.750           0.719
  23825427.586    -1063734.011 5   -710314.07421         9.750           0.406
 91  7 24  0 53  0.0000000  0  5G 3G16G17G20G23
  20727528.422     -511819.092 7   -398819.93623        26.000           2.969
  22706760.219      219686.134 6    171184.26422        19.250           1.719
  20927512.578     -612298.363 7   -477115.44124        24.750           3.813
  23196051.258      451577.197 6    351877.53621        13.500           0.688
  23811004.953    -1139528.742 5   -769374.73021        10.000           0.344
 91  7 24  0 53 15.0000000  0  5G 3G16G17G20G23
  20721127.219     -545455.994 7   -425030.49923        25.750           3.000
  22709670.695      234987.571 6    183107.44721        19.000           1.438
  20919846.672     -652584.754 7   -508507.41324        24.750           3.938
  23201833.297      481948.851 6    375543.66621        13.750           0.781
  23796586.188    -1215298.370 5   -828415.85121         9.750           0.438
 91  7 24  0 53 30.0000000  0  5G 3G16G17G20G23
  20714741.289     -579023.295 7   -451186.83123        25.500           3.031
  22712601.188      250376.681 6    195098.96522        19.250           1.500
  20912192.305     -692796.577 7   -539841.27424        24.750           3.906
  23207621.797      512359.562 6    399239.73121        14.250           0.813
  23782173.438    -1291033.903 5   -887430.38821        10.000           0.469
 91  7 24  0 53 45.0000000  0  5G 3G16G17G20G23
  20708365.109     -612522.616 7   -477290.19623        25.750           3.031
  22715546.336      265851.726 6    207157.43621        18.750           1.406
  20904554.578     -732935.857 7   -571118.62224        24.750           3.844
  23213414.102      542807.159 6    422965.02921        13.250           0.813
  23767765.953    -1366736.682 5   -946419.41421        10.250           0.469
 91  7 24  0 54  0.0000000  0  5G 3G16G17G20G23
  20702003.156     -645952.889 7   -503339.76023        25.500           2.875
  22718505.320      281413.290 6    219283.32422        17.500           1.500
  20896933.117     -773001.848 7   -602338.85124        25.500           3.844
  23219215.742      573292.162 6    446719.48021        13.250           0.781
  23753367.695    -1442405.437 5  -1005381.91821        10.000           0.469
 91  7 24  0 54 15.0000000  0  5G 3G16G17G20G23
  20695655.023     -679314.304 7   -529335.66123        25.500           2.938
  22721484.102      297060.637 6    231476.05022        17.750           1.563
  20889319.336     -812994.724 7   -633502.10524        25.000           3.813
  23225023.383      603814.015 6    470502.66021        13.500           0.625
  23738976.922    -1518039.982 5  -1064317.76121        10.250           0.594
 91  7 24  0 54 30.0000000  0  5G 3G16G17G20G23
  20689320.711     -712608.322 7   -555279.05023        26.250           2.938
  22724476.180      312791.614 6    243733.94322        18.250           1.750
  20881722.336     -852916.265 7   -664609.78124        25.000           3.938
  23230838.750      634370.469 6    494312.79321        13.500           0.781
  23724588.555    -1593642.094 5  -1123228.33421        10.000           0.500
 91  7 24  0 54 45.0000000  0  5G 3G16G17G20G23
  20682995.391     -745834.465 7   -581169.54923        26.000           3.000
  22727488.031      328606.096 6    256056.90222        18.500           1.500
  20874141.328     -892766.388 7   -695661.80324        25.500           3.969
  23236659.414      664961.235 6    518149.15321        13.000           0.813
  23710206.688    -1669211.565 5  -1182113.48921         9.750           0.469
 91  7 24  0 55  0.0000000  0  5G 3G16G17G20G23
  20676688.750     -778990.808 7   -607005.65823        26.250           2.969
  22730512.492      344505.749 6    268446.23422        17.500           1.500
  20866571.617     -932543.249 7   -726656.73524        25.250           3.906
  23242488.586      695587.897 6    542013.99021        13.000           0.750
  23695832.008    -1744746.044 5  -1240971.35621         9.500           0.625
 91  7 24  0 55 15.0000000  0  5G 3G16G17G20G23
  20670392.648     -812079.992 7   -632789.44123        26.500           2.906
  22733552.648      360487.377 6    280899.44021        17.000           1.406
  20859012.633     -972249.809 7   -757596.89224        25.250           3.938
  23248321.820      726247.111 6    565904.18921        12.750           0.781
  23681464.945    -1820248.143 5  -1299804.00521         9.750           0.469
 91  7 24  0 55 30.0000000  0  5G 3G16G17G20G23
  20664106.195     -845100.696 7   -658519.85123        26.250           3.063
  22736611.188      376552.031 6    293417.34222        18.000           1.500
  20851474.484    -1011884.753 7   -788481.24224        25.750           3.938
  23254162.203      756939.752 6    589820.42821        12.500           0.875
  23667105.414    -1895716.385 5  -1358610.26921        10.000           0.469
 91  7 24  0 55 45.0000000  0  5G 3G16G17G20G23
  20657837.227     -878050.379 7   -684194.92423        26.250           2.969
  22739684.125      392701.636 6    306001.45322        18.250           1.563
  20843945.617    -1051446.249 7   -819308.36024        25.500           3.969
  23260009.266      787667.677 6    613764.16421        12.750           0.625
  23652751.367    -1971148.379 5  -1417388.28821         9.500           0.531
 91  7 24  0 56  0.0000000  0  5G 3G16G17G20G23
  20651582.984     -910930.663 7   -709815.91823        26.500           3.063
  22742773.680      408934.009 6    318650.04122        18.000           1.781
  20836428.133    -1090935.737 7   -850079.36724        25.500           3.844
  23265862.797      818429.029 6    637733.96121        12.500           0.719
  23638402.336    -2046545.499 5  -1476139.12121         9.500           0.625
 91  7 24  0 56 15.0000000  0  5G 3G16G17G20G23
  20645337.508     -943739.722 7   -735381.41623        26.500           2.875
  22745879.914      425250.602 6    331364.24322        18.250           1.813
  20828930.039    -1130351.509 7   -880792.93424        25.750           3.969
  23271723.953      849224.972 6    661730.69421        13.000           0.750
  23624063.070    -2121905.624 5  -1534861.12821        10.000           0.625
 91  7 24  0 56 30.0000000  0  5G 3G16G17G20G23
  20639107.070     -976474.146 7   -760888.75523        26.250           3.031
  22749000.711      441654.388 6    344146.38822        18.000           1.813
  20821446.258    -1169690.460 7   -911446.63224        25.750           3.938
  23277591.156      880058.326 6    685756.59521        12.750           0.594
  23609729.703    -2197225.402 5  -1593551.72421        10.000           0.656
 91  7 24  0 56 45.0000000  0  5G 3G16G17G20G23
  20632892.164    -1009137.685 7   -786340.85823        26.500           2.969
  22752136.547      458140.774 6    356992.90022        17.750           1.656
  20813970.344    -1208957.016 7   -942043.93724        25.250           4.000
  23283465.000      910924.462 6    709808.03621        12.750           0.719
  23595403.117    -2272508.907 5  -1652214.04621        10.500           0.563
 91  7 24  0 57  0.0000000  0  5G 3G16G17G20G23
  20626692.055    -1041727.329 7   -811735.38123        26.500           3.000
  22755289.680      474712.137 6    369905.62922        18.000           1.500
  20806512.945    -1248148.147 7   -972582.46524        25.250           4.094
  23289344.008      941825.956 6    733887.02121        12.750           0.844
  23581083.242    -2347752.816 5  -1710845.50921        10.000           0.563
 91  7 24  0 57 15.0000000  0  5G 3G16G17G20G23
  20620501.453    -1074247.072 7   -837075.43823        26.250           3.156
  22758460.219      491363.648 6    382880.82521        19.250           1.375
  20799070.375    -1287268.083 7  -1003065.51024        25.000           4.125
  23295233.859      972758.093 6    757989.88021        13.250           0.750
  23566771.703    -2422961.195 5  -1769449.28721        10.000           0.563
 91  7 24  0 57 30.0000000  0  5G 3G16G17G20G23
  20614327.430    -1106690.584 7   -862356.08823        26.250           3.063
  22761643.219      508101.533 6    395923.33821        19.000           1.313
  20791639.930    -1326310.603 7  -1033488.23524        25.000           4.000
  23301125.461     1003726.939 6    782121.34621        13.000           0.781
  23552468.578    -2498127.330 5  -1828020.14421        10.250           0.594
 91  7 24  0 57 45.0000000  0  5G 3G16G17G20G23
  20608170.930    -1139059.079 7   -887578.28423        26.250           3.156
  22764846.609      524924.366 6    409032.03421        18.250           1.406
  20784223.797    -1365276.925 7  -1063851.58324        25.750           4.125
  23307024.281     1034730.906 6    806280.18721        12.500           0.625
  23538174.000    -2573252.209 5  -1886558.86821        10.500           0.594
 91  7 24  0 58  0.0000000  0  5G 3G16G17G20G23
  20602024.352    -1171352.990 7   -912742.36823        26.500           3.031
  22768062.938      541830.401 6    422205.54822        17.500           1.656
  20776824.867    -1404168.486 7  -1094156.67124        25.750           4.125
  23312931.438     1065768.374 6    830465.11421        12.750           0.594
  23523883.883    -2648336.702 5  -1945066.11621        10.750           0.531
 91  7 24  0 58 15.0000000  0  5G 3G16G17G20G23
  20595892.016    -1203570.230 7   -937846.70023        26.250           2.969
  22771294.734      558822.180 6    435445.86422        16.750           1.594
  20769439.914    -1442982.810 7  -1124401.58124        26.000           4.031
  23318844.375     1096841.342 6    854677.72321        12.750           0.688
  23509605.289    -2723378.228 5  -2003539.89821        10.750           0.625
 91  7 24  0 58 30.0000000  0  5G 3G16G17G20G23
  20589776.695    -1235711.605 7   -962891.92123        25.750           3.031
  22774544.414      575897.962 6    448751.63722        17.250           1.500
  20762066.313    -1481721.185 7  -1154587.30524        25.750           4.094
  23324764.633     1127948.275 6    878916.77921        13.000           0.688
  23495331.063    -2798377.904 5  -2061981.05021        10.750           0.531
 91  7 24  0 58 45.0000000  0  5G 3G16G17G20G23
  20583677.383    -1267769.296 7   -987871.93323        25.750           3.000
  22777811.000      593064.991 6    462128.52021        18.000           1.406
  20754710.672    -1520375.968 7  -1184707.89524        25.750           4.031
  23330691.594     1159096.489 6    903188.01921        12.750           0.781
  23481070.625    -2873327.696 5  -2120383.32621        11.250           0.625
 91  7 24  0 59  0.0000000  0  5G 3G16G17G20G23
  20577589.953    -1299750.584 7  -1012792.40923        26.000           2.969
  22781095.367      610315.416 6    475570.39621        18.500           1.313
  20747369.203    -1558954.577 7  -1214769.12824        25.250           4.125
  23336625.617     1190278.063 6    927485.25221        12.750           0.781
  23466815.195    -2948234.746 5  -2178752.31721        11.250           0.625
 91  7 24  0 59 15.0000000  0  5G 3G16G17G20G23
  20571519.656    -1331654.985 7  -1037652.97023        26.000           2.969
  22784393.656      627649.378 6    489077.38021        17.500           1.188
  20740042.039    -1597456.875 7  -1244770.90324        25.750           3.906
  23342566.609     1221492.951 6    951808.41721        12.500           0.656
  23452570.219    -3023098.624 5  -2237087.67321        11.250           0.594
 91  7 24  0 59 30.0000000  0  5G 3G16G17G20G23
  20565463.914    -1363480.322 7  -1062451.93123        26.000           3.000
  22787707.828      645068.277 6    502650.53121        16.500           1.219
  20732729.227    -1635880.928 7  -1274711.70324        26.250           4.031
  23348513.602     1252742.632 6    976158.71521        12.750           0.750
  23438329.148    -3097917.076 5  -2295387.63421        11.250           0.594
 91  7 24  0 59 45.0000000  0  5G 3G16G17G20G23
  20559416.133    -1395256.821 7  -1087212.82923        25.750           2.875
  22791033.031      662541.539 6    516266.03021        16.500           1.250
  20725427.133    -1674257.053 7  -1304615.15824        26.250           4.031
  23354460.969     1283996.370 6   1000512.15821        13.250           0.688
  23424095.508    -3172720.098 5  -2353675.55621        11.250           0.625
 91  7 24  1  0  0.0000000  0  5G 3G16G17G20G23
  20553388.617    -1426920.468 7  -1111885.78723        25.000           2.906
  22794380.680      680132.475 6    529973.22422        17.500           1.500
  20718148.258    -1712521.852 7  -1334431.86524        26.750           3.969
  23360420.977     1315317.738 6   1024918.31821        12.500           0.594
  23409878.758    -3247443.645 5  -2411901.55821        11.750           0.656
 91  7 24  1  0 15.0000000  0  5G 3G16G17G20G23
  20547385.875    -1458484.336 7  -1136481.00423        25.500           2.844
  22797747.234      697827.603 6    543761.61621        18.750           1.469
  20710882.445    -1750688.581 7  -1364172.15324        26.000           4.063
  23366391.047     1346692.859 6   1049366.34521        12.000           0.594
  23395669.742    -3322101.001 5  -2470075.98621        11.750           0.625
 91  7 24  1  0 30.0000000  0  5G 3G16G17G20G23
  20541395.484    -1489970.066 7  -1161015.33323        25.500           2.844
  22801130.695      715604.805 6    557613.96221        19.500           1.375
  20703632.727    -1788778.892 7  -1393852.89424        25.750           3.938
  23372366.867     1378099.710 5   1073839.11021        11.750           0.656
  23381472.406    -3396713.595 5  -2528215.53421        11.500           0.719
 91  7 24  1  0 45.0000000  0  5G 3G16G17G20G23
  20535415.070    -1521380.507 7  -1185490.99523        25.750           2.938
  22804529.219      733460.833 6    571527.74521        18.250           1.281
  20696401.391    -1826795.596 7  -1423476.28424        26.000           3.875
  23378350.430     1409534.968 6   1098334.01121        12.000           0.594
  23367281.664    -3471284.043 5  -2586322.24721        11.250           0.656
 91  7 24  1  1  0.0000000  0  5G 3G16G17G20G23
  20529451.867    -1552714.471 7  -1209907.07023        25.750           2.938
  22807939.852      751396.308 6    585503.42921        17.000           1.156
  20689179.867    -1864738.268 7  -1453041.98524        26.000           3.813
  23384337.969     1440998.953 6   1122851.27821        12.000           0.656
  23353099.430    -3545811.265 5  -2644395.28321        11.500           0.625
 91  7 24  1  1 15.0000000  0  5G 3G16G17G20G23
  20523507.219    -1583969.382 7  -1234261.53823        25.750           2.781
  22811369.367      769413.368 6    599542.68421        16.500           1.281
  20681972.945    -1902604.500 7  -1482548.12524        26.250           3.781
  23390330.852     1472493.714 6   1147392.54121        12.000           0.625
  23338925.359    -3620292.618 5  -2702432.55321        11.500           0.781
 91  7 24  1  1 30.0000000  0  5G 3G16G17G20G23
  20517572.602    -1615145.440 7  -1258554.56723        25.750           2.781
  22814814.492      787510.840 6    613644.59221        16.250           1.250
  20674784.805    -1940394.591 7  -1511994.93224        26.750           3.875
  23396331.195     1504018.603 6   1171957.27621        12.250           0.594
  23324759.570    -3694728.046 5  -2760434.04921        11.500           0.781
 91  7 24  1  1 45.0000000  0  5G 3G16G17G20G23
  20511654.016    -1646239.136 7  -1282783.41723        25.250           2.938
  22818273.766      805692.059 6    627811.75022        17.500           1.531
  20667608.594    -1978105.163 7  -1541379.77124        26.000           3.750
  23402335.102     1535576.676 5   1196547.86621        11.750           0.625
  23310605.898    -3769114.098 5  -2818397.07721        11.750           0.781
 91  7 24  1  2  0.0000000  0  5G 3G16G17G20G23
  20505754.688    -1677250.862 7  -1306948.39623        25.250           2.844
  22821751.078      823956.095 6    642043.43722        18.250           1.563
  20660445.148    -2015736.896 7  -1570703.18524        26.500           3.781
  23408345.383     1567166.729 5   1221163.37221        11.500           0.500
  23296457.727    -3843451.219 5  -2876321.97621        11.750           0.719
 91  7 24  1  2 15.0000000  0  5G 3G16G17G20G23
  20499869.734    -1708178.372 7  -1331047.75323        25.750           2.969
  22825241.367      842304.539 6    656340.90122        17.250           1.719
  20653299.398    -2053287.859 7  -1599963.66024        26.250           3.781
  23414363.789     1598790.664 6   1245805.27221        12.000           0.563
  23282324.023    -3917736.933 6  -2934206.82021        12.000           0.813
 91  7 24  1  2 30.0000000  0  5G 3G16G17G20G23
  20493999.492    -1739024.218 7  -1355083.47523        25.500           2.781
  22828747.266      860734.299 6    670701.71621        16.250           1.438
  20646171.266    -2090760.929 7  -1629163.43524        26.500           3.875
  23420386.695     1630445.250 5   1270471.07321        11.500           0.469
  23268198.109    -3991973.738 6  -2992053.55821        12.250           0.750
 91  7 24  1  2 45.0000000  0  5G 3G16G17G20G23
  20488145.469    -1769785.710 7  -1379053.47023        25.000           2.813
  22832271.383      879247.733 6    685127.73721        16.000           1.156
  20639053.133    -2128153.763 7  -1658300.69224        26.500           3.844
  23426417.859     1662132.573 5   1295161.87821        11.750           0.563
  23254081.984    -4066159.036 6  -3049860.15721        12.250           0.688
 91  7 24  1  3  0.0000000  0  5G 3G16G17G20G23
  20482309.242    -1800461.468 7  -1402956.65623        25.250           2.938
  22835809.820      897845.598 6    699619.56021        17.000           0.844
  20631952.555    -2165464.889 7  -1687374.28124        26.500           3.813
  23432454.570     1693853.485 5   1319879.35221        11.500           0.531
  23239973.586    -4140291.376 6  -3107625.49221        12.250           0.719
 91  7 24  1  3 15.0000000  0  5G 3G16G17G20G23
  20476486.672    -1831051.058 7  -1426792.70123        25.000           2.969
  22839363.219      916528.045 6    714177.31921        18.500           0.906
  20624870.805    -2202694.251 7  -1716384.16024        26.250           3.844
  23438496.406     1725607.951 5   1344622.95221        11.500           0.594
  23225875.320    -4214369.813 5  -3165348.83621        11.750           0.656
 91  7 24  1  3 30.0000000  0  5G 3G16G17G20G23
  20470680.953    -1861554.301 7  -1450561.46423        25.000           3.000
  22842936.555      935294.491 6    728800.53921        19.500           1.031
  20617800.445    -2239842.039 7  -1745330.47324        26.000           3.750
  23444545.141     1757395.363 5   1369392.25721        11.500           0.688
  23211790.055    -4288394.649 6  -3223030.40921        12.000           0.688
 91  7 24  1  3 45.0000000  0  5G 3G16G17G20G23
  20464897.609    -1891968.011 7  -1474260.46023        25.500           2.969
  22846524.609      954147.889 6    743491.50221        19.000           1.281
  20610746.250    -2276904.939 7  -1774210.64424        26.250           3.750
  23450602.461     1789218.602 5   1394189.45721        11.250           0.563
  23197715.688    -4362362.316 6  -3280667.42821        12.500           0.688
 91  7 24  1  4  0.0000000  0  5G 3G16G17G20G23
  20459123.727    -1922293.551 7  -1497890.75023        25.250           2.875
  22850127.117      973085.946 6    758248.39922        17.500           1.656
  20603712.156    -2313885.000 7  -1803026.25924        26.500           3.781
  23456664.508     1821075.364 5   1419012.79121        11.250           0.594
  23183649.047    -4436274.439 6  -3338261.17321        12.500           0.781
 91  7 24  1  4 15.0000000  0  5G 3G16G17G20G23
  20453371.570    -1952527.818 7  -1521449.91623        25.750           2.906
  22853746.906      992111.193 6    773073.23222        15.000           1.688
  20596691.461    -2350779.105 7  -1831774.89924        26.750           3.656
  23462732.086     1852968.549 5   1443864.47721        11.250           0.594
  23169594.969    -4510127.599 6  -3395808.98221        12.500           0.781
 91  7 24  1  4 30.0000000  0  5G 3G16G17G20G23
  20447635.922    -1982672.739 7  -1544939.46323        25.750           2.875
  22857383.531     1011221.118 6    787964.03022        14.250           1.563
  20589682.828    -2387589.469 7  -1860458.28524        26.750           3.750
  23468810.945     1884895.489 5   1468742.48921        11.250           0.625
  23155553.500    -4583923.599 6  -3453312.23721        12.750           0.750
 91  7 24  1  4 44.9990000  0  5G 3G16G17G20G23
  20441915.417    -2012724.985 7  -1568356.79823        25.750           2.938
  22861036.839     1030415.563 6    802920.68321        16.000           1.344
  20582698.456    -2424312.440 7  -1889073.57224        26.500           3.813
  23474890.144     1916855.052 5   1493645.91321        11.000           0.563
  23141521.792    -4657656.141 6  -3510766.05521        12.250           0.719
 91  7 24  1  4 59.9990000  0  5G 3G16G17G20G23
  20436213.948    -2042686.599 7  -1591703.51223        25.500           2.875
  22864706.503     1049698.413 6    817946.26821        18.250           1.094
  20575723.855    -2460951.439 7  -1917623.43024        26.250           3.781
  23480978.886     1948852.653 5   1518578.98021        10.750           0.563
  23127500.995    -4731333.207 6  -3568176.64321        12.250           0.719
 91  7 24  1  5 14.9990000  0  5G 3G16G17G20G23
  20430531.987    -2072553.765 7  -1614976.62723        25.250           2.813
  22868393.636     1069069.788 6    833040.85221        19.750           0.969
  20568768.065    -2497502.316 7  -1946104.62224        25.750           3.781
  23487073.667     1980887.395 5   1543541.00721        10.500           0.563
  23113492.878    -4804948.018 6  -3625538.73521        12.500           0.750
 91  7 24  1  5 29.9990000  0  5G 3G16G17G20G23
  20424864.065    -2102325.537 7  -1638175.41423        25.750           2.781
  22872097.776     1088530.030 6    848204.69621        19.250           0.875
  20561830.589    -2533964.361 7  -1974516.59124        25.500           3.750
  23493179.675     2012959.549 5   1568532.17221        10.500           0.594
  23099495.980    -4878499.656 6  -3682851.58421        12.500           0.844
 91  7 24  1  5 44.9990000  0  5G 3G16G17G20G23
  20419219.214    -2131999.497 7  -1661297.97723        25.750           2.875
  22875815.980     1108081.129 6    863439.31421        16.750           1.094
  20554910.042    -2570335.481 7  -2002857.71324        26.500           3.781
  23499288.409     2045071.175 5   1593554.08321        10.500           0.563
  23085509.167    -4951985.271 6  -3740112.99021        12.500           0.844
 91  7 24  1  5 59.9990000  0  5G 3G16G17G20G23
  20413591.487    -2161579.850 7  -1684347.60423        26.000           2.875
  22879553.292     1127718.427 6    878741.07821        14.500           1.281
  20548002.128    -2606620.057 7  -2031131.39624        26.750           3.656
  23505407.347     2077217.516 5   1618603.05421        10.500           0.563
  23071541.003    -5025409.173 6  -3797326.32021        13.250           0.719
 91  7 24  1  6 14.9990000  0  5G 3G16G17G20G23
  20407979.120    -2191064.383 7  -1707322.56223        26.500           2.938
  22883305.401     1147443.337 6    894111.08922        13.500           1.594
  20541117.534    -2642816.121 7  -2059336.10824        26.500           3.656
  23511531.433     2109400.040 5   1643680.20021        10.750           0.563
  23057580.144    -5098769.276 6  -3854489.93421        13.250           0.813
 91  7 24  1  6 29.9990000  0  5G 3G16G17G20G23
  20402387.261    -2220449.018 7  -1730219.67923        25.750           2.875
  22887079.714     1167259.676 6    909552.32922        16.000           1.563
  20534245.714    -2678919.747 7  -2087468.79024        26.250           3.719
  23517663.667     2141622.573 5   1668788.54121        11.000           0.469
  23043633.136    -5172061.203 6  -3911600.42021        12.750           0.844
 91  7 24  1  6 44.9990000  0  5G 3G16G17G20G23
  20396815.815    -2249731.008 7  -1753036.81223        25.750           2.875
  22890866.519     1187169.526 6    925066.46822        18.250           1.531
  20527392.745    -2714928.580 7  -2115527.60824        26.000           3.813
  23523803.050     2173887.140 5   1693929.62321        11.000           0.531
  23029699.683    -5245282.117 6  -3968655.57821        12.750           0.719
 91  7 24  1  6 59.9990000  0  5G 3G16G17G20G23
  20391262.253    -2278908.222 7  -1775772.29823        25.250           2.813
  22894674.964     1207174.213 6    940654.52221        19.750           1.219
  20520561.761    -2750840.723 7  -2143511.08824        26.000           3.688
  23529951.894     2206195.181 5   1719104.59021        10.000           0.469
  23015781.073    -5318430.048 6  -4025653.85121        12.750           0.813
 91  7 24  1  7 14.9990000  0  5G 3G16G17G20G23
  20385732.105    -2307984.953 7  -1798429.48723        25.000           2.906
  22898497.417     1227269.156 6    956312.90221        19.500           0.906
  20513742.550    -2786660.770 7  -2171422.80524        26.000           3.844
  23536107.011     2238541.988 5   1744309.75021        10.250           0.469
  23001873.222    -5391509.149 6  -4082598.51321        12.750           0.844
 91  7 24  1  7 29.9990000  0  5G 3G16G17G20G23
  20380215.722    -2336961.263 7  -1821008.42923        25.250           2.875
  22902338.792     1247453.912 6    972041.30121        17.500           0.719
  20506945.940    -2822388.776 7  -2199262.79724        26.500           3.719
  23542269.487     2270926.918 5   1769544.12521        10.750           0.594
  22987980.440    -5464519.343 6  -4139489.47221        12.500           0.719
 91  7 24  1  7 44.9990000  0  5G 3G16G17G20G23
  20374718.456    -2365837.899 7  -1843509.70123        25.000           2.844
  22906196.089     1267727.271 6    987838.72821        15.250           0.750
  20500163.222    -2858025.778 7  -2227031.88224        27.000           3.719
  23548436.808     2303348.651 5   1794807.68721        10.500           0.438
  22974098.933    -5537461.306 6  -4196327.27521        12.750           0.813
 91  7 24  1  7 59.9990000  0  5G 3G16G17G20G23
  20369247.339    -2394610.860 7  -1865930.18723        25.750           2.813
  22910071.565     1288092.762 6   1003707.93121        14.500           0.938
  20493399.362    -2893568.198 7  -2254727.26324        27.000           3.844
  23554617.644     2335810.552 5   1820102.55021        10.750           0.438
  22960228.683    -5610331.105 6  -4253108.84221        12.750           0.875
 91  7 24  1  8 14.9990000  0  5G 3G16G17G20G23
  20363787.636    -2423285.212 7  -1888273.83223        25.000           2.844
  22913962.628     1308544.467 6   1019644.28221        16.250           1.188
  20486654.972    -2929021.093 7  -2282352.88624        27.000           3.750
  23560799.151     2368307.229 5   1845424.50521        10.250           0.375
  22946377.870    -5683133.674 6  -4309838.02321        12.750           0.906
 91  7 24  1  8 29.9990000  0  5G 3G16G17G20G23
  20358353.839    -2451855.175 7  -1910536.13523        25.250           2.844
  22917872.659     1329087.599 6   1035651.88921        17.750           1.469
  20479922.073    -2964379.178 7  -2309904.63324        26.250           3.781
  23566990.034     2400843.594 5   1870777.37921         9.500           0.563
  22932536.823    -5755863.258 6  -4366510.32121        13.250           0.875
 91  7 24  1  8 44.9990000  0  5G 3G16G17G20G23
  20352936.011    -2480321.052 7  -1932717.33423        25.000           2.781
  22921800.230     1349721.453 6   1051730.19122        18.750           1.813
  20473215.300    -2999642.937 7  -2337382.88224        26.500           3.750
  23573189.917     2433418.971 5   1896160.13421         9.250           0.531
  22918712.339    -5828519.974 6  -4423125.85021        13.250           0.813
 91  7 24  1  8 59.9990000  0  5G 3G16G17G20G23
  20347537.730    -2508682.434 7  -1954817.10523        24.500           2.969
  22925742.995     1370445.900 6   1067879.08622        18.250           1.719
  20466522.425    -3034812.402 7  -2364787.65024        26.500           3.813
  23579396.808     2466032.874 5   1921573.43421         9.750           0.500
  22904899.151    -5901103.582 6  -4479684.40621        13.750           0.906
 91  7 24  1  9 14.9990000  0  5G 3G16G17G20G23
  20342161.526    -2536943.779 7  -1976838.92823        25.000           2.875
  22929703.605     1391256.062 6   1084094.76421        16.750           1.438
  20459845.472    -3069892.007 7  -2392122.40124        26.500           3.938
  23585612.511     2498680.641 5   1947013.09721        10.250           0.563
  22891099.980    -5973618.092 6  -4536189.12721        14.000           1.031
 91  7 24  1  9 29.9990000  0  5G 3G16G17G20G23
  20336801.464    -2565100.945 7  -1998779.56923        25.250           2.875
  22933678.761     1412155.529 6   1100380.03121        14.000           1.094
  20453188.956    -3104877.863 7  -2419384.09924        26.750           3.813
  23591831.112     2531365.782 5   1972481.91221        10.750           0.469
  22877315.847    -6046059.535 6  -4592636.91221        14.250           0.969
 91  7 24  1  9 44.9990000  0  5G 3G16G17G20G23
  20331464.230    -2593153.153 7  -2020638.42523        25.500           2.969
  22937675.503     1433144.623 5   1116735.12521        11.500           0.719
  20446548.581    -3139769.423 7  -2446572.32124        27.250           3.813
  23598056.331     2564088.486 5   1997979.97621        10.750           0.469
  22863544.105    -6118427.012 6  -4649027.05621        14.250           0.938
 91  7 24  1  9 59.9990000  0  5G 3G16G17G20G23
  20326144.534    -2621098.024 7  -2042413.64123        25.500           2.844
  22941684.847     1454225.372 6   1133161.65221        12.750           0.563
  20439929.480    -3174564.557 7  -2473685.40224        27.250           3.875
  23604291.315     2596850.643 5   2023508.81121        10.250           0.344
  22849786.972    -6190718.119 6  -4705357.69321        13.750           1.000
 91  7 24  1 10 14.9990000  0  5G 3G16G17G20G23
  20320848.776    -2648936.098 7  -2064105.64023        25.000           3.000
  22945714.456     1475396.205 6   1149658.41321        15.500           0.594
  20433324.339    -3209264.163 7  -2500724.04724        26.750           3.719
  23610531.628     2629651.004 5   2049067.40121        10.000           0.469
  22836047.073    -6262933.445 6  -4761629.27421        14.250           0.969
 91  7 24  1 10 29.9990000  0  5G 3G16G17G20G23
  20315570.683    -2676666.392 7  -2085713.65523        24.500           3.031
  22949760.198     1496658.051 6   1166226.09921        18.000           0.844
  20426740.987    -3243867.181 7  -2527687.42724        26.250           3.719
  23616784.019     2662490.143 5   2074656.19521         9.750           0.406
  22822315.753    -6335071.731 6  -4817840.83021        14.000           0.906
 91  7 24  1 10 44.9990000  0  5G 3G16G17G20G23
  20310316.370    -2704288.327 7  -2107237.23823        24.250           3.031
  22953824.378     1518010.710 6   1182864.52521        19.750           1.250
  20420173.644    -3278373.613 7  -2554575.55324        26.000           3.781
  23623039.675     2695368.055 5   2100275.17221        10.250           0.438
  22808604.706    -6407132.626 6  -4873992.08021        14.250           0.781
 91  7 24  1 10 59.9990000  0  5G 3G16G17G20G23
  20305078.730    -2731804.984 7  -2128678.77423        24.500           2.938
  22957904.089     1539450.628 6   1199570.94022        19.000           1.688
  20413625.339    -3312786.907 7  -2581391.09124        26.000           3.781
  23629302.394     2728280.941 5   2125921.45521        10.000           0.500
  22794906.808    -6479119.050 6  -4930085.29421        14.250           0.938
 91  7 24  1 11 14.9990000  0  5G 3G16G17G20G23
  20299865.284    -2759209.551 7  -2150032.97623        24.750           2.781
  22962001.050     1560984.036 6   1216350.18822        16.500           1.844
  20407094.065    -3347100.394 7  -2608128.86324        26.500           3.844
  23635573.308     2761235.277 5   2151600.01121        10.250           0.438
  22781222.925    -6551023.895 6  -4986114.94121        14.000           0.906
 91  7 24  1 11 29.9990000  0  5G 3G16G17G20G23
  20294668.769    -2786508.176 7  -2171304.63223        25.000           2.906
  22966115.980     1582604.138 6   1233196.97322        14.500           1.781
  20400585.409    -3381320.329 7  -2634793.73724        27.000           3.719
  23641850.995     2794224.163 5   2177305.00621        10.000           0.406
  22767552.386    -6622853.459 6  -5042085.93321        14.000           1.000
 91  7 24  1 11 44.9990000  0  5G 3G16G17G20G23
  20289495.878    -2813697.748 7  -2192491.30623        25.250           2.938
  22970246.745     1604313.770 6   1250113.52222        12.750           1.625
  20394090.034    -3415443.992 7  -2661383.59624        27.250           3.813
  23648135.839     2827250.267 5   2203039.49721        10.000           0.375
  22753900.401    -6694604.521 6  -5097995.74721        14.500           0.875
 91  7 24  1 11 59.9990000  0  5G 3G16G17G20G23
  20284339.292    -2840784.621 7  -2213597.95323        25.500           3.063
  22974394.034     1626106.082 6   1267094.46621        13.000           1.281
  20387613.862    -3449477.937 7  -2687903.54424        27.250           3.750
  23654427.003     2860306.654 5   2228797.56421        10.000           0.438
  22740260.870    -6766283.421 6  -5153849.33421        14.500           1.000
 91  7 24  1 12 14.9990000  0  5G 3G16G17G20G23
  20279206.776    -2867764.512 7  -2234621.24023        24.750           2.938
  22978557.519     1647984.905 6   1284142.86821        15.000           0.750
  20381154.370    -3483417.708 7  -2714350.10824        27.000           3.844
  23660724.565     2893397.102 5   2254582.17621        10.500           0.438
  22726636.034    -6837885.739 6  -5209643.24821        14.500           0.906
 91  7 24  1 12 29.9990000  0  5G 3G16G17G20G23
  20274091.644    -2894634.799 7  -2255559.12323        24.750           2.844
  22982738.558     1669952.108 6   1301260.17821        17.250           0.625
  20374715.605    -3517261.010 7  -2740721.49724        26.750           3.844
  23667028.456     2926523.620 5   2280394.92121        10.250           0.375
  22713024.183    -6909408.732 6  -5265375.34021        14.750           0.938
 91  7 24  1 12 44.9990000  0  5G 3G16G17G20G23
  20269002.409    -2921396.204 7  -2276412.16223        24.500           2.938
  22986934.105     1692006.503 6   1318445.44121        18.000           0.625
  20368291.565    -3551009.257 7  -2767018.82124        26.500           3.875
  23673337.823     2959684.949 5   2306234.25021        10.250           0.375
  22699431.230    -6980853.403 6  -5321046.41321        15.000           1.031
 91  7 24  1 12 59.9990000  0  5G 3G16G17G20G23
  20263928.565    -2948047.345 7  -2297179.27823        24.750           2.906
  22991146.792     1714148.963 6   1335699.32521        18.000           0.875
  20361890.355    -3584661.223 7  -2793241.11724        26.500           3.906
  23679654.956     2992881.808 5   2332101.82621        10.000           0.250
  22685850.714    -7052218.194 6  -5376655.23021        15.000           1.000
 91  7 24  1 13 14.9990000  0  5G 3G16G17G20G23
  20258879.940    -2974591.381 7  -2317862.94123        24.750           2.875
  22995378.940     1736375.988 6   1353019.07521        17.000           1.063
  20355502.987    -3618220.308 7  -2819391.03524        26.750           3.813
  23685979.761     3026110.645 5   2357994.27621         9.500           0.438
  22672284.894    -7123505.874 6  -5432203.96721        15.000           0.969
 91  7 24  1 13 29.9990000  0  5G 3G16G17G20G23
  20253846.698    -3001026.741 7  -2338461.92223        25.000           2.875
  22999625.026     1758688.379 6   1370405.32422        15.500           1.594
  20349136.323    -3651684.968 7  -2845467.38324        27.000           3.906
  23692311.230     3059372.500 5   2383912.43421         9.500           0.313
  22658732.612    -7194715.029 6  -5487691.52721        15.250           1.125
 91  7 24  1 13 44.9990000  0  5G 3G16G17G20G23
  20248839.472    -3027351.052 7  -2358974.37523        25.500           2.938
  23003885.698     1781088.428 6   1387859.85822        13.000           1.781
  20342784.565    -3685053.037 7  -2871468.46024        27.250           3.875
  23698643.269     3092669.107 5   2409857.70821         9.750           0.375
  22645196.651    -7265843.439 6  -5543116.15621        15.500           1.063
 91  7 24  1 13 59.9990000  0  5G 3G16G17G20G23
  20243850.269    -3053565.496 7  -2379401.21823        25.500           2.844
  23008162.237     1803573.833 5   1405380.88822        11.500           2.000
  20336454.073    -3718326.418 7  -2897395.75724        27.250           3.875
  23704986.190     3125998.478 5   2435828.49921        10.500           0.406
  22631676.886    -7336892.267 6  -5598478.77521        15.250           1.094
 91  7 24  1 14 14.9990000  0  5G 3G16G17G20G23
  20238881.042    -3079666.283 7  -2399739.48723        25.500           2.844
  23012462.878     1826148.153 6   1422971.19822        13.000           1.781
  20330140.808    -3751501.189 7  -2923246.21324        26.750           3.719
  23711338.690     3159364.289 5   2461827.71121         9.750           0.281
  22618172.425    -7407857.237 6  -5653776.05321        15.500           1.031
 91  7 24  1 14 29.9990000  0  5G 3G16G17G20G23
  20233938.987    -3105657.302 7  -2419992.22223        25.500           2.844
  23016772.339     1848806.986 6   1440627.37721        15.250           1.344
  20323844.269    -3784581.520 7  -2949023.08024        26.750           3.813
  23717695.230     3192762.033 5   2487851.26821         9.250           0.375
  22604682.112    -7478742.231 6  -5709011.01821        14.750           1.188
 91  7 24  1 14 44.9990000  0  5G 3G16G17G20G23
  20229011.605    -3131537.724 7  -2440158.78323        25.250           2.906
  23021102.706     1871550.533 6   1458349.60621        16.750           1.156
  20317570.175    -3817567.033 7  -2974726.05724        26.750           3.719
  23724053.940     3226191.513 5   2513900.06421         8.500           0.438
  22591211.144    -7549546.802 6  -5764183.30921        14.750           1.156
 91  7 24  1 14 59.9990000  0  5G 3G16G17G20G23
  20224110.440    -3157300.540 7  -2460233.71123        25.000           2.781
  23025447.565     1894385.433 6   1476143.02321        18.000           0.875
  20311310.401    -3850450.483 7  -3000349.51024        26.250           3.781
  23730418.573     3259659.538 5   2539978.88421         8.500           0.500
  22577751.761    -7620263.432 6  -5819287.07921        14.500           1.125
 91  7 24  1 15 14.9990000  0  5G 3G16G17G20G23
  20219228.651    -3182948.826 7  -2480219.38823        24.500           2.938
  23029808.667     1917308.275 6   1494004.97321        17.750           0.625
  20305073.745    -3883235.324 7  -3025896.12424        26.750           3.875
  23736793.940     3293162.621 5   2566085.02521         9.250           0.406
  22564310.628    -7690895.290 6  -5874324.79121        14.500           1.094
 91  7 24  1 15 29.9990000  0  5G 3G16G17G20G23
  20214367.144    -3208495.014 7  -2500125.51023        25.000           2.813
  23034185.315     1940305.837 6   1511925.17721        16.500           0.500
  20298851.980    -3915934.538 7  -3051376.01724        26.750           3.813
  23743177.050     3326687.767 5   2592207.89121         9.500           0.406
  22550884.792    -7761454.863 6  -5929306.18321        14.750           1.063
 91  7 24  1 15 44.9990000  0  5G 3G16G17G20G23
  20209528.011    -3233934.142 7  -2519948.20223        25.250           2.875
  23038577.175     1963382.390 6   1529906.90821        14.750           0.656
  20292643.355    -3948543.495 7  -3076785.57924        26.750           3.875
  23749563.089     3360239.244 5   2618351.72621        10.000           0.500
  22537473.237    -7831937.265 6  -5984227.44121        15.500           1.125
 91  7 24  1 15 59.9990000  0  5G 3G16G17G20G23
  20204707.980    -3259262.789 7  -2539684.81523        25.250           2.969
  23042983.230     1986541.143 6   1547952.66921        13.750           0.906
  20286456.370    -3981058.631 7  -3102122.03624        27.000           3.781
  23755952.839     3393820.018 5   2644518.41721         9.250           0.438
  22524076.425    -7902338.594 6  -6039085.53021        15.500           1.094
 91  7 24  1 16 14.9990000  0  5G 3G16G17G20G23
  20199908.933    -3284470.036 7  -2559326.83023        25.500           2.813
  23047406.269     2009792.142 6   1566070.30021        13.000           1.031
  20280292.355    -4013469.228 7  -3127377.03224        27.000           3.781
  23762348.573     3427440.237 5   2670715.83821         8.750           0.469
  22510694.839    -7972648.179 6  -6093872.12321        15.500           1.125
 91  7 24  1 16 29.9990000  0  5G 3G16G17G20G23
  20195137.651    -3309560.570 7  -2578877.88923        25.750           2.781
  23051848.425     2033130.630 6   1584256.08921        13.000           1.344
  20274138.620    -4045780.161 7  -3152554.36424        26.500           3.781
  23768755.839     3461094.839 5   2696940.04121         8.750           0.438
  22497332.355    -8042870.568 6  -6148590.77021        15.500           1.063
 91  7 24  1 16 44.9990000  0  5G 3G16G17G20G23
  20190385.542    -3334533.977 7  -2598337.69023        25.500           2.906
  23056305.526     2056556.318 6   1602509.82521        14.250           1.344
  20268009.753    -4077991.531 7  -3177654.11824        26.250           3.719
  23775164.722     3494783.794 5   2723190.52121         8.250           0.313
  22483988.956    -8113005.167 6  -6203241.02421        15.500           1.000
 91  7 24  1 16 59.9990000  0  5G 3G16G17G20G23
  20185650.323    -3359395.366 7  -2617710.20923        25.250           2.844
  23060779.722     2080063.680 6   1620827.21622        15.500           1.563
  20261901.440    -4110108.690 7  -3202680.46424        26.500           3.719
  23781580.386     3528501.190 5   2749463.66121         8.750           0.438
  22470658.097    -8183057.225 6  -6257826.94421        15.750           1.125
 91  7 24  1 17 14.9990000  0  5G 3G16G17G20G23
  20180942.839    -3384142.957 7  -2636994.04423        25.000           2.781
  23065267.706     2103654.220 6   1639209.41521        15.750           1.469
  20255807.112    -4142129.687 7  -3227631.87424        26.750           3.719
  23788003.370     3562248.473 5   2775760.07721         8.750           0.438
  22457342.034    -8253024.748 6  -6312347.00621        15.250           1.188
 91  7 24  1 17 29.9990000  0  5G 3G16G17G20G23
  20176257.987    -3408775.202 7  -2656188.00123        25.000           2.750
  23069773.620     2127328.262 6   1657656.70521        16.000           1.313
  20249731.089    -4174053.843 7  -3252507.82724        27.000           3.719
  23794430.589     3596026.415 5   2802080.39621         9.000           0.406
  22444043.511    -8322906.489 6  -6366800.21521        15.250           1.156
 91  7 24  1 17 44.9990000  0  5G 3G16G17G20G23
  20171589.128    -3433296.664 7  -2675295.63023        24.750           2.844
  23074292.675     2151081.306 6   1676165.54121        15.750           1.063
  20243675.237    -4205885.714 7  -3277311.87024        27.000           3.750
  23800865.214     3629830.170 5   2828420.83721         9.250           0.406
  22430761.144    -8392706.614 6  -6421189.83621        15.500           1.125
 91  7 24  1 17 59.9990000  0  5G 3G16G17G20G23
  20166943.558    -3457704.785 7  -2694314.94523        25.250           2.750
  23078830.026     2174915.227 6   1694737.40821        15.500           0.844
  20237635.245    -4237623.083 7  -3302042.27424        26.750           3.813
  23807299.495     3663661.651 5   2854782.86621         9.000           0.469
  22417491.855    -8462422.494 6  -6475513.81221        15.000           1.031
 91  7 24  1 18 14.9990000  0  5G 3G16G17G20G23
  20162322.026    -3481995.157 7  -2713242.50823        25.250           2.844
  23083379.456     2198833.818 6   1713375.26021        15.000           0.656
  20231613.862    -4269261.626 7  -3326695.66824        26.750           3.719
  23813743.456     3697524.683 5   2881169.49521         8.250           0.344
  22404244.956    -8532049.885 6  -6529768.83821        15.500           1.156
 91  7 24  1 18 29.9990000  0  5G 3G16G17G20G23
  20157723.776    -3506171.712 7  -2732081.37623        25.750           2.813
  23087949.401     2222832.979 6   1732075.91421        14.000           0.500
  20225609.456    -4300805.481 7  -3351275.27424        26.500           3.781
  23820192.628     3731414.829 5   2907577.23421         8.000           0.344
  22391011.097    -8601592.505 6  -6583957.79721        15.750           1.125
 91  7 24  1 18 44.9990000  0  5G 3G16G17G20G23
  20153144.175    -3530232.680 7  -2750830.19023        25.250           2.813
  23092528.409     2246913.983 6   1750840.34921        12.500           0.469
  20219626.550    -4332253.193 7  -3375779.97124        27.000           3.688
  23826649.409     3765333.331 5   2934006.59221         8.250           0.344
  22377794.394    -8671048.541 6  -6638079.30021        16.250           1.156
 91  7 24  1 18 59.9990000  0  5G 3G16G17G20G23
  20148585.597    -3554176.430 7  -2769487.64423        25.500           2.875
  23097130.089     2271077.728 6   1769669.21421        12.000           0.563
  20213661.050    -4363603.386 7  -3400208.67824        27.000           3.688
  23833109.823     3799281.092 5   2960459.22221         8.750           0.281
  22364595.292    -8740416.427 6  -6692132.11321        16.250           1.188
 91  7 24  1 19 14.9990000  0  5G 3G16G17G20G23
  20144051.128    -3578005.295 7  -2788055.59423        25.500           2.813
  23101738.245     2295321.079 5   1788560.11521        11.500           0.594
  20207714.581    -4394858.511 7  -3424563.30524        27.250           3.813
  23839574.128     3833255.425 5   2986932.58621         8.750           0.344
  22351410.659    -8809698.351 6  -6746117.94521        16.250           1.313
 91  7 24  1 19 29.9990000  0  5G 3G16G17G20G23
  20139541.409    -3601711.936 7  -2806528.30123        25.500           2.781
  23106371.355     2319650.941 6   1807518.42221        12.000           0.781
  20201786.745    -4426011.551 7  -3448838.38824        27.750           3.813
  23846048.480     3867263.059 5   3013431.86721         9.000           0.375
  22338243.370    -8878886.991 6  -6800031.07721        15.500           1.281
 91  7 24  1 19 44.9990000  0  5G 3G16G17G20G23
  20135055.347    -3625294.321 7  -2824904.18323        25.250           2.781
  23111019.792     2344069.062 6   1826545.49221        13.250           0.938
  20195877.495    -4457060.676 7  -3473032.49724        27.250           3.813
  23852525.948     3901305.580 5   3039958.37421         8.500           0.313
  22325096.011    -8947980.066 6  -6853869.75221        16.000           1.438
 91  7 24  1 19 59.9990000  0  5G 3G16G17G20G23
  20130590.355    -3648753.262 7  -2843183.87823        24.750           2.781
  23115682.753     2368574.370 6   1845640.51421        15.250           1.000
  20189986.175    -4488006.848 7  -3497146.38924        27.500           3.781
  23859008.144     3935381.775 5   3066511.06921         8.000           0.406
  22311965.081    -9016978.264 6  -6907634.50021        16.000           1.313
 91  7 24  1 20 14.9990000  0  5G 3G16G17G20G23
  20126148.136    -3672098.074 7  -2861374.64023        25.000           2.813
  23120360.526     2393156.493 6   1864795.38421        16.250           1.281
  20184113.612    -4518859.916 7  -3521187.72924        26.250           3.688
  23865500.315     3969481.375 5   3093082.01421         8.000           0.406
  22298850.815    -9085891.239 6  -6961332.83421        16.250           1.375
 91  7 24  1 20 29.9990000  0  5G 3G16G17G20G23
  20121725.901    -3695334.861 7  -2879481.21623        25.000           2.719
  23125051.128     2417809.222 6   1884005.28721        16.750           1.188
  20178260.690    -4549626.088 7  -3545161.35024        26.250           3.750
  23871992.901     4003597.882 5   3119666.15021         7.750           0.344
  22285754.331    -9154724.854 6  -7014969.33021        16.000           1.375
 91  7 24  1 20 44.9990000  0  5G 3G16G17G20G23
  20117324.644    -3718456.240 7  -2897497.87423        25.000           2.875
  23129755.589     2442539.509 6   1903275.62421        16.750           1.125
  20172425.128    -4580298.059 7  -3569061.57324        26.500           3.750
  23878488.792     4037738.477 5   3146269.03621         7.500           0.313
  22272669.972    -9223471.630 6  -7068538.15921        16.250           1.219
 91  7 24  1 20 59.9990000  0  5G 3G16G17G20G23
  20112946.855    -3741464.604 7  -2915426.46923        24.750           2.781
  23134476.964     2467344.287 6   1922604.00321        16.500           1.094
  20166607.089    -4610878.495 7  -3592890.46824        26.500           3.750
  23884989.105     4071900.100 5   3172888.31321         7.500           0.281
  22259605.862    -9292134.061 6  -7122041.27121        16.250           1.375
 91  7 24  1 21 14.9990000  0  5G 3G16G17G20G23
  20108590.737    -3764351.873 7  -2933260.70123        25.000           3.000
  23139214.112     2492231.185 6   1941996.36621        15.250           1.031
  20160807.269    -4641359.612 7  -3616641.97624        26.750           3.875
  23891495.495     4106090.198 5   3199529.78621         7.750           0.281
  22246557.261    -9360704.052 6  -7175472.34821        16.500           1.250
 91  7 24  1 21 29.9990000  0  5G 3G16G17G20G23
  20104257.933    -3787121.025 7  -2951002.89523        25.250           2.813
  23143964.214     2517196.229 6   1961449.63721        13.750           1.000
  20155025.737    -4671744.694 7  -3640318.65724        27.000           3.844
  23898005.214     4140304.861 5   3226190.40521         8.750           0.313
  22233525.269    -9429184.519 6  -7228833.67421        16.750           1.313
 91  7 24  1 21 44.9990000  0  5G 3G16G17G20G23
  20099948.011    -3809772.726 7  -2968653.57323        25.500           2.813
  23148728.269     2542238.994 5   1980963.45221        11.750           0.969
  20149262.362    -4702034.428 7  -3663921.03224        27.000           3.875
  23904522.480     4174543.504 5   3252869.69721         8.750           0.313
  22220511.151    -9497575.807 6  -7282125.51321        16.750           1.250
 91  7 24  1 21 59.9990000  0  5G 3G16G17G20G23
  20095659.409    -3832305.773 7  -2986211.78723        25.500           2.844
  23153506.823     2567359.730 5   2000538.00821        11.000           0.844
  20143514.940    -4732228.210 7  -3687448.64224        26.500           3.813
  23911043.472     4208806.354 5   3279567.85921         9.000           0.344
  22207513.558    -9565876.844 6  -7335347.02221        17.000           1.344
 91  7 24  1 22 14.9980000  0  5G 3G16G17G20G23
  20091393.889    -3854717.142 7  -3003675.18823        25.500           2.906
  23158304.240     2592557.958 5   2020172.95021        10.750           0.688
  20137788.225    -4762322.267 7  -3710898.54424        26.750           3.750
  23917565.873     4243092.413 5   3306284.09921         9.000           0.281
  22194535.178    -9634081.279 6  -7388493.25221        17.250           1.281
 91  7 24  1 22 29.9980000  0  5G 3G16G17G20G23
  20087152.568    -3877009.736 7  -3021046.03823        25.750           2.813
  23163113.412     2617836.542 5   2039870.51521        11.750           0.625
  20132079.193    -4792321.270 7  -3734274.38024        26.750           3.781
  23924097.061     4277405.593 5   3333021.49221         8.750           0.375
  22181572.123    -9702198.364 6  -7441571.42221        17.000           1.344
 91  7 24  1 22 44.9980000  0  5G 3G16G17G20G23
  20082933.029    -3899182.752 7  -3038323.71123        25.500           2.906
  23167939.334     2643192.588 6   2059628.45121        13.250           0.438
  20126388.647    -4822224.034 7  -3757575.22424        26.750           3.781
  23930629.647     4311742.585 5   3359777.41721         8.250           0.344
  22168626.943    -9770223.863 6  -7494578.23421        17.250           1.344
 91  7 24  1 22 59.9980000  0  5G 3G16G17G20G23
  20078736.209    -3921237.698 7  -3055509.38723        25.250           2.781
  23172779.693     2668624.078 6   2079445.20621        15.000           0.438
  20120716.232    -4852032.143 7  -3780802.31424        26.500           3.875
  23937170.100     4346101.346 5   3386550.28721         8.250           0.375
  22155698.107    -9838159.514 6  -7547515.02921        17.000           1.344
 91  7 24  1 23 14.9980000  0  5G 3G16G17G20G23
  20074563.037    -3943169.121 7  -3072598.81423        25.250           2.719
  23177633.865     2694135.848 6   2099324.49921        15.750           0.594
  20115064.170    -4881740.142 7  -3803951.40324        26.750           3.938
  23943709.881     4380486.784 5   3413343.96821         7.750           0.281
  22142790.092    -9905999.610 6  -7600377.37821        16.750           1.344
 91  7 24  1 23 29.9980000  0  5G 3G16G17G20G23
  20070413.936    -3964980.495 7  -3089594.68923        25.500           2.813
  23182502.600     2719724.330 6   2119263.57621        16.250           0.594
  20109428.420    -4911351.843 7  -3827025.44424        26.250           3.844
  23950258.522     4414894.875 5   3440155.31421         7.750           0.375
  22129897.162    -9973747.590 6  -7653167.93221        16.250           1.375
 91  7 24  1 23 44.9980000  0  5G 3G16G17G20G23
  20066285.451    -3986672.793 7  -3106497.78023        25.500           2.844
  23187385.537     2745387.316 6   2139260.70621        16.000           0.844
  20103810.272    -4940869.024 7  -3850025.83624        26.250           3.875
  23956810.053     4449323.847 4   3466982.91121         7.250           0.281
  22117021.568   -10041404.672 6  -7705887.66121        16.250           1.344
 91  7 24  1 23 59.9980000  0  4G 3G16G17G23
  20062181.764    -4008241.607 7  -3123304.64623        25.750           2.750
  23192284.467     2771129.205 6   2159319.30721        14.500           1.000
  20098212.006    -4970287.155 7  -3872949.04424        26.500           3.781
  22104165.709   -10108966.146 6  -7758532.89621        16.500           1.469
 91  7 24  1 24 14.9980000  0  4G 3G16G17G23
  20058100.686    -4029688.716 7  -3140016.67723        25.250           2.781
  23197198.639     2796947.950 6   2179437.78321        13.750           1.313
  20092630.717    -4999608.063 7  -3895796.49424        27.000           3.906
  22091326.279   -10176433.843 6  -7811105.05021        16.750           1.406
 91  7 24  1 24 29.9980000  0  4G 3G16G17G23
  20054044.006    -4051013.778 7  -3156633.61023        25.500           2.844
  23202126.029     2822843.647 6   2199616.20821        12.000           1.438
  20087071.209    -5028831.619 7  -3918568.09124        27.250           3.844
  22078506.920   -10243807.196 6  -7863603.69321        17.250           1.438
 91  7 24  1 24 44.9980000  0  4G 3G16G17G23
  20050008.162    -4072216.418 7  -3173155.14723        25.500           2.844
  23207069.928     2848815.667 5   2219854.09522        11.250           1.531
  20081529.701    -5057957.689 7  -3941263.71924        27.250           3.844
  22065703.873   -10311085.763 6  -7916028.48221        17.250           1.375
 91  7 24  1 24 59.9980000  0  4G 3G16G17G23
  20045994.951    -4093298.107 7  -3189582.43323        25.500           2.750
  23212024.342     2874861.754 5   2240149.70221        10.500           1.406
  20076005.748    -5086988.316 7  -3963884.97224        27.500           3.969
  22052917.795   -10378271.524 6  -7968380.94722        17.000           1.531
 91  7 24  1 25 14.9980000  0  4G 3G16G17G23
  20042005.748    -4114259.453 7  -3205915.95423        25.250           2.844
  23216994.162     2900981.371 5   2260502.57321        10.000           1.438
  20070499.475    -5115923.867 7  -3986432.15524        27.500           3.938
  22040152.748   -10445364.436 6  -8020661.07721        17.250           1.438
 91  7 24  1 25 29.9980000  0  4G 3G16G17G23
  20038040.701    -4135099.157 7  -3222154.68923        25.500           2.625
  23221979.756     2927175.105 5   2280913.22622        11.250           1.500
  20065011.154    -5144763.525 7  -4008904.61324        27.250           3.906
  22027402.068   -10512363.507 6  -8072868.07521        17.250           1.375
 91  7 24  1 25 44.9980000  0  4G 3G16G17G23
  20034100.857    -4155810.227 7  -3238293.18523        25.250           2.750
  23226978.639     2953449.325 6   2301386.60221        12.000           1.281
  20059541.162    -5173500.544 7  -4031297.08424        27.250           3.875
  22014672.006   -10579261.589 6  -8124996.38022        17.000           1.563
 91  7 24  1 25 59.9980000  0  4G 3G16G17G23
  20030182.936    -4176394.780 7  -3254333.09823        25.000           2.750
  23231993.670     2979801.756 6   2321920.92721        12.250           1.219
  20054092.811    -5202137.140 7  -4053611.30924        27.250           3.969
  22001961.295   -10646060.390 6  -8177047.32322        17.250           1.594
 91  7 24  1 26 14.9980000  0  4G 3G16G17G23
  20026288.209    -4196855.553 7  -3270276.55823        25.000           2.813
  23237024.115     3006228.499 6   2342513.15521        13.250           0.875
  20048661.553    -5230676.841 7  -4075850.02624        26.750           3.875
  21989266.115   -10712763.071 6  -8229023.36921        17.250           1.438
 91  7 24  1 26 29.9980000  0  4G 3G16G17G23
  20022417.920    -4217194.794 7  -3286125.32823        25.000           2.688
  23242066.803     3032727.456 6   2363161.66721        13.250           0.656
  20043249.647    -5259121.519 7  -4098014.70224        26.750           3.906
  21976591.428   -10779371.618 6  -8280926.06621        17.500           1.438
 91  7 24  1 26 44.9980000  0  4G 3G16G17G23
  20018573.037    -4237410.344 7  -3301877.70723        25.000           2.625
  23247124.873     3059300.217 6   2383867.69121        13.750           0.469
  20037854.264    -5287469.416 7  -4120103.96524        27.000           4.000
  21963935.279   -10845883.751 6  -8332753.64322        17.250           1.500
 91  7 24  1 26 59.9980000  0  4G 3G16G17G23
  20014749.514    -4257502.246 7  -3317533.73123        25.250           2.719
  23252193.514     3085946.060 6   2404630.68321        14.000           0.438
  20032478.178    -5315720.967 7  -4142118.15324        26.500           4.000
  21951295.170   -10912299.585 6  -8384506.17522        17.000           1.531
 91  7 24  1 27 14.9980000  0  4G 3G16G17G23
  20010948.959    -4277468.855 7  -3333092.13423        25.250           2.813
  23257277.764     3112666.019 6   2425451.41621        13.500           0.406
  20027120.936    -5343874.737 7  -4164056.15024        26.500           4.063
  21938676.115   -10978617.703 6  -8436182.56622        17.000           1.563
 91  7 24  1 27 29.9980000  0  4G 3G16G17G23
  20007174.287    -4297312.834 7  -3348554.97523        24.750           2.750
  23262375.920     3139457.402 6   2446327.81521        14.000           0.500
  20021781.186    -5371932.983 7  -4185919.70824        26.750           4.094
  21926074.123   -11044840.114 6  -8487784.38822        17.500           1.594
 91  7 24  1 27 44.9980000  0  4G 3G16G17G23
  20003419.912    -4317033.506 7  -3363921.73523        25.000           2.688
  23267489.725     3166320.285 6   2467259.91921        13.500           0.563
  20016461.537    -5399895.707 7  -4207708.83324        27.000           4.063
  21913491.420   -11110966.323 6  -8539311.23122        17.750           1.563
 91  7 24  1 27 59.9980000  0  4G 3G16G17G23
  19999689.928    -4336630.561 7  -3379192.16823        25.000           2.625
  23272611.928     3193254.358 6   2488247.47821        13.500           0.594
  20011158.326    -5427762.923 7  -4229423.53924        26.750           4.031
  21900926.311   -11176995.973 6  -8590762.84122        17.750           1.594
 91  7 24  1 28 14.9980000  0  4G 3G16G17G23
  19995985.904    -4356102.433 7  -3394365.06223        25.000           2.750
  23277751.404     3220260.658 6   2509291.32121        12.750           0.781
  20005873.076    -5455533.229 7  -4251062.73424        27.250           4.063
  21888379.889   -11242927.602 6  -8642138.07322        17.750           1.563
 91  7 24  1 28 29.9980000  0  4G 3G16G17G23
  19992303.404    -4375447.727 7  -3409439.32023        25.000           2.750
  23282907.412     3247340.142 6   2530392.16921        12.750           0.844
  20000608.295    -5483205.391 7  -4272625.45024        27.250           4.063
  21875852.975   -11308759.627 6  -8693435.69222        17.750           1.594
 91  7 24  1 28 44.9980000  0  4G 3G16G17G23
  19988647.772    -4394666.965 7  -3424415.35223        25.000           2.844
  23288072.006     3274491.739 5   2551549.22421        11.750           0.938
  19995360.068    -5510780.349 7  -4294112.42424        27.750           3.875
  21863343.748   -11374492.576 6  -8744656.10222        17.750           1.625
 91  7 24  1 28 59.9980000  0  4G 3G16G17G23
  19985011.326    -4413762.901 7  -3439295.30123        24.750           2.844
  23293253.615     3301712.261 5   2572759.96921        11.750           1.094
  19990131.303    -5538260.996 7  -4315525.90824        27.750           3.906
  21850853.318   -11440129.111 6  -8795801.39222        17.750           1.594
 91  7 24  1 29 14.9980000  0  4G 3G16G17G23
  19981402.209    -4432731.500 7  -3454076.03123        25.000           2.781
  23298445.568     3329005.001 5   2594026.98221        11.000           1.031
  19984920.475    -5565643.501 8  -4336862.91524        28.000           3.875
  21838380.865   -11505665.348 6  -8846868.52322        17.750           1.563
 91  7 24  1 29 29.9980000  0  4G 3G16G17G23
  19977817.264    -4451575.578 7  -3468759.72523        25.000           2.719
  23303654.631     3356367.058 5   2615348.01421        11.000           0.844
  19979727.756    -5592930.871 7  -4358125.79624        27.750           4.063
  21825929.240   -11571103.993 6  -8897859.61222        17.750           1.500
 91  7 24  1 29 44.9980000  0  4G 3G16G17G23
  19974255.053    -4470296.459 7  -3483347.42423        25.000           2.656
  23308873.967     3383796.674 5   2636721.69721        11.750           0.875
  19974552.889    -5620124.545 7  -4379315.66324        27.500           4.156
  21813496.350   -11636446.063 6  -8948775.44622        18.250           1.625
 91  7 24  1 29 59.9980000  0  4G 3G16G17G23
  19970717.397    -4488890.206 7  -3497836.05923        25.000           2.688
  23314106.756     3411297.356 5   2658150.75521        11.500           0.813
  19969396.982    -5647220.765 7  -4400429.59424        27.500           4.031
  21801081.084   -11701687.593 6  -8999612.94422        18.000           1.500
 91  7 24  1 30 14.9980000  0  4G 3G16G17G23
  19967201.670    -4507360.237 7  -3512228.29523        24.750           2.719
  23319352.256     3438864.823 6   2679631.84521        12.000           0.688
  19964257.529    -5674223.452 7  -4421470.64324        27.500           4.094
  21788683.623   -11766832.283 6  -9050374.97622        18.000           1.625
 91  7 24  1 30 29.9980000  0  4G 3G16G17G23
  19963709.545    -4525703.835 7  -3526522.00423        24.750           2.688
  23324611.311     3466501.462 6   2701166.84421        13.250           0.531
  19959138.787    -5701129.945 7  -4442436.73424        27.500           4.000
  21776306.498   -11831877.102 6  -9101059.18522        18.000           1.594
 91  7 24  1 30 44.9980000  0  4G 3G16G17G23
  19960245.740    -4543925.027 7  -3540720.33323        25.000           2.781
  23329885.498     3494203.091 6   2722752.50821        13.250           0.469
  19954034.795    -5727944.080 7  -4463330.85524        27.250           4.000
  21763946.662   -11896825.809 6  -9151668.49722        18.250           1.625
 91  7 24  1 30 59.9980000  0  4G 3G16G17G23
  19956798.904    -4562023.093 7  -3554822.72223        24.750           2.719
  23335165.201     3521969.503 6   2744388.66521        13.000           0.375
  19948950.764    -5754666.136 7  -4484153.22524        27.500           4.000
  21751605.748   -11961678.027 6  -9202202.62822        18.250           1.719
 91  7 24  1 31 14.9980000  0  4G 3G16G17G23
  19953380.061    -4579999.422 7  -3568830.25123        24.750           2.656
  23340461.975     3549799.048 6   2766073.99921        13.750           0.313
  19943882.967    -5781297.179 7  -4504904.67924        27.500           4.031
  21739281.506   -12026434.869 6  -9252662.43422        18.000           1.750
 91  7 24  1 31 29.9980000  0  4G 3G16G17G23
  19949982.225    -4597852.186 7  -3582741.49623        24.750           2.688
  23345770.482     3577692.838 6   2787809.40121        13.500           0.438
  19938832.920    -5807835.746 7  -4525584.07324        27.250           3.969
  21726978.029   -12091094.720 6  -9303046.66622        18.250           1.750
 91  7 24  1 31 44.9980000  0  4G 3G16G17G23
  19946607.740    -4615578.965 7  -3596554.57123        25.000           2.750
  23351090.186     3605652.968 6   2809596.52021        12.750           0.375
  19933801.701    -5834279.671 7  -4546189.71824        27.000           4.094
  21714693.537   -12155654.864 6  -9353353.21522        18.250           1.688
 91  7 24  1 31 59.9980000  0  4G 3G16G17G23
  19943259.772    -4633178.095 7  -3610268.18023        24.750           2.625
  23356424.623     3633680.891 6   2831436.43321        12.500           0.406
  19928785.490    -5860627.523 7  -4566720.50624        27.250           4.156
  21702425.795   -12220113.731 6  -9403580.83122        18.250           1.844
 91  7 24  1 32 14.9980000  0  4G 3G16G17G23
  19939936.498    -4650650.055 7  -3623882.69423        25.250           2.688
  23361770.615     3661775.349 5   2853328.20621        11.250           0.469
  19923791.053    -5886879.939 7  -4587176.92824        27.250           3.969
  21690178.232   -12284471.567 6  -9453729.73022        18.500           1.844
 91  7 24  1 32 29.9980000  0  4G 3G16G17G23
  19936633.162    -4667995.020 7  -3637398.25123        25.500           2.656
  23367126.873     3689935.254 5   2875270.94621         9.250           0.531
  19918814.600    -5913037.843 7  -4607559.70524        27.250           4.063
  21677952.514   -12348728.838 6  -9503800.26822        19.000           1.875
 91  7 24  1 32 44.9980000  0  4G 3G16G17G23
  19933358.561    -4685215.540 7  -3650816.83923        25.500           2.625
  23372500.443     3718158.431 5   2897262.98321         9.000           0.594
  19913853.865    -5939103.337 7  -4627870.47224        27.500           4.031
  21665744.279   -12412887.731 6  -9553794.14622        19.000           1.938
 91  7 24  1 32 59.9980000  0  4G 3G16G17G23
  19930105.693    -4702308.439 7  -3664135.98023        25.000           2.688
  23377886.076     3746447.301 5   2919306.22121         8.500           0.563
  19908910.936    -5965073.615 7  -4648107.04724        27.500           3.969
  21653553.959   -12476945.030 6  -9603708.86022        19.500           1.844
 91  7 24  1 33 14.9980000  0  4G 3G16G17G23
  19926877.584    -4719273.939 7  -3677355.84823        25.250           2.625
  23383280.842     3774800.750 4   2941399.76321         7.250           0.813
  19903986.834    -5990949.289 7  -4668269.90124        27.750           4.000
  21641383.248   -12540901.104 6  -9653544.69422        19.500           1.688
 91  7 24  1 33 29.9980000  0  4G 3G16G17G23
  19923671.381    -4736111.892 7  -3690476.32823        25.500           2.656
  23388688.373     3803219.023 5   2963543.78421         8.000           0.625
  19899079.748    -6016730.091 7  -4688358.83424        27.000           4.000
  21629233.365   -12604755.433 6  -9703301.25622        19.250           1.813
 91  7 24  1 33 44.9980000  0  4G 3G16G17G23
  19920491.982    -4752822.068 7  -3703497.24323        25.000           2.719
  23394105.022     3831701.688 5   2985738.01921         9.000           0.625
  19894194.100    -6042416.376 7  -4708374.11624        27.250           4.063
  21617100.139   -12668508.082 6  -9752978.57322        19.000           1.813
 91  7 24  1 33 59.9980000  0  4G 3G16G17G23
  19917336.053    -4769404.204 7  -3716418.38923        25.250           2.656
  23399538.053     3860248.524 5   3007982.27121         9.250           0.594
  19889324.311    -6068007.912 7  -4728315.56824        27.500           4.219
  21604988.459   -12732158.555 6  -9802576.28222        19.250           1.875
 91  7 24  1 34 14.9980000  0  4G 3G16G17G23
  19914206.623    -4785860.172 7  -3729241.22023        25.250           2.656
  23404984.139     3888857.301 5   3030274.77921        10.000           0.750
  19884471.889    -6093506.767 7  -4748184.80324        27.250           4.156
  21592895.014   -12795708.794 6  -9852095.88722        19.000           1.813
 91  7 24  1 34 29.9980000  0  4G 3G16G17G23
  19911100.068    -4802185.784 7  -3741962.47823        25.250           2.625
  23410440.318     3917531.677 5   3052618.40121        11.000           0.688
  19879637.506    -6118908.811 7  -4767978.59824        27.250           4.188
  21580820.779   -12859154.468 6  -9901534.01322        19.000           1.875
 91  7 24  1 34 44.9980000  0  4G 3G16G17G23
  19908019.904    -4818374.729 7  -3754577.24323        25.000           2.719
  23415909.381     3946277.472 6   3075017.68821        12.250           0.688
  19874823.748    -6144207.921 7  -4787692.18724        27.250           4.250
  21568768.397   -12922489.093 6  -9950885.60422        18.750           1.719
 91  7 24  1 34 59.9980000  0  4G 3G16G17G23
  19904964.115    -4834435.454 7  -3767092.08923        25.500           2.594
  23421392.115     3975085.540 6   3097465.50421        12.750           0.688
  19870026.107    -6169413.142 7  -4807332.61624        26.750           4.125
  21556735.818   -12985721.239 6 -10000157.35422        18.750           1.719
 91  7 24  1 35 14.9980000  0  4G 3G16G17G23
  19901930.600    -4850369.759 7  -3779508.43223        25.000           2.688
  23426886.420     4003954.054 6   3119960.42721        12.250           0.656
  19865246.537    -6194526.430 7  -4826901.40624        26.750           4.125
  21544724.139   -13048852.731 6 -10049350.66322        19.000           1.875
 91  7 24  1 35 29.9980000  0  4G 3G16G17G23
  19898924.178    -4866172.324 7  -3791822.11823        25.000           2.656
  23432391.514     4032887.835 6   3142506.19621        12.750           0.594
  19860487.693    -6219542.344 7  -4846394.32424        27.000           4.125
  21532728.818   -13111877.978 6 -10098461.18122        19.000           1.969
 91  7 24  1 35 44.9980000  0  4G 3G16G17G23
  19895941.693    -4881845.204 7  -3804034.75323        24.750           2.594
  23437908.584     4061884.201 6   3165100.74221        12.750           0.531
  19855744.873    -6244463.544 7  -4865813.43824        26.750           4.094
  21520756.686   -13174799.023 6 -10147490.50722        19.500           1.906
 91  7 24  1 35 59.9980000  0  4G 3G16G17G23
  19892983.803    -4897388.441 7  -3816146.37023        25.000           2.563
  23443440.397     4090942.554 5   3187743.58821        11.500           0.500
  19851019.951    -6269290.079 7  -4885158.78424        26.750           4.188
  21508803.092   -13237616.089 6 -10196438.81122        19.500           1.813
 91  7 24  1 36 14.9980000  0  4G 3G16G17G23
  19890049.732    -4912801.874 7  -3828156.84023        24.750           2.625
  23448979.131     4120062.930 5   3210434.74021        11.250           0.563
  19846313.232    -6294021.691 7  -4904430.16724        27.250           4.125
  21496867.779   -13300328.744 6 -10245305.75922        19.250           1.844
 91  7 24  1 36 29.9980000  0  4G 3G16G17G23
  19887141.568    -4928085.189 7  -3840065.91823        24.750           2.625
  23454533.803     4149244.960 5   3233173.96421        11.500           0.594
  19841626.561    -6318658.646 7  -4923627.78924        27.250           4.156
  21484954.201   -13362936.744 6 -10294091.15322        19.750           1.938
 91  7 24  1 36 44.9980000  0  4G 3G16G17G23
  19884259.592    -4943237.302 7  -3851872.76223        25.250           2.688
  23460099.014     4178489.119 5   3255961.58121        10.500           0.563
  19836954.779    -6343199.961 7  -4942750.88824        26.750           4.156
  21473061.412   -13425438.763 7 -10342793.96822        20.000           2.031
 91  7 24  1 36 59.9980000  0  4G 3G16G17G23
  19881397.850    -4958262.225 7  -3863580.49623        25.250           2.656
  23465675.881     4207790.872 5   3278794.05721         8.750           0.500
  19832304.326    -6367649.941 7  -4961802.81724        27.000           4.094
  21461185.498   -13487838.934 6 -10391417.42922        19.750           1.969
 91  7 24  1 37 14.9980000  0  4G 3G16G17G23
  19878563.607    -4973155.496 7  -3875185.65023        25.000           2.625
  23471261.568     4237154.861 5   3301675.03121         7.750           0.375
  19827669.662    -6392004.103 7  -4980780.08224        27.000           4.156
  21449333.217   -13550132.732 7 -10439957.99322        20.250           1.938
 91  7 24  1 37 29.9980000  0  4G 3G16G17G23
  19875754.936    -4987918.881 7  -3886689.58823        25.250           2.625
  23476860.225     4266578.139 5   3324602.22921         8.250           0.344
  19823052.139    -6416264.806 7  -4999684.52624        26.500           4.125
  21437498.037   -13612322.033 7 -10488417.13422        20.250           1.969
 91  7 24  1 37 44.9980000  0  4G 3G16G17G23
  19872969.897    -5002553.474 7  -3898093.17223        25.500           2.594
  23482473.326     4296059.730 5   3347574.86821         8.000           0.406
  19818453.209    -6440433.061 7  -5018516.92824        26.500           4.063
  21425683.154   -13674407.495 7 -10536795.36122        20.500           1.938
 91  7 24  1 37 59.9980000  0  4G 3G16G17G23
  19870209.943    -5017058.239 7  -3909395.59123        25.000           2.531
  23488091.475     4325599.994 5   3370593.18721         7.750           0.438
  19813871.803    -6464507.995 7  -5037276.61424        27.500           4.063
  21413888.084   -13736388.229 7 -10585091.98322        20.000           2.031
 91  7 24  1 38 14.9980000  0  4G 3G16G17G23
  19867475.272    -5031432.938 7  -3920596.66023        25.500           2.656
  23493725.998     4355198.527 5   3393656.92721         8.250           0.469
  19809307.920    -6488489.791 7  -5055963.72424        27.250           4.063
  21402114.568   -13798263.997 7 -10633306.81522        20.000           2.094
 91  7 24  1 38 29.9980000  0  4G 3G16G17G23
  19864763.139    -5045678.768 7  -3931697.31223        25.750           2.500
  23499369.014     4384853.929 5   3416764.99021         8.000           0.313
  19804762.951    -6512379.919 7  -5074579.40324        27.000           3.969
  21390358.631   -13860035.708 6 -10681440.56322        19.750           2.125
 91  7 24  1 38 44.9980000  0  4G 3G16G17G23
  19862077.670    -5059798.129 7  -3942699.41823        25.500           2.531
  23505021.607     4414563.357 5   3439915.14221         8.250           0.344
  19800233.436    -6536180.757 7  -5093125.50824        27.250           4.156
  21378623.764   -13921705.848 7 -10729495.16622        20.000           2.094
 91  7 24  1 38 59.9980000  0  4G 3G16G17G23
  19859416.467    -5073785.178 7  -3953598.42022        25.000           2.469
  23510687.787     4444332.139 5   3463111.53021         9.000           0.250
  19795721.756    -6559886.529 7  -5111597.53524        27.250           4.063
  21366909.107   -13983268.573 7 -10777466.06622        20.250           2.188
 91  7 24  1 39 14.9980000  0  4G 3G16G17G23
  19856779.209    -5087642.938 7  -3964396.68023        25.750           2.531
  23516360.639     4474156.980 5   3486351.65221         9.750           0.219
  19791228.873    -6583500.507 7  -5129998.03424        26.250           4.000
  21355214.123   -14044726.993 7 -10825355.68522        20.250           2.156
 91  7 24  1 39 29.9980000  0  4G 3G16G17G23
  19854166.990    -5101370.878 7  -3975093.78723        25.500           2.500
  23522046.467     4504037.548 5   3509635.19821        10.000           0.250
  19786754.092    -6607022.473 7  -5148326.83224        27.000           4.125
  21343538.553   -14106080.416 7 -10873163.49922        20.000           2.313
 91  7 24  1 39 44.9980000  0  4G 3G16G17G23
  19851578.279    -5114972.475 7  -3985692.43623        24.750           2.500
  23527740.475     4533970.337 5   3532959.42621        10.250           0.313
  19782293.514    -6630456.212 7  -5166586.88424        27.250           4.219
  21331882.147   -14167332.024 7 -10920891.97122        20.250           2.250
 91  7 24  1 39 59.9980000  0  4G 3G16G17G23
  19849014.295    -5128443.160 7  -3996189.08022        25.000           2.375
  23533448.506     4563959.265 5   3556327.39721         9.750           0.375
  19777851.904    -6653797.135 7  -5184774.60924        27.250           4.125
  21320246.022   -14228477.489 7 -10968537.74322        20.000           2.156
 91  7 24  1 40 14.9980000  0  4G 3G16G17G23
  19846477.209    -5141780.521 7  -4006581.83822        25.000           2.438
  23539169.123     4594006.313 5   3579740.64321        10.000           0.281
  19773426.115    -6677043.195 7  -5202888.41724        26.750           4.125
  21308632.248   -14289514.269 7 -11016098.81622        20.500           2.313
 91  7 24  1 40 29.9980000  0  4G 3G16G17G23
  19843962.826    -5154988.053 7  -4016873.42622        25.000           2.375
  23544895.303     4624107.606 5   3603196.13621         9.500           0.156
  19769022.967    -6700198.060 7  -5220931.16224        27.500           4.063
  21297037.107   -14350445.812 7 -11063577.88822        20.250           2.313
 91  7 24  1 40 44.9980000  0  4G 3G16G17G23
  19841475.232    -5168065.288 7  -4027063.48422        25.250           2.469
  23550636.662     4654263.409 5   3626694.15621         9.750           0.125
  19764632.623    -6723261.504 7  -5238902.66824        27.000           4.125
  21285463.092   -14411271.537 7 -11110974.50222        20.500           2.219
 91  7 24  1 40 59.9970000  0  4G 3G16G17G23
  19839009.720    -5181011.904 7  -4037151.76422        25.000           2.375
  23556386.728     4684470.646 5   3650232.25721         9.750           0.156
  19760262.040    -6746232.381 7  -5256802.04324        26.750           4.125
  21273907.681   -14471987.845 7 -11158285.86222        20.500           2.250
 91  7 24  1 41 14.9970000  0  4G 3G16G17G23
  19836572.767    -5193829.487 7  -4047139.50423        24.750           2.500
  23562145.228     4714732.712 5   3673813.05221        10.000           0.344
  19755906.290    -6769114.177 7  -5274632.00724        27.000           4.094
  21262373.040   -14532602.689 7 -11205518.15722        20.250           2.250
 91  7 24  1 41 29.9970000  0  3G 3G17G23
  19834156.798    -5206513.757 7  -4057023.35022        25.000           2.438
  19751571.899    -6791902.149 7  -5292388.86224        27.250           4.188
  21250859.235   -14593108.829 7 -11252665.75522        20.250           2.344
 91  7 24  1 41 44.9970000  0  3G 3G17G23
  19831770.251    -5219066.048 7  -4066804.36722        25.250           2.375
  19747252.103    -6814597.563 7  -5310073.59524        27.000           4.250
  21239367.274   -14653507.237 7 -11299729.39922        20.500           2.281
 91  7 24  1 41 59.9970000  0  3G 3G17G23
  19829404.743    -5231491.147 7  -4076486.26722        25.000           2.438
  19742950.110    -6837205.524 7  -5327690.17824        27.000           4.219
  21227892.157   -14713802.781 7 -11346712.89022        20.500           2.188
 91  7 24  1 42 14.9970000  0  3G 3G17G23
  19827066.368    -5243784.934 7  -4086065.85122        25.500           2.406
  19738666.126    -6859722.132 7  -5345235.58324        27.250           4.219
  21216438.978   -14773991.036 7 -11393612.78522        20.500           2.250
 91  7 24  1 42 29.9970000  0  3G 3G17G23
  19824751.618    -5255950.044 7  -4095545.16422        25.250           2.375
  19734398.415    -6882150.293 7  -5362712.06424        27.000           4.156
  21205007.040   -14834075.085 7 -11440431.47622        21.000           2.344
 91  7 24  1 42 44.9970000  0  3G 3G17G23
  19822460.876    -5267982.970 7  -4104921.47422        25.250           2.469
  19730146.938    -6904486.159 7  -5380116.62724        26.750           4.156
  21193593.845   -14894050.819 7 -11487165.76422        21.000           2.438
 91  7 24  1 42 59.9970000  0  3G 3G17G23
  19820195.196    -5279884.726 7  -4114195.57522        25.500           2.438
  19725914.720    -6926731.388 7  -5397450.56424        27.000           4.031
  21182199.579   -14953919.632 7 -11533816.73922        20.500           2.375
 91  7 24  1 43 14.9970000  0  3G 3G17G23
  19817957.579    -5291656.123 7  -4123368.10222        26.000           2.375
  19721697.563    -6948886.915 7  -5414714.60524        27.250           4.000
  21170826.212   -15013682.044 7 -11580384.80722        20.250           2.469
 91  7 24  1 43 29.9970000  0  3G 3G17G23
  19815740.806    -5303297.536 7  -4132439.33822        25.500           2.406
  19717497.985    -6970953.442 7  -5431909.29224        27.000           3.938
  21159474.181   -15073338.288 7 -11626870.14622        20.500           2.469
 91  7 24  1 43 44.9970000  0  3G 3G17G23
  19813550.743    -5314808.968 7  -4141409.29522        25.500           2.344
  19713316.306    -6992930.889 7  -5449034.55924        27.000           4.031
  21148143.556   -15132888.288 7 -11673272.69722        21.000           2.438
 91  7 24  1 43 59.9970000  0  3G 3G17G23
  19811384.845    -5326189.178 7  -4150276.99522        25.250           2.375
  19709152.509    -7014818.333 7  -5466089.70724        27.000           4.031
  21136832.290   -15192330.999 7 -11719591.64222        21.000           2.375
 91  7 24  1 44 14.9970000  0  3G 3G17G23
  19809242.649    -5337437.357 7  -4159041.82222        25.000           2.438
  19705004.165    -7036615.386 7  -5483074.41524        27.000           4.000
  21125541.173   -15251665.502 7 -11765826.27522        20.750           2.313
 91  7 24  1 44 29.9970000  0  3G 3G17G23
  19807128.993    -5348554.188 7  -4167704.28922        24.750           2.438
  19700872.673    -7058322.696 7  -5499989.19524        27.000           4.000
  21114269.579   -15310892.585 7 -11811977.20422        20.500           2.375
 91  7 24  1 44 44.9970000  0  3G 3G17G23
  19805038.360    -5359537.819 7  -4176262.97022        24.750           2.313
  19696759.688    -7079938.651 7  -5516832.79524        27.250           4.031
  21103019.220   -15370010.233 7 -11858042.86622        20.500           2.375
 91  7 24  1 44 59.9970000  0  3G 3G17G23
  19802974.071    -5370389.975 7  -4184719.20022        24.500           2.344
  19692663.798    -7101465.117 7  -5533606.65824        26.750           3.969
  21091791.384   -15429019.908 7 -11904024.39122        21.000           2.438
 91  7 24  1 45 14.9970000  0  3G 3G17G23
  19800933.845    -5381108.466 7  -4193071.27922        24.250           2.281
  19688583.751    -7122899.976 7  -5550309.13924        27.000           4.094
  21080581.438   -15487919.469 7 -11949920.11122        20.750           2.406
 91  7 24  1 45 29.9970000  0  3G 3G17G23
  19798919.587    -5391693.983 7  -4201319.73922        24.000           2.281
  19684522.181    -7144244.053 7  -5566940.88224        26.750           3.938
  21069394.978   -15546709.494 7 -11995730.47822        20.500           2.375
 91  7 24  1 45 44.9970000  0  3G 3G17G23
  19796930.774    -5402147.911 7  -4209465.65622        24.500           2.344
  19680478.579    -7165499.255 7  -5583503.37124        27.000           3.844
  21058227.743   -15605391.501 7 -12041456.67322        20.750           2.281
 91  7 24  1 45 59.9970000  0  3G 3G17G23
  19794967.204    -5412465.991 7  -4217505.72922        24.500           2.281
  19676450.001    -7186661.026 7  -5599993.05424        27.000           3.906
  21047082.095   -15663960.950 7 -12087095.15922        20.250           2.375
 91  7 24  1 46 14.9970000  0  3G 3G17G23
  19793028.970    -5422648.749 7  -4225440.35722        24.500           2.281
  19672439.806    -7207730.100 7  -5616410.50824        26.750           3.875
  21035957.603   -15722418.296 7 -12132646.29922        20.750           2.438
 91  7 24  1 46 29.9970000  0  3G 3G17G23
  19791115.899    -5432700.383 7  -4233272.80522        24.500           2.375
  19668449.079    -7228711.259 7  -5632759.45824        26.750           3.938
  21024854.048   -15780767.827 7 -12178113.43122        21.000           2.375
 91  7 24  1 46 44.9970000  0  3G 3G17G23
  19789228.837    -5442616.159 7  -4240999.39022        24.500           2.313
  19664473.321    -7249600.015 7  -5649036.40524        27.000           3.938
  21013772.610   -15839005.023 7 -12223493.02322        20.750           2.344
 91  7 24  1 46 59.9970000  0  3G 3G17G23
  19787368.579    -5452397.416 7  -4248621.16022        24.750           2.250
  19660516.392    -7270397.578 7  -5665242.29724        27.000           4.000
  21002712.126   -15897130.852 7 -12268785.83422        20.500           2.406
 91  7 24  1 47 14.9970000  0  3G 3G17G23
  19785533.188    -5462045.182 7  -4256138.90222        24.750           2.344
  19656576.142    -7291105.176 7  -5681378.08124        27.000           3.969
  20991671.220   -15955146.374 7 -12313992.69322        20.250           2.438
 91  7 24  1 47 29.9970000  0  3G 3G17G23
  19783721.899    -5471559.315 7  -4263552.51922        24.750           2.375
  19652651.798    -7311722.925 7  -5697443.85424        27.500           3.938
  20980652.931   -16013051.360 7 -12359113.42422        20.500           2.438
 91  7 24  1 47 44.9970000  0  3G 3G17G23
  19781936.095    -5480938.792 7  -4270861.21222        24.750           2.344
  19648746.235    -7332249.802 7  -5713438.82024        27.250           4.156
  20969655.384   -16070844.659 7 -12404147.12322        20.750           2.406
 91  7 24  1 47 59.9970000  0  3G 3G17G23
  19780176.618    -5490183.815 7  -4278065.13222        24.750           2.406
  19644857.907    -7352686.236 7  -5729363.31124        27.500           4.094
  20958677.782   -16128526.501 7 -12449093.96423        21.000           2.531
 91  7 24  1 48 14.9970000  0  3G 3G17G23
  19778441.571    -5499295.479 7  -4285165.13522        24.500           2.281
  19640984.673    -7373033.583 7  -5745218.37924        26.750           3.906
  20947722.431   -16186098.007 7 -12493954.83722        21.000           2.469
 91  7 24  1 48 29.9970000  0  3G 3G17G23
  19776734.915    -5508273.745 7  -4292161.19022        24.750           2.313
  19637131.532    -7393291.924 7  -5761004.09924        27.500           4.031
  20936789.063   -16243558.997 7 -12538729.59523        21.000           2.563
 91  7 24  1 48 44.9970000  0  3G 3G17G23
  19775052.868    -5517117.131 7  -4299052.14722        24.750           2.281
  19633292.892    -7413459.930 7  -5776719.42224        27.250           4.031
  20925874.446   -16300907.848 7 -12583416.96823        21.250           2.594
 91  7 24  1 48 59.9970000  0  3G 3G17G23
  19773393.798    -5525825.556 7  -4305837.93722        24.750           2.344
  19629471.009    -7433537.905 7  -5792364.59324        27.500           4.063
  20914982.610   -16358144.623 7 -12628017.01623        21.250           2.656
 91  7 24  1 49 14.9970000  0  3G 3G17G23
  19771765.446    -5534396.086 7  -4312516.27622        24.750           2.250
  19625670.173    -7453522.821 7  -5807937.24624        27.500           3.938
  20904114.110   -16415266.208 7 -12672527.30223        21.250           2.719
 91  7 24  1 49 29.9970000  0  3G 3G17G23
  19770159.353    -5542831.508 7  -4319089.34022        24.250           2.344
  19621883.610    -7473417.350 7  -5823439.47324        27.500           3.938
  20893265.001   -16472275.196 7 -12716949.84923        21.250           2.625
 91  7 24  1 49 44.9970000  0  3G 3G17G23
  19768580.431    -5551131.680 7  -4325557.01022        24.500           2.313
  19618115.376    -7493222.029 7  -5838871.68524        27.500           3.969
  20882439.095   -16529171.727 7 -12761284.78023        21.500           2.594
 91  7 24  1 49 59.9970000  0  3G 3G17G23
  19767026.134    -5559292.323 7  -4331915.96122        24.250           2.344
  19614362.149    -7512932.421 7  -5854230.42524        27.250           3.938
  20871633.610   -16585951.095 7 -12805528.40423        21.750           2.625
 91  7 24  1 50 14.9970000  0  3G 3G17G23
  19765498.954    -5567316.407 7  -4338168.49822        24.000           2.344
  19610629.368    -7532551.676 7  -5869518.15124        27.250           4.094
  20860850.063   -16642616.410 7 -12849683.15723        21.750           2.656
 91  7 24  1 50 29.9970000  0  3G 3G17G23
  19763999.087    -5575204.581 7  -4344315.13222        24.500           2.344
  19606913.556    -7552080.861 7  -5884735.69324        27.250           4.063
  20850088.282   -16699168.449 7 -12893749.65023        22.000           2.688
 91  7 24  1 50 44.9970000  0  3G 3G17G23
  19762522.563    -5582955.482 7  -4350354.80622        24.000           2.344
  19603214.774    -7571518.581 7  -5899881.96724        27.250           4.031
  20839350.165   -16755605.373 7 -12937726.43623        22.000           2.656
 91  7 24  1 50 59.9970000  0  3G 3G17G23
  19761077.337    -5590565.003 7  -4356284.30822        24.750           2.250
  19599533.642    -7590861.017 7  -5914953.99524        27.000           3.969
  20828633.423   -16811923.305 7 -12981610.50323        22.250           2.688
 91  7 24  1 51 14.9970000  0  3G 3G17G23
  19759653.149    -5598040.719 7  -4362109.54322        24.750           2.281
  19595868.595    -7610115.755 7  -5929957.68324        27.000           4.156
  20817936.579   -16868129.530 7 -13025407.52823        21.750           2.688
 91  7 24  1 51 29.9970000  0  3G 3G17G23
  19758256.876    -5605383.557 7  -4367831.24022        25.250           2.313
  19592222.228    -7629283.945 7  -5944893.93124        27.250           4.094
  20807261.954   -16924225.137 7 -13069118.34923        21.500           2.594
 91  7 24  1 51 44.9970000  0  3G 3G17G23
  19756884.181    -5612591.964 7  -4373448.18322        24.500           2.313
  19588592.267    -7648364.151 7  -5959761.62424        27.500           3.938
  20796609.321   -16980208.324 7 -13112741.57523        21.750           2.656
 91  7 24  1 51 59.9970000  0  3G 3G17G23
  19755538.657    -5619661.620 7  -4378957.01222        24.250           2.250
  19584979.438    -7667352.130 7  -5974557.44624        27.500           3.969
  20785976.610   -17036074.858 7 -13156273.90223        21.750           2.688
 91  7 24  1 52 14.9970000  0  3G 3G17G23
  19754218.985    -5626597.590 7  -4384361.66722        24.250           2.344
  19581381.892    -7686253.261 7  -5989285.59724        27.750           4.031
  20775367.485   -17091830.060 7 -13199719.48123        21.750           2.688
 91  7 24  1 52 29.9970000  0  3G 3G17G23
  19752925.751    -5633395.106 7  -4389658.44522        24.500           2.219
  19577803.485    -7705062.795 7  -6003942.37124        27.750           3.938
  20764780.899   -17147468.726 7 -13243074.25323        22.000           2.750
 91  7 24  1 52 44.9970000  0  3G 3G17G23
  19751657.079    -5640056.531 7  -4394849.17322        24.500           2.250
  19574240.360    -7723783.368 7  -6018529.82924        27.250           4.063
  20754214.688   -17202993.115 7 -13286339.98223        22.250           2.719
 91  7 24  1 52 59.9970000  0  3G 3G17G23
  19750416.501    -5646582.971 7  -4399934.71322        25.000           2.281
  19570693.923    -7742416.152 7  -6033048.88124        27.250           4.031
  20743668.837   -17258404.403 7 -13329517.57123        22.000           2.844
 91  7 24  1 53 14.9970000  0  3G 3G17G23
  19749201.563    -5652969.625 7  -4404911.33622        24.750           2.219
  19567166.399    -7760956.726 7  -6047496.08024        27.000           4.000
  20733146.548   -17313697.701 7 -13372603.22123        22.250           2.813
 91  7 24  1 53 29.9970000  0  3G 3G17G23
  19748010.962    -5659220.371 7  -4409782.05522        24.000           2.250
  19563655.032    -7779408.828 7  -6061874.34224        27.250           4.063
  20722647.048   -17368876.863 7 -13415599.93823        22.500           2.781
 91  7 24  1 53 44.9970000  0  3G 3G17G23
  19746847.087    -5665336.033 7  -4414547.51222        24.500           2.281
  19560159.251    -7797773.672 7  -6076184.60724        27.000           4.031
  20712169.267   -17423942.886 7 -13458508.48923        22.500           2.781
 91  7 24  1 53 59.9970000  0  3G 3G17G23
  19745709.478    -5671316.044 7  -4419207.26922        24.250           2.219
  19556681.993    -7816050.511 7  -6090426.30224        27.250           4.031
  20701711.595   -17478894.744 7 -13501328.07923        22.500           2.906
 91  7 24  1 54 14.9970000  0  3G 3G17G23
  19744595.868    -5677160.654 7  -4423761.52122        24.000           2.250
  19553221.056    -7834239.853 7  -6104599.81524        27.250           4.031
  20691276.798   -17533732.766 7 -13544058.96423        22.250           2.781
 91  7 24  1 54 29.9970000  0  3G 3G17G23
  19743509.884    -5682868.576 7  -4428209.26022        24.000           2.250
  19549776.720    -7852340.705 7  -6118704.37024        27.500           4.063
  20680861.774   -17588455.652 7 -13586700.13823        22.250           2.938
 91  7 24  1 54 44.9970000  0  3G 3G17G23
  19742450.446    -5688440.784 7  -4432551.25222        24.250           2.250
  19546349.415    -7870353.955 7  -6132740.66624        27.500           4.094
  20670470.704   -17643064.057 7 -13629252.10523        22.250           3.031
 91  7 24  1 54 59.9970000  0  3G 3G17G23
  19741417.001    -5693874.095 7  -4436785.01222        24.250           2.219
  19542937.845    -7888276.724 7  -6146706.45924        27.250           4.000
  20660102.438   -17697554.944 7 -13671712.50123        22.250           2.844
 91  7 24  1 55 14.9970000  0  3G 3G17G23
  19740409.493    -5699169.340 7  -4440911.18522        24.500           2.344
  19539545.321    -7906110.205 7  -6160602.67624        27.250           4.156
  20649755.907   -17751929.180 7 -13714082.00023        22.500           2.875
 91  7 24  1 55 29.9970000  0  3G 3G17G23
  19739426.298    -5704328.592 7  -4444931.39022        24.000           2.281
  19536168.259    -7923856.446 7  -6174430.91524        27.750           4.094
  20639429.001   -17806188.850 7 -13756362.22723        22.250           2.938
 91  7 24  1 55 44.9970000  0  3G 3G17G23
  19738471.290    -5709351.324 7  -4448845.21622        24.250           2.250
  19532807.329    -7941515.034 7  -6188190.85324        27.500           4.125
  20629125.290   -17860333.265 7 -13798552.63923        22.250           3.031
 91  7 24  1 55 59.9970000  0  3G 3G17G23
  19737542.845    -5714234.208 7  -4452650.07122        24.250           2.188
  19529464.298    -7959082.557 7  -6201879.82924        27.500           4.031
  20618844.915   -17914358.952 7 -13840650.54223        22.500           3.063
 91  7 24  1 56 14.9970000  0  3G 3G17G23
  19736639.274    -5718978.373 7  -4456346.83322        24.250           2.375
  19526137.524    -7976560.409 7  -6215498.93024        27.250           4.156
  20608587.681   -17968267.151 7 -13882656.88823        22.500           3.063
 91  7 24  1 56 29.9970000  0  3G 3G17G23
  19735763.595    -5723584.224 7  -4459935.81522        24.250           2.375
  19522830.103    -7993949.182 7  -6229048.62024        27.500           4.219
  20598351.829   -18022057.958 7 -13924571.77123        22.500           3.094
 91  7 24  1 56 44.9970000  0  3G 3G17G23
  19734913.134    -5728051.111 7  -4463416.51922        24.000           2.250
  19519535.470    -8011248.567 7  -6242528.65824        27.000           4.219
  20588137.071   -18075730.988 7 -13966394.87323        23.000           2.969
 91  7 24  1 56 59.9970000  0  3G 3G17G23
  19734088.853    -5732383.280 7  -4466792.24322        24.000           2.219
  19516261.884    -8028462.650 7  -6255942.22324        27.250           4.188
  20577944.915   -18129290.264 7 -14008129.34023        23.000           3.000
 91  7 24  1 57 14.9970000  0  3G 3G17G23
  19733290.251    -5736580.699 7  -4470062.96522        24.750           2.375
  19513000.759    -8045591.720 7  -6269289.54924        27.000           4.188
  20567775.603   -18182735.661 7 -14049775.07423        23.000           3.000
 91  7 24  1 57 29.9970000  0  3G 3G17G23
  19732517.235    -5740642.300 7  -4473227.85922        24.500           2.281
  19509758.376    -8062634.629 7  -6282569.73324        27.250           4.156
  20557625.681   -18236065.980 7 -14091331.13423        22.750           3.031
 91  7 24  1 57 44.9970000  0  3G 3G17G23
  19731770.188    -5744565.921 7  -4476285.23322        24.500           2.313
  19506530.899    -8079589.450 7  -6295781.28224        27.250           4.094
  20547500.384   -18289279.071 7 -14132795.85323        22.750           3.063
 91  7 24  1 57 59.9970000  0  3G 3G17G23
  19731051.540    -5748348.890 7  -4479233.00922        24.750           2.406
  19503322.774    -8096453.677 7  -6308922.23424        27.000           4.094
  20537396.743   -18342372.120 7 -14174167.02123        22.250           3.031
 91  7 24  1 58 14.9970000  0  3G 3G17G23
  19730358.524    -5751988.127 7  -4482068.78622        25.000           2.375
  19500132.142    -8113224.170 7  -6321990.15124        27.500           4.063
  20527316.767   -18395342.071 7 -14215442.26923        22.000           3.063
 91  7 24  1 58 29.9970000  0  3G 3G17G23
  19729691.423    -5755490.397 7  -4484797.83422        25.000           2.250
  19496957.813    -8129908.102 7  -6334990.60924        27.250           4.188
  20517258.517   -18448195.586 7 -14256626.78923        22.250           3.031
 91  7 24  1 58 44.9970000  0  3G 3G17G23
  19729050.313    -5758860.514 7  -4487423.90322        24.500           2.219
  19493798.024    -8146510.034 7  -6347927.17724        27.000           4.188
  20507222.259   -18500937.474 7 -14297724.33323        22.500           3.063
 91  7 24  1 58 59.9970000  0  3G 3G17G23
  19728434.704    -5762096.453 7  -4489945.42422        25.000           2.250
  19490654.306    -8163028.410 7  -6360798.63724        27.000           4.094
  20497207.501   -18553565.562 7 -14338733.19723        22.500           3.125
 91  7 24  1 59 14.9970000  0  3G 3G17G23
  19727845.587    -5765192.427 7  -4492357.87822        25.000           2.156
  19487526.509    -8179457.514 7  -6373600.53124        26.750           4.031
  20487215.751   -18606074.225 7 -14379649.00223        22.500           3.219
 91  7 24  1 59 29.9970000  0  3G 3G17G23
  19727282.798    -5768152.919 7  -4494664.76322        25.000           2.156
  19484416.860    -8195801.905 7  -6386336.41224        26.500           4.188
  20477245.806   -18658467.598 7 -14420474.98523        23.000           3.219
 91  7 24  1 59 44.9970000  0  3G 3G17G23
  19726746.665    -5770974.043 7  -4496863.04522        25.250           2.125
  19481323.212    -8212058.003 7  -6399003.50424        27.000           4.188
  20467299.149   -18710741.961 7 -14461208.22623        22.500           3.250
 91  7 24  1 59 59.9970000  0  3G 3G17G23
  19726234.563    -5773658.922 7  -4498955.16522        25.250           2.188
  19478246.985    -8228228.560 7  -6411603.93624        27.000           4.219
  20457372.603   -18762900.308 7 -14501851.06423        22.250           3.219
 91  7 24  2  0 14.9970000  0  3G 3G17G23
  19725750.501    -5776206.516 7  -4500940.31522        25.000           2.313
  19475185.204    -8244313.060 7  -6424137.30724        27.000           4.063
  20447468.884   -18814941.341 7 -14542402.48723        22.250           3.219
 91  7 24  2  0 29.9970000  0  3G 3G17G23
  19725289.985    -5778614.964 7  -4502817.03322        24.500           2.156
  19472142.923    -8260309.670 7  -6436602.19824        27.500           4.125
  20437589.267   -18866863.330 7 -14582861.14623        22.500           3.281
 91  7 24  2  0 44.9970000  0  3G 3G17G23
  19724861.954    -5780881.949 7  -4504583.52622        25.000           2.188
  19469114.220    -8276216.253 7  -6448996.93324        27.000           4.094
  20427731.532   -18918664.028 7 -14623225.29323        22.250           3.250
 91  7 24  2  0 59.9970000  0  3G 3G17G23
  19724455.743    -5783010.786 7  -4506242.36722        25.000           2.219
  19466103.407    -8292036.059 7  -6461324.05224        26.750           4.031
  20417896.876   -18970346.556 7 -14663497.35923        22.750           3.188
 91  7 24  2  1 14.9960000  0  3G 3G17G23
  19724076.012    -5785001.987 7  -4507793.95822        25.000           2.219
  19463112.074    -8307769.177 7  -6473583.61824        27.000           4.094
  20408083.848   -19021908.008 7 -14703675.08123        22.500           3.188
 91  7 24  2  1 29.9960000  0  3G 3G17G23
  19723722.879    -5786856.269 7  -4509238.86322        24.750           2.250
  19460132.691    -8323417.765 7  -6485777.32124        27.000           4.156
  20398295.184   -19073355.749 7 -14743764.19923        22.750           3.281
 91  7 24  2  1 44.9960000  0  3G 3G17G23
  19723396.770    -5788570.480 7  -4510574.61822        25.000           2.219
  19457172.738    -8338978.144 7  -6497902.28824        26.750           4.094
  20388527.496   -19124683.280 7 -14783759.64223        22.500           3.281
 91  7 24  2  1 59.9960000  0  3G 3G17G23
  19723095.324    -5790148.595 7  -4511804.33222        24.500           2.156
  19454226.902    -8354454.259 7  -6509961.59324        27.000           4.188
  20378781.457   -19175894.219 7 -14823664.24423        22.500           3.313
 91  7 24  2  2 14.9960000  0  3G 3G17G23
  19722822.691    -5791587.229 7  -4512925.35622        24.750           2.188
  19451298.535    -8369842.897 7  -6521952.73624        26.750           4.281
  20369059.504   -19226985.269 7 -14863475.42123        22.750           3.219
 91  7 24  2  2 29.9960000  0  3G 3G17G23
  19722576.199    -5792886.955 7  -4513938.13422        24.750           2.219
  19448386.941    -8385144.887 7  -6533876.36924        26.750           4.219
  20359360.254   -19277957.097 7 -14903193.69723        22.750           3.188
 91  7 24  2  2 44.9960000  0  3G 3G17G23
  19722355.395    -5794047.626 7  -4514842.56922        24.750           2.250
  19445491.066    -8400360.069 7  -6545732.35124        26.750           4.250
  20349683.418   -19328809.470 7 -14942818.89323        22.750           3.125
 91  7 24  2  2 59.9960000  0  3G 3G17G23
  19722158.137    -5795073.784 7  -4515642.18522        24.500           2.156
  19442611.043    -8415493.198 7  -6557524.39924        27.000           4.125
  20340028.707   -19379546.793 7 -14982354.43923        22.750           3.219
 91  7 24  2  3 14.9960000  0  3G 3G17G23
  19721990.363    -5795962.458 7  -4516334.66722        24.500           2.156
  19439748.793    -8430541.278 7  -6569250.17424        27.000           4.188
  20330395.965   -19430165.903 7 -15021797.87223        23.000           3.219
 91  7 24  2  3 29.9960000  0  3G 3G17G23
  19721849.988    -5796711.522 7  -4516918.37022        25.250           2.219
  19436901.270    -8445502.576 7  -6580908.32324        26.500           4.188
  20320786.957   -19480664.789 7 -15061147.63123        23.250           3.219
 91  7 24  2  3 44.9960000  0  3G 3G17G23
  19721731.996    -5797324.003 7  -4517395.63822        25.000           2.188
  19434070.387    -8460379.750 7  -6592500.92824        26.750           4.219
  20311199.410   -19531046.199 7 -15100405.84123        23.250           3.375
 91  7 24  2  3 59.9960000  0  3G 3G17G23
  19721640.715    -5797799.892 7  -4517766.47422        24.750           2.125
  19431255.324    -8475173.312 7  -6604028.38024        26.500           4.250
  20301633.223   -19581310.291 7 -15139572.64223        23.000           3.156
 91  7 24  2  4 14.9960000  0  3G 3G17G23
  19721574.262    -5798138.816 7  -4518030.58122        25.000           2.250
  19428456.231    -8489882.725 7  -6615490.25924        26.500           4.313
  20292091.082   -19631456.473 7 -15178647.56123        23.500           3.281
 91  7 24  2  4 29.9960000  0  3G 3G17G23
  19721537.598    -5798340.412 7                        24.750
  19425672.676    -8504507.574 7  -6626886.24224        26.250           4.313
  20282570.981   -19681484.231 7 -15217630.20823        23.500           3.313
 91  7 24  2  4 44.9960000  0  3G 3G17G23
  19721525.371    -5798406.450 7                        24.500
  19422906.129    -8519050.001 7  -6638218.00224        26.500           4.250
  20273073.059   -19731395.637 7 -15256522.19123        23.500           3.250
 91  7 24  2  4 59.9960000  0  3G 3G17G23
  19721539.215    -5798332.223 7                        25.000
  19420153.293    -8533505.354 7  -6649481.91424        26.000           4.188
  20263599.012   -19781185.625 7 -15295319.55623        23.500           3.250
 91  7 24  2  5 14.9960000  0  3G 3G17G23
  19721580.238    -5798117.139 7                        24.750
  19417420.332    -8547873.327 7  -6660677.73424        26.250           4.344
  20254146.645   -19830853.793 7 -15334021.99824        23.750           3.500
 91  7 24  2  5 29.9960000  0  3G 3G17G23
  19721646.004    -5797762.720 7                        24.250
  19414702.941    -8562155.232 7  -6671806.49124        26.250           4.250
  20244720.410   -19880401.387 7 -15372630.48923        24.000           3.406
 91  7 24  2  5 44.9960000  0  3G 3G17G23
  19721741.535    -5797273.409 7  -4517356.33022        24.000           2.281
  19411999.645    -8576355.726 7  -6682871.81324        26.250           4.281
  20235313.434   -19929832.741 7 -15411148.40123        24.250           3.344
 91  7 24  2  5 59.9960000  0  3G 3G17G23
  19721861.051    -5796645.208 7  -4516866.83522        24.500           2.188
  19409314.926    -8590470.812 7  -6693870.58524        26.250           4.281
  20225929.371   -19979143.878 7 -15449572.63823        24.000           3.313
 91  7 24  2  6 14.9960000  0  3G 3G17G23
  19722005.152    -5795878.228 7  -4516269.20522        24.250           2.094
  19406644.848    -8604500.632 7  -6704802.91424        26.500           4.344
  20216569.098   -20028334.892 7 -15487903.27323        24.250           3.375
 91  7 24  2  6 29.9960000  0  3G 3G17G23
  19722178.652    -5794973.966 7  -4515564.59822        24.250           2.125
  19403991.051    -8618447.010 7  -6715670.22024        26.750           4.375
  20207229.848   -20077407.279 7 -15526141.47423        23.750           3.344
 91  7 24  2  6 44.9960000  0  3G 3G17G23
  19722375.707    -5793932.753 7  -4514753.27622        24.000           2.063
  19401353.152    -8632310.227 7  -6726472.73324        26.750           4.313
  20197913.926   -20126361.105 7 -15564287.29023        24.000           3.281
 91  7 24  2  6 59.9960000  0  3G 3G17G23
  19722600.324    -5792753.061 7  -4513834.05522        24.250           2.094
  19398730.324    -8646088.854 7  -6737209.32824        26.500           4.406
  20188621.191   -20175194.829 7 -15602339.51823        24.000           3.219
 91  7 24  2  7 14.9960000  0  3G 3G17G23
  19722852.441    -5791436.623 7  -4512808.26722        24.250           2.188
  19396125.090    -8659784.703 7  -6747881.41824        26.250           4.313
  20179349.934   -20223910.178 7 -15640299.50723        24.250           3.250
 91  7 24  2  7 29.9960000  0  3G 3G17G23
  19723127.934    -5789981.933 7  -4511674.76322        23.750           2.125
  19393534.879    -8673396.290 7  -6758487.85224        26.750           4.281
  20170102.363   -20272505.390 7 -15678165.88823        23.750           3.313
 91  7 24  2  7 44.9960000  0  3G 3G17G23
  19723431.090    -5788390.779 7  -4510434.91722        23.750           2.063
  19390960.512    -8686925.774 7  -6769030.31024        26.750           4.313
  20160877.316   -20320982.411 7 -15715940.16023        23.250           3.375
 91  7 24  2  7 59.9960000  0  3G 3G17G23
  19723760.020    -5786662.205 7  -4509087.99022        23.750           2.094
  19388401.270    -8700372.219 7  -6779508.05924        26.750           4.250
  20151674.941   -20369340.207 7 -15753621.54223        23.250           3.313
 91  7 24  2  8 14.9960000  0  3G 3G17G23
  19724115.676    -5784792.854 7  -4507631.37322        23.500           1.938
  19385858.840    -8713732.320 7  -6789918.52924        27.000           4.250
  20142496.277   -20417575.219 7 -15791207.23623        23.750           3.406
 91  7 24  2  8 29.9960000  0  3G 3G17G23
  19724499.348    -5782779.538 7  -4506062.56922        23.250           1.969
  19383333.496    -8727002.655 7  -6800259.05424        27.000           4.156
  20133341.520   -20465684.092 7 -15828694.64323        24.000           3.219
 91  7 24  2  8 44.9960000  0  3G 3G17G23
  19724907.770    -5780624.777 7  -4504383.55422        23.500           1.938
  19380824.684    -8740186.016 7  -6810531.80224        26.750           4.313
  20124209.512   -20513669.415 7 -15866085.77523        23.750           3.219
 91  7 24  2  8 59.9960000  0  3G 3G17G23
  19725346.285    -5778332.202 7  -4502597.14322        23.750           2.000
  19378331.856    -8753286.045 7  -6820739.61724        27.000           4.250
  20115102.418   -20561534.805 7 -15903383.46123        23.750           3.313
 91  7 24  2  9 14.9960000  0  3G 3G17G23
  19725807.020    -5775902.545 7  -4500703.91922        23.000           2.063
  19375855.441    -8766303.691 7  -6830883.24224        27.250           4.406
  20106017.207   -20609281.145 7 -15940588.37523        24.000           3.281
 91  7 24  2  9 29.9960000  0  3G 3G17G23
  19726296.895    -5773334.979 7  -4498703.23322        23.500           2.031
  19373392.559    -8779237.960 7  -6840961.89324        26.750           4.313
  20096954.043   -20656907.056 7 -15977699.44823        24.250           3.313
 91  7 24  2  9 44.9960000  0  3G 3G17G23
  19726812.012    -5770628.283 7  -4496594.13522        23.750           1.938
  19370948.621    -8792088.035 7  -6850974.94124        26.250           4.406
  20087913.652   -20704411.578 7 -16014715.93223        24.500           3.219
 91  7 24  2  9 59.9960000  0  3G 3G17G23
  19727352.473    -5767782.744 7  -4494376.84422        23.500           2.000
  19368519.996    -8804854.070 7  -6860922.50724        26.250           4.344
  20078898.535   -20751794.825 7 -16051637.91923        24.500           3.281
 91  7 24  2 10 14.9960000  0  3G 3G17G23
  19727920.254    -5764800.218 7  -4492052.81422        23.250           2.000
  19366105.168    -8817538.048 7  -6870806.13024        26.250           4.219
  20069904.809   -20799058.564 7 -16088466.78023        24.750           3.313
 91  7 24  2 10 29.9960000  0  3G 3G17G23
  19728515.066    -5761676.196 7  -4489618.52222        23.750           1.969
  19363707.684    -8830135.414 7  -6880622.26124        26.500           4.250
  20060933.363   -20846198.114 7 -16125198.86623        24.750           3.250
 91  7 24  2 10 44.9960000  0  3G 3G17G23
  19729136.621    -5758411.694 7  -4487074.77222        24.000           1.938
  19361328.527    -8842647.514 7  -6890371.94824        26.250           4.188
  20051986.238   -20893214.700 7 -16161835.14423        24.750           3.188
 91  7 24  2 10 59.9960000  0  3G 3G17G23
  19729782.262    -5755007.494 7  -4484422.15922        23.250           2.094
  19358960.004    -8855075.015 7  -6900055.71424        26.000           4.250
  20043063.543   -20940108.719 7 -16198375.91223        25.500           3.313
 91  7 24  2 11 14.9960000  0  3G 3G17G23
  19730458.957    -5751464.999 7  -4481661.78422        24.000           2.031
  19356612.840    -8867419.344 7  -6909674.67824        26.000           4.094
  20034161.512   -20986881.515 7 -16234822.21823        25.000           3.281
 91  7 24  2 11 29.9960000  0  3G 3G17G23
  19731158.027    -5747783.174 7  -4478792.84922        23.250           1.906
  19354280.715    -8879679.824 7  -6919228.29524        26.000           4.156
  20025285.098   -21033532.573 7 -16271173.66423        25.000           3.250
 91  7 24  2 11 44.9960000  0  3G 3G17G23
  19731886.020    -5743959.827 7  -4475813.63322        23.250           1.969
  19351963.504    -8891853.976 7  -6928714.64624        26.000           4.281
  20016430.152   -21080059.036 7 -16307428.02423        25.000           3.250
 91  7 24  2 11 59.9960000  0  3G 3G17G23
  19732639.637    -5739996.555 7  -4472725.38522        23.000           1.875
  19349660.457    -8903943.550 7  -6938135.09724        25.250           4.281
  20007600.176   -21126462.528 7 -16343586.56323        25.250           3.406
 91  7 24  2 12 14.9960000  0  3G 3G17G23
  19733420.457    -5735894.321 7  -4469528.85722        23.500           1.844
  19347379.035    -8915949.674 7  -6947490.52124        26.000           4.281
  19998792.941   -21172744.267 7 -16379650.22923        25.000           3.344
 91  7 24  2 12 29.9960000  0  3G 3G17G23
  19734227.988    -5731652.849 7  -4466223.82822        23.500           1.781
  19345111.082    -8927871.896 7  -6956780.56324        26.250           4.313
  19990008.996   -21218903.516 7 -16415618.44523        25.000           3.281
 91  7 24  2 12 44.9960000  0  3G 3G17G23
  19735061.621    -5727273.063 7  -4462811.01722        23.500           1.938
  19342856.238    -8939711.380 7  -6966006.13924        26.250           4.313
  19981248.871   -21264941.203 7 -16451491.94523        24.750           3.281
 91  7 24  2 12 59.9960000  0  3G 3G17G23
  19735921.652    -5722756.170 7  -4459291.37722        23.250           1.906
  19340618.262    -8951469.398 7  -6975168.22824        26.000           4.219
  19972512.004   -21310858.437 7 -16487271.57823        24.750           3.406
 91  7 24  2 13 14.9960000  0  3G 3G17G23
  19736806.754    -5718099.980 7  -4455663.19922        23.000           1.938
  19338396.856    -8963143.812 7  -6984265.17424        26.500           4.188
  19963795.973   -21356653.063 7 -16522955.67623        24.250           3.406
 91  7 24  2 13 29.9960000  0  3G 3G17G23
  19737719.254    -5713305.420 7  -4451927.18722        23.500           1.938
  19336192.402    -8974735.635 7  -6993297.76124        26.500           4.250
  19955105.934   -21402325.797 7 -16558544.79323        24.250           3.469
 91  7 24  2 13 44.9960000  0  3G 3G17G23
  19738658.770    -5708371.959 7  -4448082.94822        23.750           1.875
  19334000.895    -8986244.332 7  -7002265.57824        26.000           4.094
  19946436.918   -21447876.096 7 -16594038.50923        24.250           3.406
 91  7 24  2 13 59.9960000  0  3G 3G17G23
  19739622.301    -5703308.291 7  -4444137.24522        23.250           1.813
  19331824.434    -8997678.991 7  -7011175.70324        26.000           4.125
  19937791.387   -21493312.569 7 -16629443.52424        24.500           3.563
 91  7 24  2 14 14.9960000  0  3G 3G17G23
  19740608.645    -5698121.176 7  -4440095.34922        23.750           1.938
  19329662.879    -9009046.190 7  -7020033.25924        26.250           4.188
  19929163.949   -21538641.926 7 -16664765.07724        24.250           3.531
 91  7 24  2 14 29.9960000  0  3G 3G17G23
  19741623.098    -5692793.038 7  -4435943.57022        23.750           1.875
  19327516.051    -9020328.270 7  -7028824.49024        25.750           4.094
  19920562.457   -21583846.669 7 -16699989.52724        24.500           3.563
 91  7 24  2 14 44.9960000  0  3G 3G17G23
  19742663.418    -5687327.330 7  -4431684.59022        23.750           1.844
  19325383.527    -9031528.640 7  -7037552.05224        25.750           4.188
  19911984.098   -21628929.868 7 -16735119.26824        24.750           3.500
 91  7 24  2 14 59.9960000  0  3G 3G17G23
  19743730.363    -5681724.238 7  -4427318.56522        23.750           1.938
  19323267.926    -9042647.583 7  -7046216.16624        26.000           4.188
  19903428.379   -21673891.995 7 -16770154.66523        24.750           3.406
 91  7 24  2 15 14.9960000  0  3G 3G17G23
  19744821.309    -5675986.693 7  -4422847.75922        23.750           1.906
  19321167.840    -9053688.137 7  -7054819.19624        26.250           4.281
  19894894.762   -21718735.627 7 -16805097.73524        24.500           3.531
 91  7 24  2 15 29.9960000  0  3G 3G17G23
  19745938.441    -5670114.117 7  -4418271.73922        23.500           1.875
  19319081.207    -9064649.768 7  -7063360.72424        26.000           4.188
  19886383.926   -21763460.182 7 -16839948.01024        24.750           3.594
 91  7 24  2 15 44.9960000  0  3G 3G17G23
  19747085.004    -5664106.067 7  -4413590.15422        24.000           1.781
  19317010.715    -9075532.165 7  -7071840.51524        26.000           4.125
  19877895.582   -21808065.279 7 -16874705.20724        24.250           3.594
 91  7 24  2 15 59.9960000  0  3G 3G17G23
  19748252.402    -5657957.530 7  -4408799.10222        23.750           1.844
  19314956.254    -9086330.252 7  -7080254.60824        26.500           4.063
  19869430.613   -21852545.638 7 -16909365.20224        24.250           3.594
 91  7 24  2 16 14.9960000  0  3G 3G17G23
  19749448.488    -5651672.019 7  -4403901.30722        23.750           1.813
  19312915.973    -9097047.818 7  -7088605.95724        26.500           4.313
  19860989.707   -21896904.812 7 -16943930.76824        24.250           3.750
 91  7 24  2 16 29.9960000  0  3G 3G17G23
  19750670.645    -5645252.294 7  -4398898.93422        23.750           1.844
  19310890.231    -9107687.488 7  -7096896.60824        26.500           4.188
  19852570.840   -21941145.582 7 -16978404.07024        24.000           3.656
 91  7 24  2 16 44.9960000  0  3G 3G17G23
  19751917.856    -5638694.629 7  -4393789.08622        23.500           1.844
  19308883.012    -9118245.220 7  -7105123.41324        27.250           4.156
  19844175.277   -21985264.078 7 -17012782.09424        23.750           3.656
 91  7 24  2 16 59.9960000  0  3G 3G17G23
  19753192.934    -5631999.908 7  -4388572.43422        23.500           1.875
  19306890.254    -9128722.199 7  -7113287.29324        27.000           4.250
  19835802.918   -22029260.995 7 -17047065.38324        24.000           3.594
 91  7 24  2 17 14.9960000  0  3G 3G17G23
  19754493.676    -5625165.784 7  -4383247.16322        23.250           1.906
  19304911.504    -9139116.435 7  -7121386.69824        27.000           4.094
  19827453.684   -22073134.089 7 -17081252.18624        23.750           3.625
 91  7 24  2 17 29.9960000  0  3G 3G17G23
  19755818.496    -5618195.721 7  -4377815.95722        23.250           1.781
  19302947.074    -9149431.105 7  -7129424.10424        26.500           4.188
  19819128.551   -22116886.399 7 -17115344.87424        24.250           3.656
 91  7 24  2 17 44.9960000  0  3G 3G17G23
  19757170.527    -5611088.196 7  -4372277.64622        23.250           1.938
  19301000.020    -9159664.745 7  -7137398.37324        26.500           4.094
  19810825.270   -22160516.337 7 -17149342.20424        24.250           3.750
 91  7 24  2 17 59.9960000  0  3G 3G17G23
  19758549.066    -5603843.203 7  -4366632.21622        23.000           1.844
  19299067.988    -9169817.526 7  -7145309.62624        26.500           4.156
  19802546.965   -22204024.053 7 -17183244.29824        24.250           3.625
 91  7 24  2 18 14.9960000  0  3G 3G17G23
  19759955.902    -5596455.695 7  -4360875.73222        23.000           1.750
  19297152.637    -9179884.355 7  -7153153.90524        26.500           4.250
  19794290.848   -22247404.591 7 -17217047.29224        24.000           3.656
 91  7 24  2 18 29.9960000  0  3G 3G17G23
  19761388.356    -5588928.478 7  -4355010.38722        23.000           1.906
  19295253.215    -9189868.136 7  -7160933.47724        26.750           4.188
  19786060.996   -22290660.244 7 -17250752.97324        24.250           3.719
 91  7 24  2 18 44.9960000  0  3G 3G17G23
  19762846.895    -5581262.684 7  -4349037.06822        23.000           1.844
  19293368.246    -9199770.030 7  -7168649.23924        26.750           4.281
  19777853.676   -22333792.489 7 -17284362.48824        24.250           3.594
 91  7 24  2 18 59.9960000  0  3G 3G17G23
  19764331.176    -5573459.769 7  -4342956.89222        22.750           1.938
  19291499.731    -9209591.325 7  -7176302.19824        26.750           4.188
  19769667.426   -22376802.502 7 -17317876.75924        24.000           3.625
 91  7 24  2 19 14.9960000  0  3G 3G17G23
  19765841.879    -5565520.711 7  -4336770.63222        23.000           1.938
  19289645.449    -9219332.974 7  -7183893.09424        27.000           4.313
  19761506.582   -22419691.129 7 -17351296.44724        24.000           3.594
 91  7 24  2 19 29.9960000  0  3G 3G17G23
  19767379.629    -5557444.342 7  -4330477.37322        23.000           1.969
  19287807.113    -9228994.026 7  -7191421.19124        26.500           4.344
  19753368.926   -22462457.262 7 -17384620.68424        24.500           3.719
 91  7 24  2 19 44.9960000  0  3G 3G17G23
  19768943.152    -5549229.997 7  -4324076.60422        23.250           1.875
  19285983.918    -9238574.021 7  -7198886.12824        26.500           4.188
  19745253.856   -22505100.274 7 -17417848.97924        24.500           3.656
 91  7 24  2 19 59.9960000  0  3G 3G17G23
  19770529.871    -5540881.387 7  -4317571.20822        22.500           1.969
  19284176.637    -9248076.092 7  -7206290.34324        26.500           4.188
  19737161.410   -22547623.294 7 -17450983.77824        24.500           3.625
 91  7 24  2 20 14.9960000  0  3G 3G17G23
  19772143.660    -5532397.145 7  -4310960.13322        22.750           1.875
  19282383.074    -9257499.382 7  -7213633.17124        26.500           4.250
  19729092.363   -22590025.231 7 -17484024.23024        24.000           3.500
 91  7 24  2 20 29.9960000  0  3G 3G17G23
  19773787.035    -5523774.806 7  -4304241.43822        23.000           1.938
  19280605.074    -9266841.448 7  -7220912.71524        26.250           4.188
  19721048.113   -22632303.536 7 -17516968.34424        24.500           3.594
 91  7 24  2 20 44.9960000  0  3G 3G17G23
  19775453.215    -5515016.245 7  -4297416.60022        22.750           1.875
  19278843.051    -9276104.227 7  -7228130.46824        26.500           4.094
  19713025.582   -22674459.964 7 -17549817.48824        24.500           3.625
 91  7 24  2 20 59.9960000  0  3G 3G17G23
  19777144.777    -5506121.300 7  -4290485.49722        23.000           1.906
  19277095.020    -9285287.371 7  -7235286.16624        26.250           4.188
  19705027.340   -22716494.297 7 -17582571.49424        24.500           3.688
 91  7 24  2 21 14.9960000  0  3G 3G17G23
  19778865.316    -5497085.430 7  -4283444.57522        23.250           1.875
  19275365.059    -9294386.428 7  -7242376.35124        26.250           3.969
  19697051.910   -22758401.812 7 -17615226.68224        24.250           3.719
 91  7 24  2 21 29.9960000  0  3G 3G17G23
  19780612.715    -5487912.744 7  -4276297.05222        23.750           1.813
  19273646.582    -9303405.328 7  -7249404.06924        26.250           4.031
  19689100.895   -22800186.520 7 -17647786.17224        24.250           3.531
 91  7 24  2 21 44.9960000  0  3G 3G17G23
  19782383.949    -5478603.349 7  -4269042.99622        23.500           1.813
  19271945.926    -9312344.262 7  -7256369.47724        26.500           4.063
  19681172.691   -22841848.645 7 -17680250.14324        24.500           3.563
 91  7 24  2 21 59.9960000  0  3G 3G17G23
  19784180.809    -5469156.420 7  -4261681.77122        23.500           1.844
  19270261.395    -9321202.605 7  -7263272.08724        26.500           4.094
  19673269.324   -22883387.216 7 -17712617.84224        24.500           3.563
 91  7 24  2 22 14.9960000  0  3G 3G17G23
  19786004.691    -5459572.035 7  -4254213.44222        23.750           1.750
  19268589.434    -9329980.251 7  -7270111.81724        26.000           4.281
  19665385.957   -22924802.031 7 -17744889.10724        24.500           3.531
 91  7 24  2 22 29.9960000  0  3G 3G17G23
  19787854.754    -5449853.254 7  -4246640.38822        23.500           1.688
  19266935.754    -9338680.443 7  -7276891.20124        26.250           4.219
  19657527.340   -22966096.400 7 -17777066.51824        24.500           3.625
 91  7 24  2 22 44.9960000  0  3G 3G17G23
  19789728.293    -5439998.389 7  -4238961.29022        23.250           1.781
  19265294.895    -9347301.115 7  -7283608.61124        26.000           4.250
  19649694.699   -23007268.419 7 -17809148.59423        25.000           3.406
 91  7 24  2 22 59.9960000  0  3G 3G17G23
  19791630.652    -5430011.033 7  -4231178.95222        22.750           1.781
  19263668.926    -9355846.170 7  -7290267.10424        26.000           4.281
  19641881.988   -23048321.440 7 -17841137.94123        24.750           3.469
 91  7 24  2 23 14.9960000  0  3G 3G17G23
  19793557.402    -5419884.604 7  -4223288.24722        22.750           1.750
  19262057.895    -9364309.193 7  -7296861.67324        25.750           4.344
  19634094.441   -23089248.883 7 -17873029.43423        25.250           3.406
 91  7 24  2 23 29.9950000  0  3G 3G17G23
  19795508.304    -5409623.411 7  -4215292.53722        22.500           1.625
  19260461.999    -9372693.124 7  -7303394.61624        26.500           4.250
  19626329.327   -23130051.641 7 -17904823.77424        25.000           3.500
 91  7 24  2 23 44.9950000  0  4G 3G21G17G23
  19797487.733    -5399229.985 7  -4207193.77622        23.250           1.656
  23232315.366          -0.80514                         7.000
  19258881.757    -9381002.880 7  -7309869.75424        26.750           4.156
  19618586.773   -23170738.829 7 -17936528.05924        24.750           3.500
 91  7 24  2 23 59.9950000  0  4G 3G21G17G23
  19799490.843    -5388696.311 7  -4198985.73122        22.500           1.719
  23219283.898      -68471.019 4                         7.250
  19257316.718    -9389229.535 7  -7316280.14124        26.500           4.250
  19610868.882   -23211299.265 7 -17968133.57824        24.750           3.594
 91  7 24  2 24 14.9950000  0  4G 3G21G17G23
  19801520.773    -5378026.320 7  -4190671.47122        22.500           1.656
  23206266.515     -136893.608 4                         7.250
  19255765.733    -9397376.620 7  -7322628.52624        26.500           4.250
  19603172.335   -23251736.588 7 -17999643.15724        24.750           3.594
 91  7 24  2 24 29.9950000  0  4G 3G21G17G23
  19803579.429    -5367214.572 7  -4182246.76122        22.750           1.750
  23193254.773     -205263.110 4                         7.250
  19254230.007    -9405438.947 7  -7328910.86724        26.250           4.094
  19595503.023   -23292045.418 7 -18031052.61523        25.000           3.469
 91  7 24  2 24 44.9950000  0  4G 3G21G17G23
  19805662.749    -5356268.540 7  -4173717.40022        23.000           1.719
  23180255.155     -273586.268 5                         7.500
  19252712.069    -9413423.493 7  -7335132.59324        26.250           4.000
  19587854.937   -23332232.661 7 -18062367.33223        24.750           3.469
 91  7 24  2 24 59.9950000  0  4G 3G21G17G23
  19807770.515    -5345185.853 7  -4165081.55822        22.750           1.656
  23167262.171     -341861.001 5        -0.34631         7.500           0.188
  19251207.663    -9421328.330 7  -7341292.21324        26.000           4.125
  19580231.405   -23372296.314 7 -18093585.75024        25.000           3.500
 91  7 24  2 25 14.9950000  0  4G 3G21G17G23
  19809906.773    -5333967.262 7  -4156339.82322        22.500           1.750
  23154275.273     -410087.682 5    -53163.83621         7.750           0.375
  19249717.999    -9429154.086 7  -7347390.21124        26.000           4.156
  19572631.585   -23412236.890 7 -18124708.25923        25.000           3.438
 91  7 24  2 25 29.9950000  0  4G 3G21G17G23
  19812066.390    -5322615.160 7  -4147494.04622        23.250           1.719
  23141301.694     -478268.425 5   -106291.54521         7.500           0.344
  19248244.015    -9436903.328 7  -7353428.59024        26.250           4.188
  19565053.343   -23452056.755 7 -18155736.70624        24.500           3.500
 91  7 24  2 25 44.9950000  0  4G 3G21G17G23
  19814253.819    -5311125.068 7  -4138540.73922        23.250           1.750
  23128336.632     -546398.564 5   -159379.81621         7.500           0.188
  19246783.288    -9444571.364 7  -7359403.68524        25.500           4.188
  19557500.429   -23491751.134 7 -18186667.37523        25.250           3.469
 91  7 24  2 25 59.9950000  0  4G 3G21G17G23
  19816465.890    -5299497.854 7  -4129480.59122        23.000           1.750
  23115382.390     -614479.089 5   -212429.42421         7.500           0.250
  19245340.351    -9452159.326 7  -7365316.39424        25.750           4.406
  19549970.905   -23531321.083 7 -18217501.08423        25.500           3.438
 91  7 24  2 26 14.9950000  0  4G 3G21G17G23
  19818703.780    -5287730.112 7  -4120310.94822        23.000           1.750
  23102435.913     -682505.912 4   -265437.19421         7.250           0.313
  19243912.905    -9459663.316 7  -7371163.66524        26.000           4.375
  19542463.265   -23570762.683 7 -18248234.78123        25.000           3.406
 91  7 24  2 26 29.9950000  0  4G 3G21G17G23
  19820971.101    -5275822.110 7  -4111032.00022        23.250           1.656
  23089498.523     -750479.453 4   -318403.45821         6.750           0.281
  19242500.733    -9467083.950 7  -7376945.98324        26.500           4.344
  19534982.812   -23610076.679 7 -18278869.04623        24.750           3.469
 91  7 24  2 26 44.9950000  0  4G 3G21G17G23
  19823262.663    -5263781.862 7  -4101650.00022        22.750           1.688
  23076575.116     -818407.338 4   -371334.12121         7.250           0.438
  19241102.538    -9474429.302 7  -7382669.64124        26.250           4.344
  19527524.687   -23649270.998 7 -18309410.05824        25.000           3.500
 91  7 24  2 26 59.9950000  0  4G 3G21G17G23
  19825578.569    -5251606.386 7  -4092162.64022        22.750           1.719
  23063661.413     -886286.263 5   -424226.63921         7.750           0.313
  19239720.124    -9481696.290 7  -7388332.23924        26.250           4.438
  19520089.054   -23688342.250 7 -18339855.17523        25.250           3.406
 91  7 24  2 27 14.9950000  0  4G 3G21G17G23
  19827920.335    -5239297.631 7  -4082571.41622        22.500           1.719
  23050753.960     -954117.986 5   -477082.39021         7.750           0.250
  19238351.913    -9488886.630 7  -7393935.10724        26.250           4.375
  19512678.194   -23727292.268 7 -18370205.82324        25.250           3.563
 91  7 24  2 27 29.9950000  0  4G 3G21G17G23
  19830290.116    -5226850.228 7  -4072872.15722        22.750           1.688
  23037855.069    -1021897.099 5   -529897.13921         8.000           0.281
  19236999.765    -9495995.132 7  -7399474.20724        26.250           4.344
  19505289.499   -23766115.807 7 -18400457.91423        25.000           3.438
 91  7 24  2 27 44.9950000  0  4G 3G21G17G23
  19832685.960    -5214266.157 7  -4063066.40622        23.000           1.688
  23024964.460    -1089625.164 5   -582672.15021         7.750           0.281
  19235663.577    -9503023.497 7  -7404950.85824        26.250           4.125
  19497924.796   -23804814.837 7 -18430612.98823        25.000           3.344
 91  7 24  2 27 59.9950000  0  4G 3G21G17G23
  19835106.733    -5201546.384 7  -4053154.91522        23.250           1.688
  23012087.687    -1157303.135 4   -635408.11121         7.000           0.281
  19234338.898    -9509972.968 7  -7410366.03724        26.000           4.313
  19490585.187   -23843390.234 7 -18460671.72123        25.500           3.469
 91  7 24  2 28 14.9950000  0  4G 3G21G17G23
  19837551.663    -5188686.769 7  -4043134.45522        22.750           1.531
  22999220.710    -1224926.657 5   -688101.61321         7.500           0.281
  19233032.218    -9516839.326 7  -7415716.45424        26.250           4.313
  19483268.749   -23881837.712 7 -18490630.77523        25.500           3.438
 91  7 24  2 28 29.9950000  0  4G 3G21G17G23
  19840025.429    -5175689.123 7  -4033006.43322        22.750           1.688
  22986356.476    -1292497.113 5   -740753.77421         7.500           0.281
  19231740.819    -9523624.084 7  -7421003.28324        26.250           4.188
  19475976.937   -23920158.720 7 -18520491.28423        25.250           3.406
 91  7 24  2 28 44.9950000  0  4G 3G21G17G23
  19842526.116    -5162555.149 7  -4022772.18122        23.000           1.688
  22973509.116    -1360016.074 5   -793365.84121         7.500           0.344
  19230466.148    -9530329.089 7  -7426227.97224        26.500           4.188
  19468706.085   -23958354.821 7 -18550254.46523        24.750           3.344
 91  7 24  2 28 59.9950000  0  4G 3G21G17G23
  19845049.429    -5149285.757 7  -4012432.42922        22.250           1.625
  22960672.546    -1427484.251 5   -845938.31021         8.000           0.313
  19229204.398    -9536955.434 7  -7431391.36124        26.000           4.188
  19461461.655   -23996427.022 7 -18579921.09624        25.250           3.531
 91  7 24  2 29 14.9950000  0  4G 3G21G17G23
  19847599.858    -5135882.625 7  -4001988.45422        22.250           1.625
  22947841.280    -1494903.100 5   -898472.38321         8.000           0.281
  19227957.773    -9543504.631 7  -7436494.64024        26.000           4.219
  19454243.202   -24034377.020 7 -18609492.50924        26.000           3.531
 91  7 24  2 29 29.9950000  0  4G 3G21G17G23
  19850177.218    -5122341.430 7  -3991436.89322        22.750           1.563
  22935020.765    -1562268.128 5   -950964.47921         8.000           0.375
  19226726.733    -9549972.227 7  -7441534.33324        25.750           4.219
  19447043.733   -24072200.299 7 -18638965.17124        25.750           3.531
 91  7 24  2 29 44.9950000  0  4G 3G21G17G23
  19852780.749    -5108665.043 7  -3980779.98322        22.750           1.656
  22922213.116    -1629581.813 5  -1003416.58221         8.250           0.313
  19225510.773    -9556361.185 7  -7446512.74524        26.000           4.250
  19439869.366   -24109899.552 7 -18668341.19423        25.000           3.438
 91  7 24  2 29 59.9950000  0  4G 3G21G17G23
  19855409.312    -5094848.994 7  -3970014.25322        22.750           1.656
  22909417.976    -1696839.562 5  -1055825.10221         8.250           0.313
  19224311.937    -9562666.934 7  -7451426.32424        26.000           4.375
  19432720.007   -24147470.496 7 -18697617.24023        25.250           3.375
 91  7 24  2 30 14.9950000  0  4G 3G21G17G23
  19858063.601    -5080894.895 7  -3959140.95022        22.000           1.688
  22896626.733    -1764042.645 5  -1108191.00921         8.250           0.219
  19223126.741    -9568891.149 7  -7456276.37024        26.000           4.281
  19425595.116   -24184914.508 7 -18726794.37723        25.750           3.375
 91  7 24  2 30 29.9950000  0  4G 3G21G17G23
  19860747.046    -5066801.993 7  -3948159.48922        22.750           1.531
  22883840.491    -1831190.234 5  -1160513.68921         7.750           0.375
  19221957.796    -9575033.090 7  -7461062.30524        26.250           4.250
  19418493.858   -24222230.812 7 -18755872.00323        25.500           3.469
 91  7 24  2 30 44.9950000  0  4G 3G21G17G23
  19863454.694    -5052570.451 7  -3937069.98922        22.500           1.531
  22871077.257    -1898282.109 5  -1212792.97521         8.000           0.344
  19220805.694    -9581092.705 7  -7465784.08324        26.250           4.344
  19411417.468   -24259419.164 7 -18784849.92123        25.500           3.469
 91  7 24  2 30 59.9950000  0  4G 3G21G17G23
  19866188.655    -5038201.981 7  -3925873.79622        22.250           1.656
  22858330.491    -1965319.831 5  -1265030.03621         8.250           0.219
  19219667.546    -9587071.903 7  -7470443.20724        26.000           4.219
  19404364.819   -24296481.382 7 -18813729.54924        25.750           3.563
 91  7 24  2 31 14.9950000  0  4G 3G21G17G23
  19868948.194    -5023699.758 7  -3914573.39422        22.250           1.531
  22845578.827    -2032306.263 5  -1317227.13721         8.000           0.313
  19218544.741    -9592973.440 7  -7475041.81224        26.000           4.188
  19397335.366   -24333420.643 7 -18842513.38024        25.500           3.500
 91  7 24  2 31 29.9950000  0  4G 3G21G17G23
  19871735.054    -5009058.336 7  -3903164.51622        22.250           1.563
  22832836.702    -2099235.808 5  -1369379.91121         7.750           0.250
  19217437.608    -9598791.928 7  -7479575.70924        26.250           4.281
  19390330.241   -24370231.551 7 -18871197.18723        25.500           3.438
 91  7 24  2 31 44.9950000  0  4G 3G21G17G23
  19874544.194    -4994280.687 7  -3891649.48422        21.500           1.563
  22820111.249    -2166111.116 5  -1421490.43921         8.000           0.250
  19216346.624    -9604530.506 7  -7484047.33124        26.250           4.250
  19383348.726   -24406916.615 7 -18899782.93624        25.750           3.500
 91  7 24  2 31 59.9950000  0  4G 3G21G17G23
  19877384.280    -4979363.436 7  -3880025.67322        21.500           1.531
  22807401.452    -2232928.782 5  -1473556.03621         8.500           0.281
  19215269.366    -9610185.816 7  -7488454.07124        26.000           4.281
  19376392.905   -24443472.597 7 -18928268.10024        25.750           3.531
 91  7 24  2 32 14.9950000  0  4G 3G21G17G23
  19880250.874    -4964306.823 7  -3868293.27822        21.750           1.688
  22794695.101    -2299688.792 5  -1525576.71221         8.250           0.250
  19214208.562    -9615757.842 7  -7492795.91824        26.000           4.344
  19369460.304   -24479899.711 7 -18956652.85024        25.500           3.594
 91  7 24  2 32 29.9950000  0  4G 3G21G17G23
  19883141.062    -4949111.598 7  -3856452.86322        21.250           1.625
  22781997.163    -2366391.429 5  -1577552.68621         7.750           0.313
  19213165.483    -9621247.303 7  -7497073.42424        26.500           4.438
  19362554.046   -24516198.533 7 -18984937.63024        26.000           3.500
 91  7 24  2 32 44.9950000  0  4G 3G21G17G23
  19886059.687    -4933776.078 7  -3844503.13222        21.000           1.563
  22769319.562    -2433034.806 5  -1629482.47321         8.500           0.406
  19212135.288    -9626652.596 7  -7501285.34724        26.500           4.219
  19355670.171   -24552367.154 7 -19013120.95423        26.000           3.469
 91  7 24  2 32 59.9950000  0  4G 3G21G17G23
  19889003.749    -4918304.377 7  -3832447.28822        22.000           1.594
  22756651.398    -2499622.708 5  -1681369.02421         8.750           0.375
  19211122.515    -9631977.441 7  -7505434.58124        26.000           4.219
  19348812.905   -24588409.559 7 -19041205.93423        26.250           3.469
 91  7 24  2 33 14.9950000  0  4G 3G21G17G23
  19891974.749    -4902697.076 7  -3820285.77822        22.000           1.719
  22743986.015    -2566155.670 5  -1733212.78721         8.250           0.313
  19210123.296    -9637222.674 7  -7509521.77924        26.000           4.281
  19341977.749   -24624326.418 7 -19069193.07524        26.250           3.500
 91  7 24  2 33 29.9950000  0  4G 3G21G17G23
  19894971.835    -4886952.522 7  -3808017.32222        21.500           1.563
  22731334.054    -2632631.751 5  -1785012.23521         8.000           0.281
  19209142.382    -9642386.545 7  -7513545.57424        26.250           4.344
  19335167.273   -24660115.847 7 -19097080.92724        26.000           3.531
 91  7 24  2 33 44.9950000  0  4G 3G21G17G23
  19897992.148    -4871069.543 7  -3795641.00622        21.000           1.563
  22718701.468    -2699049.580 5  -1836766.26421         9.000           0.344
  19208175.148    -9647467.942 7  -7517505.11424        26.250           4.406
  19328380.663   -24695776.888 7 -19124868.73424        26.000           3.594
 91  7 24  2 33 59.9950000  0  4G 3G21G17G23
  19901042.218    -4855049.063 7  -3783157.54122        21.750           1.563
  22706076.069    -2765409.827 5  -1888475.43021         9.000           0.344
  19207223.843    -9652467.771 7  -7521401.08924        26.000           4.438
  19321619.249   -24731310.287 7 -19152557.08023        26.000           3.375
 91  7 24  2 34 14.9950000  0  4G 3G21G17G23
  19904115.358    -4838893.078 7  -3770568.49122        21.250           1.625
  22693453.194    -2831714.032 5  -1940140.92721         8.250           0.313
  19206287.132    -9657387.519 7  -7525234.66324        25.750           4.375
  19314881.030   -24766717.633 7 -19180147.20023        26.250           3.438
 91  7 24  2 34 29.9950000  0  4G 3G21G17G23
  19907215.741    -4822600.357 7  -3757872.90122        21.000           1.656
  22680847.108    -2897960.947 5  -1991761.80021         8.500           0.438
  19205366.960    -9662226.352 7  -7529005.18224        26.250           4.438
  19308166.101   -24801997.880 7 -19207638.28823        26.000           3.313
 91  7 24  2 34 44.9950000  0  4G 3G21G17G23
  19910344.108    -4806169.330 7  -3745069.52922        21.500           1.625
  22668252.507    -2964148.712 5  -2043336.57521         8.500           0.406
  19204460.530    -9666982.563 7  -7532711.32624        26.000           4.281
  19301478.280   -24837149.102 7 -19235028.83823        26.000           3.406
 91  7 24  2 34 59.9950000  0  4G 3G21G17G23
  19913495.280    -4789604.619 7  -3732161.99022        21.000           1.531
  22655666.366    -3030281.842 5  -2094868.76521         8.500           0.406
  19203570.382    -9671660.865 7  -7536356.76724        26.000           4.313
  19294813.835   -24872176.083 7 -19262322.57423        26.500           3.406
 91  7 24  2 35 14.9950000  0  4G 3G21G17G23
  19916671.327    -4772906.508 7  -3719150.50922        20.750           1.531
  22643088.999    -3096360.201 5  -2146358.28521         8.500           0.406
  19202696.249    -9676261.155 7  -7539941.41124        26.250           4.313
  19288172.257   -24907078.868 7 -19289519.53423        26.750           3.406
 91  7 24  2 35 29.9950000  0  4G 3G21G17G23
  19919875.624    -4756069.941 7  -3706031.14522        20.500           1.500
  22630529.773    -3162378.652 5  -2197801.13021         9.000           0.344
  19201836.757    -9680778.505 7  -7543461.42724        26.750           4.344
  19281554.804   -24941852.561 7 -19316615.90423        26.500           3.375
 91  7 24  2 35 44.9950000  0  4G 3G21G17G23
  19923106.726    -4739099.175 7  -3692807.19221        21.250           1.375
  22617978.140    -3228341.038 5  -2249200.27221         8.750           0.438
  19200992.616    -9685217.005 7  -7546920.00424        27.000           4.344
  19274960.437   -24976501.143 7 -19343614.78823        26.000           3.406
 91  7 24  2 35 59.9950000  0  4G 3G21G17G23
  19926362.319    -4721990.006 7  -3679475.39622        21.000           1.531
  22605434.093    -3294242.947 5  -2300552.31821         8.750           0.344
  19200163.319    -9689572.513 7  -7550313.90524        26.500           4.281
  19268392.327   -25011020.204 7 -19370512.74623        26.750           3.375
 91  7 24  2 36 14.9950000  0  4G 3G21G17G23
  19929643.054    -4704748.807 7  -3666040.72721        20.750           1.469
  22592903.194    -3360090.481 5  -2351861.96321         8.750           0.281
  19199346.476    -9693850.944 7  -7553647.75224        26.000           4.094
  19261847.429   -25045416.073 7 -19397314.70923        26.750           3.344
 91  7 24  2 36 29.9950000  0  4G 3G21G17G23
  19932950.163    -4687368.540 7  -3652497.69022        21.250           1.500
  22580388.788    -3425876.484 5  -2403123.68221         8.750           0.375
  19198550.944    -9698045.555 7  -7556916.28024        26.250           4.219
  19255325.655   -25079681.738 7 -19424015.21324        27.000           3.531
 91  7 24  2 36 44.9950000  0  4G 3G21G17G23
  19936282.929    -4669849.629 7  -3638846.61722        20.750           1.531
  22567880.046    -3491600.880 5  -2454337.38021         8.750           0.344
  19197768.187    -9702156.746 7  -7560119.81224        26.500           4.125
  19248831.163   -25113817.240 7 -19450614.29423        26.750           3.438
 91  7 24  2 36 59.9950000  0  4G 3G21G17G23
  19939643.757    -4652189.549 7  -3625085.55121        21.000           1.375
  22555383.390    -3557260.882 5  -2505500.91521         8.250           0.500
  19197002.749    -9706181.710 7  -7563256.15124        26.250           4.281
  19242359.749   -25147820.104 7 -19477110.01923        26.750           3.438
 91  7 24  2 37 14.9950000  0  4G 3G21G17G23
  19943030.944    -4634388.491 7  -3611214.62321        21.250           1.406
  22542903.413    -3622856.473 5  -2556614.26121         8.750           0.344
  19196251.499    -9710120.785 7  -7566325.56124        25.750           4.250
  19235914.257   -25181690.401 7 -19503502.44623        26.750           3.438
 91  7 24  2 37 29.9950000  0  4G 3G21G17G23
  19946446.062    -4616449.835 7  -3597236.47221        21.500           1.344
  22530431.601    -3688390.819 5  -2607679.86721         8.750           0.375
  19195517.882    -9713977.314 7  -7569330.65624        26.250           4.281
  19229494.108   -25215431.586 7 -19529794.26723        26.750           3.281
 91  7 24  2 37 44.9950000  0  4G 3G21G17G23
  19949884.093    -4598373.456 7  -3583151.01022        20.750           1.500
  22517970.687    -3753863.679 5  -2658697.57921         8.750           0.500
  19194800.991    -9717750.844 7  -7572271.07324        26.500           4.375
  19223098.671   -25249043.406 7 -19555985.28323        26.750           3.469
 91  7 24  2 37 59.9950000  0  4G 3G21G17G23
  19953352.827    -4580158.219 7  -3568957.35821        21.250           1.469
  22505525.273    -3819273.601 5  -2709666.24121         9.000           0.406
  19194097.960    -9721440.255 7  -7575145.94224        26.500           4.406
  19216725.765   -25282524.611 7 -19582074.52523        26.500           3.438
 91  7 24  2 38 14.9950000  0  4G 3G21G17G23
  19956844.710    -4561807.439 7  -3554658.06921        21.250           1.438
  22493088.741    -3884623.647 5  -2760588.23821         9.250           0.500
  19193411.562    -9725049.029 7  -7577957.98124        26.250           4.406
  19210379.187   -25315878.392 7 -19608064.47323        26.500           3.375
 91  7 24  2 38 29.9950000  0  4G 3G21G17G23
  19960360.507    -4543329.268 7  -3540259.51321        21.250           1.438
  22480663.491    -3949921.695 5  -2811469.74021         9.000           0.406
  19192739.171    -9728585.052 7  -7580713.32324        26.500           4.313
  19204054.608   -25349112.773 7 -19633961.37823        26.750           3.438
 91  7 24  2 38 44.9950000  0  4G 3G21G17G23
  19963900.968    -4524716.708 7  -3525756.26221        20.500           1.438
  22468249.444    -4015160.441 5  -2862305.01921         9.000           0.500
  19192081.562    -9732041.166 7  -7583406.40724        26.750           4.313
  19197755.319   -25382220.747 7 -19659759.78623        26.750           3.313
 91  7 24  2 38 59.9950000  0  4G 3G21G17G23
  19967470.085    -4505967.457 7  -3511146.48421        21.750           1.469
  22455850.046    -4080337.388 5  -2913092.14221         9.250           0.438
  19191439.687    -9735415.249 7  -7586035.56524        26.250           4.188
  19191478.608   -25415199.817 7 -19685457.75123        26.500           3.344
 91  7 24  2 39 14.9950000  0  4G 3G21G17G23
  19971064.233    -4487086.914 7  -3496434.39821        21.250           1.313
  22443454.335    -4145457.449 5  -2963834.93921         9.250           0.469
  19190810.952    -9738712.276 7  -7588604.68224        26.250           4.125
  19185226.960   -25448055.078 7 -19711059.23623        26.750           3.344
 91  7 24  2 39 29.9950000  0  4G 3G21G17G23
  19974681.257    -4468069.656 7  -3481615.78321        20.500           1.344
  22431073.241    -4210515.243 5  -3014529.24221         9.250           0.375
  19190200.476    -9741926.862 7  -7591109.56324        26.750           4.188
  19178998.515   -25480781.252 7 -19736560.13823        26.250           3.281
 91  7 24  2 39 44.9950000  0  4G 3G21G17G23
  19978327.499    -4448914.383 7  -3466689.62421        20.500           1.344
  22418706.687    -4275509.157 5  -3065173.74721         9.000           0.469
  19189604.194    -9745057.702 7  -7593549.18324        26.500           4.188
  19172797.241   -25513377.064 7 -19761959.45823        26.750           3.313
 91  7 24  2 39 59.9950000  0  4G 3G21G17G23
  19981998.163    -4429621.922 7  -3451656.56321        20.250           1.313
  22406353.132    -4340439.760 5  -3115768.91621         9.250           0.469
  19189025.593    -9748105.535 7  -7595924.12624        27.000           4.281
  19166619.241   -25545843.084 7 -19787257.64623        26.750           3.250
 91  7 24  2 40 14.9950000  0  4G 3G21G17G23
  19985696.226    -4410193.980 7  -3436517.93921        20.000           1.344
  22394003.249    -4405308.276 5  -3166315.71521         9.000           0.531
  19188459.546    -9751071.614 7  -7598235.36024        27.000           4.219
  19160465.476   -25578180.717 7 -19812455.78723        26.750           3.313
 91  7 24  2 40 29.9950000  0  4G 3G21G17G23
  19989418.179    -4390634.513 6  -3421276.83321        19.500           1.219
  22381673.202    -4470118.651 5  -3216817.20421         9.250           0.406
  19187910.327    -9753960.184 7  -7600486.19824        27.000           4.125
  19154334.085   -25610394.067 7 -19837557.08623        26.500           3.281
 91  7 24  2 40 44.9950000  0  4G 3G21G17G23
  19993165.257    -4370939.947 7  -3405930.44021        20.000           1.250
  22369352.608    -4534866.930 5  -3267270.29621         9.500           0.406
  19187376.179    -9756767.522 7  -7602673.73824        26.750           4.219
  19148228.882   -25642479.467 7 -19862558.68123        26.750           3.188
 91  7 24  2 40 59.9950000  0  4G 3G21G17G23
  19996936.241    -4351110.599 6  -3390479.02921        19.750           1.250
  22357039.632    -4599553.035 5  -3317674.96021         9.500           0.406
  19186858.265    -9759493.835 7  -7604798.14624        26.500           4.281
  19142146.921   -25674436.849 7 -19887460.52523        27.000           3.344
 91  7 24  2 41 14.9950000  0  4G 3G21G17G23
  20000738.632    -4331143.651 6  -3374920.40721        19.750           1.188
  22344746.288    -4664174.243 5  -3368029.05121         9.750           0.531
  19186354.827    -9762136.307 7  -7606857.21624        26.500           4.344
  19136091.694   -25706263.828 7 -19912260.75523        27.000           3.250
 91  7 24  2 41 29.9950000  0  4G 3G21G17G23
  20004564.108    -4311040.869 7  -3359255.92921        20.500           1.156
  22332463.640    -4728731.714 5  -3418333.49921        10.000           0.406
  19185866.913    -9764696.540 7  -7608852.20424        26.250           4.219
  19130059.757   -25737961.725 7 -19936960.40323        27.250           3.313
 91  7 24  2 41 44.9950000  0  4G 3G21G17G23
  20008412.937    -4290803.515 6  -3343486.59221        19.750           1.219
  22320188.421    -4793226.513 5  -3468589.10221         9.500           0.469
  19185396.796    -9767175.881 7  -7610784.16024        26.750           4.219
  19124051.991   -25769531.698 7 -19961560.36623        27.250           3.125
 91  7 24  2 41 59.9950000  0  4G 3G21G17G23
  20012291.241    -4270433.759 7  -3327614.09221        20.000           1.125
  22307923.687    -4857660.786 5  -3518797.51821         9.750           0.469
  19184939.116    -9769576.321 7  -7612654.64324        26.500           4.094
  19118067.476   -25800976.183 7 -19986062.54823        26.750           3.156
 91  7 24  2 42 14.9950000  0  4G 3G21G17G23
  20016193.757    -4249929.421 7  -3311636.72421        20.250           1.219
  22295677.273    -4922031.853 5  -3568956.71421         9.750           0.500
  19184496.444    -9771895.542 7  -7614461.83224        26.500           4.281
  19112108.507   -25832292.395 7 -20010464.77823        27.000           3.125
 91  7 24  2 42 29.9950000  0  4G 3G21G17G23
  20020118.866    -4229290.752 6  -3295554.67621        19.750           1.188
  22283440.007    -4986339.628 5  -3619066.56021        10.000           0.469
  19184070.765    -9774133.573 7  -7616205.75724        27.000           4.313
  19106173.718   -25863480.463 7 -20034767.15323        26.500           3.250
 91  7 24  2 42 44.9950000  0  4G 3G21G17G23
  20024072.257    -4208519.791 6  -3279369.53721        19.750           1.156
  22271214.280    -5050586.011 5  -3669128.59021        10.500           0.531
  19183660.179    -9776292.356 7  -7617887.93324        26.750           4.344
  19100264.413   -25894542.704 7 -20058971.48523        26.750           3.156
 91  7 24  2 42 59.9950000  0  4G 3G21G17G23
  20028049.437    -4187620.232 7  -3263084.19821        20.000           1.281
  22258998.960    -5114774.345 5  -3719145.39321        10.250           0.469
  19183265.671    -9778375.589 7  -7619511.23824        26.750           4.188
  19094375.335   -25925482.372 7 -20083080.30423        26.750           3.188
 91  7 24  2 43 14.9950000  0  4G 3G21G17G23
  20032052.343    -4166587.374 7  -3246694.99621        20.000           1.313
  22246796.030    -5178899.844 5  -3769113.20321        10.250           0.500
  19182881.718    -9780378.686 7  -7621072.09624        26.250           4.156
  19088511.616   -25956295.035 7 -20107090.15423        27.000           3.156
 91  7 24  2 43 29.9950000  0  4G 3G21G17G23
  20036080.968    -4145424.224 7  -3230204.26221        20.000           1.094
  22234604.015    -5242964.921 5  -3819033.95921        10.000           0.594
  19182515.952    -9782304.160 7  -7622572.46924        26.500           4.125
  19082672.132   -25986983.264 7 -20131003.04923        27.000           3.156
 91  7 24  2 43 44.9950000  0  4G 3G21G17G23
  20040131.585    -4124127.548 6  -3213609.47421        19.500           1.313
  22222426.952    -5306966.338 5  -3868905.11421         9.500           0.531
  19182166.187    -9784148.819 7  -7624009.87324        26.750           4.156
  19076856.444   -26017544.039 7 -20154816.62623        27.250           3.125
 91  7 24  2 43 59.9950000  0  4G 3G21G17G23
  20044210.608    -4102698.349 6  -3196911.43121        19.750           1.219
  22210257.124    -5370904.631 5  -3918727.07521         9.750           0.531
  19181829.288    -9785913.666 7  -7625385.08124        26.250           4.094
  19071065.999   -26047978.050 7 -20178531.42523        27.500           3.094
 91  7 24  2 44 14.9950000  0  4G 3G21G17G23
  20048314.343    -4081137.810 7  -3180111.04521        20.000           1.406
  22198101.140    -5434780.716 5  -3968500.56721        10.000           0.469
  19181508.687    -9787599.679 7  -7626698.87024        26.750           4.156
  19065297.257   -26078286.387 7 -20202148.29423        27.000           3.188
 91  7 24  2 44 29.9950000  0  4G 3G21G17G23
  20052442.773    -4059445.909 7  -3163208.29421        20.000           1.219
  22185959.554    -5498594.315 5  -4018225.33621         9.750           0.563
  19181202.710    -9789206.757 7  -7627951.14124        27.000           4.188
  19059553.757   -26108468.780 7 -20225667.02723        27.250           3.094
 91  7 24  2 44 44.9950000  0  4G 3G21G17G23
  20056591.085    -4037624.363 6  -3146204.51621        19.500           1.281
  22173827.249    -5562347.101 5  -4067902.73621        10.250           0.531
  19180911.663    -9790736.543 7  -7629143.18624        27.000           4.094
  19053833.046   -26138527.179 7 -20249089.13923        26.750           3.094
 91  7 24  2 44 59.9950000  0  4G 3G21G17G23
  20060770.632    -4015670.425 6  -3129097.58121        19.750           1.313
  22161709.155    -5626035.852 5  -4117530.23221        10.250           0.563
  19180636.296    -9792185.980 7  -7630272.62524        27.000           4.375
  19048138.819   -26168458.335 7 -20272412.10323        27.250           3.219
 91  7 24  2 45 14.9950000  0  4G 3G21G17G23
  20064974.046    -3993584.861 7  -3111888.08321        20.000           1.125
  22149600.913    -5689661.215 5  -4167108.32821        10.500           0.500
  19180374.765    -9793556.198 7  -7631340.33724        26.500           4.219
  19042466.343   -26198263.290 7 -20295636.72923        27.000           3.156
 91  7 24  2 45 29.9950000  0  4G 3G21G17G23
  20069202.507    -3971370.354 7  -3094578.11321        20.250           1.250
  22137504.577    -5753225.163 5  -4216638.58721        10.500           0.500
  19180128.866    -9794849.218 7  -7632347.89524        26.500           4.188
  19036818.491   -26227944.142 7 -20318764.65423        26.750           3.219
 91  7 24  2 45 44.9950000  0  4G 3G21G17G23
  20073452.069    -3949027.239 7  -3077167.92421        20.000           1.281
  22125418.905    -5816728.037 5  -4266121.27821        10.500           0.500
  19179897.726    -9796065.485 7  -7633295.63924        26.500           4.250
  19031193.530   -26257501.360 7 -20341796.23423        26.750           3.156
 91  7 24  2 45 59.9950000  0  4G 3G21G17G23
  20077730.366    -3926554.413 7  -3059656.66321        20.500           1.219
  22113346.116    -5880168.511 5  -4315555.32121        10.000           0.531
  19179679.327    -9797203.739 7  -7634182.59524        26.750           4.250
  19025593.749   -26286933.892 7 -20364730.66023        27.000           3.125
 91  7 24  2 46 14.9950000  0  4G 3G21G17G23
  20082031.116    -3903949.306 7  -3042042.32121        20.000           1.219
  22101284.413    -5943543.726 5  -4364938.51421        10.000           0.625
  19179480.694    -9798261.416 7  -7635006.77124        26.750           4.281
  19020016.233   -26316239.114 7 -20387565.88123        27.000           3.094
 91  7 24  2 46 29.9950000  0  4G 3G21G17G23
  20086357.929    -3881212.412 7  -3024325.29321        20.250           1.250
  22089243.913    -6006853.959 5  -4414271.07121        10.500           0.531
  19179294.983    -9799238.856 7  -7635768.42224        26.500           4.125
  19014464.913   -26345417.332 7 -20410302.13623        27.250           3.156
 91  7 24  2 46 44.9950000  0  4G 3G21G17G23
  20090708.702    -3858344.932 7  -3006506.51021        20.000           1.188
  22077205.929    -6070099.909 5  -4463553.53421        10.250           0.625
  19179121.788    -9800137.037 7  -7636468.31224        26.250           4.094
  19008935.671   -26374469.538 7 -20432940.20323        27.000           3.219
 91  7 24  2 46 59.9950000  0  4G 3G21G17G23
  20095084.780    -3835345.732 6  -2988585.07921        19.250           1.188
  22065180.929    -6133280.368 5  -4512784.97821        10.500           0.594
  19178968.030    -9800955.053 7  -7637105.73424        26.750           4.000
  19003431.358   -26403394.810 7 -20455479.36123        27.500           3.188
 91  7 24  2 47 14.9950000  0  4G 3G21G17G23
  20099485.616    -3812216.839 6  -2970562.59421        19.250           1.156
  22053172.437    -6196396.805 5  -4561966.52421        10.750           0.688
  19178827.819    -9801694.280 7  -7637681.76424        26.750           4.094
  18997951.046   -26432194.796 7 -20477920.89523        27.250           3.188
 91  7 24  2 47 29.9940000  0  4G 3G21G17G23
  20103911.502    -3788961.668 6  -2952441.71421        19.500           1.031
  22041173.205    -6259446.878 5  -4611096.36321        10.500           0.563
  19178699.557    -9802356.674 7  -7638197.92124        26.750           4.156
  18992493.947   -26460869.106 7 -20500264.50023        27.500           3.156
 91  7 24  2 47 44.9940000  0  4G 3G21G17G23
  20108363.658    -3765574.596 6  -2934218.05321        19.750           1.125
  22029187.940    -6322436.018 5  -4660178.73821        10.500           0.625
  19178588.799    -9802939.762 7  -7638652.28224        26.750           4.063
  18987062.533   -26489418.941 7 -20522511.10623        27.250           3.125
 91  7 24  2 47 59.9940000  0  4G 3G21G17G23
  20112837.088    -3742059.639 6  -2915894.73621        19.500           1.125
  22017212.072    -6385362.195 5  -4709212.02621        10.500           0.563
  19178493.502    -9803445.689 7  -7639046.51624        26.500           4.156
  18981651.674   -26517845.056 7 -20544661.31423        27.250           3.063
 91  7 24  2 48 14.9940000  0  4G 3G21G17G23
  20117337.815    -3718414.385 6  -2897469.89921        19.250           1.000
  22005251.580    -6448222.750 5  -4758194.17421        10.250           0.563
  19178411.463    -9803872.120 7  -7639378.80424        26.750           4.156
  18976265.416   -26546145.041 7 -20566713.23623        27.000           3.219
 91  7 24  2 48 29.9940000  0  4G 3G21G17G23
  20121862.221    -3694642.532 6  -2878946.40221        19.750           1.094
  21993301.072    -6511021.146 5  -4807127.89921        10.250           0.563
  19178346.354    -9804222.615 7  -7639651.92424        26.750           4.094
  18970904.432   -26574322.321 7 -20588669.54523        27.250           3.188
 91  7 24  2 48 44.9940000  0  4G 3G21G17G23
  20126408.338    -3670740.381 6  -2860321.37921        19.250           1.156
  21981360.307    -6573753.257 5  -4856009.97421        10.250           0.563
  19178293.565    -9804493.138 7  -7639862.73324        27.250           4.031
  18965567.143   -26602372.977 7 -20610527.18823        26.750           3.156
 91  7 24  2 48 59.9940000  0  4G 3G21G17G23
  20130981.877    -3646711.477 6  -2841597.59421        19.000           1.063
  21969436.533    -6636422.466 5  -4904843.02921        10.250           0.563
  19178256.252    -9804687.075 7  -7640013.86424        27.000           4.000
  18960252.627   -26630300.590 7 -20632288.95023        27.000           3.219
 91  7 24  2 49 14.9940000  0  4G 3G21G17G23
  20135580.752    -3622554.277 6  -2822773.82421        19.500           1.094
  21957521.229    -6699026.852 5  -4953625.58721        10.250           0.563
  19178236.213    -9804802.843 7                        26.500
  18954961.518   -26658103.303 7 -20653953.39123        27.250           3.188
 91  7 24  2 49 29.9940000  0  4G 3G21G17G23
  20140199.354    -3598269.101 6  -2803850.33521        18.750           1.156
  21945621.650    -6761566.562 5  -5002357.74921        10.500           0.563
  19178228.275    -9804840.715 7                        26.500
  18949696.010   -26685781.442 8 -20675520.76023        28.000           3.031
 91  7 24  2 49 44.9940000  0  4G 3G21G17G23
  20144845.205    -3573854.946 6  -2784826.35221        19.000           1.094
  21933733.924    -6824040.167 5  -5051038.38421        10.750           0.563
  19178235.815    -9804799.342 7                        26.000
  18944451.736   -26713333.859 7 -20696990.16423        27.500           3.250
 91  7 24  2 49 59.9940000  0  4G 3G21G17G23
  20149515.900    -3549312.679 6  -2765702.54321        19.750           1.219
  21921861.322    -6886448.537 5  -5099668.19221        11.250           0.563
  19178257.424    -9804679.998 7                        26.250
  18939231.971   -26740761.675 7 -20718362.47823        27.000           3.094
 91  7 24  2 50 14.9940000  0  4G 3G21G17G23
  20154209.690    -3524641.452 6  -2746478.23621        19.500           1.125
  21909996.213    -6948790.111 5  -5148245.95021        11.000           0.531
  19178295.838    -9804481.289 7                        27.000
  18934036.596   -26768063.461 7 -20739636.58423        26.750           3.125
 91  7 24  2 50 29.9940000  0  4G 3G21G17G23
  20158930.986    -3499841.421 6  -2727153.55721        19.250           1.000
  21898145.947    -7011064.993 5  -5196771.75521        10.750           0.500
  19178351.354    -9804203.323 7                        27.250
  18928864.596   -26795239.462 7 -20760812.67923        27.000           3.063
 91  7 24  2 50 44.9940000  0  4G 3G21G17G23
  20163675.057    -3474914.562 6  -2707730.06121        19.250           1.156
  21886309.150    -7073274.698 5  -5245246.76821        11.250           0.469
  19178419.080    -9803847.786 7  -7639359.92024        27.000           4.094
  18923717.682   -26822291.406 7 -20781892.10423        26.750           3.094
 91  7 24  2 50 59.9940000  0  4G 3G21G17G23
  20168441.674    -3449864.399 6  -2688210.48621        19.750           1.156
  21874479.018    -7135422.482 5  -5293673.53121        11.000           0.656
  19178498.994    -9803418.090 7  -7639025.09924        27.000           4.094
  18918592.268   -26849222.730 7 -20802877.54023        26.750           3.125
 91  7 24  2 51 14.9940000  0  4G 3G21G17G23
  20173232.713    -3424682.470 6  -2668588.23221        19.250           1.188
  21862667.900    -7197499.672 5  -5342045.29421        11.500           0.688
  19178596.916    -9802905.765 7  -7638625.89224        26.750           4.094
  18913492.971   -26876025.099 7 -20823762.49123        27.250           3.188
 91  7 24  2 51 29.9940000  0  4G 3G21G17G23
  20178047.627    -3399373.840 6  -2648867.25021        19.250           1.156
  21850866.549    -7259510.849 5  -5390365.60921        11.250           0.531
  19178710.361    -9802315.452 7  -7638165.91224        26.750           4.188
  18908415.541   -26902703.189 7 -20844550.60623        27.250           3.125
 91  7 24  2 51 44.9940000  0  4G 3G21G17G23
  20182886.432    -3373948.353 6  -2629055.21221        18.750           1.125
  21839075.838    -7321465.716 5  -5438642.05021        11.250           0.719
  19178833.252    -9801657.092 7  -7637652.91024        26.750           4.063
  18903360.260   -26929266.867 7 -20865249.56223        27.000           3.031
 91  7 24  2 51 59.9940000  0  4G 3G21G17G23
  20187750.432    -3348391.392 6  -2609140.73221        18.500           1.063
  21827300.447    -7383349.484 5  -5486863.08921        11.000           0.563
  19178975.041    -9800915.957 7  -7637075.40824        26.750           4.094
  18898331.088   -26955701.525 7 -20885847.99123        27.000           3.156
 91  7 24  2 52 14.9940000  0  4G 3G21G17G23
  20192634.994    -3322722.218 6  -2589138.80621        18.000           1.031
  21815536.815    -7445180.986 5  -5535043.39021        11.750           0.500
  19179126.752    -9800110.960 7  -7636448.14524        26.750           4.031
  18893321.494   -26982026.039 7 -20906360.58323        27.250           3.125
 91  7 24  2 52 29.9940000  0  4G 3G21G17G23
  20197542.565    -3296928.767 6  -2569040.04821        18.000           1.063
  21803780.260    -7506947.789 5  -5583173.29621        11.500           0.688
  19179295.643    -9799230.149 7  -7635761.80624        27.000           4.125
  18888334.963   -27008228.223 7 -20926777.86423        26.750           3.000
 91  7 24  2 52 44.9940000  0  4G 3G21G17G23
  20202476.518    -3271005.985 6  -2548840.50921        18.750           0.906
  21792041.354    -7568644.716 5  -5631248.73921        11.500           0.688
  19179479.815    -9798268.432 7  -7635012.42224        27.000           4.063
  18883372.010   -27034303.163 7 -20947095.98623        26.500           3.125
 91  7 24  2 52 59.9940000  0  4G 3G21G17G23
  20207431.815    -3244959.577 6  -2528544.63721        18.000           1.000
  21780313.236    -7630276.987 5  -5679273.80621        11.750           0.625
  19179675.104    -9797231.213 7  -7634204.20324        27.000           4.094
  18878433.182   -27060256.332 7 -20967319.22723        26.750           3.188
 91  7 24  2 53 14.9940000  0  4G 3G21G17G23
  20212413.096    -3218790.107 6  -2508152.87421        18.000           1.000
  21768594.650    -7691845.032 5  -5727248.82721        11.500           0.656
  19179888.361    -9796119.088 7  -7633337.61624        27.500           4.094
  18873519.033   -27086088.307 7 -20987448.02823        27.000           3.063
 91  7 24  2 53 29.9940000  0  4G 3G21G17G23
  20217416.979    -3192495.540 6  -2487663.63821        17.750           1.031
  21756892.502    -7753346.529 5  -5775171.98821        11.750           0.625
  19180113.791    -9794929.656 7  -7632410.78924        27.500           4.156
  18868627.182   -27111796.763 7 -21007480.58223        27.000           3.031
 91  7 24  2 53 44.9940000  0  4G 3G21G17G23
  20222443.861    -3166076.839 6  -2467077.66521        18.000           0.938
  21745201.143    -7814781.921 5  -5823043.64021        11.500           0.563
  19180355.307    -9793663.668 7  -7631424.30724        27.250           4.125
  18863758.721   -27137382.645 7 -21027417.62823        27.250           3.094
 91  7 24  2 53 59.9940000  0  4G 3G21G17G23
  20227494.877    -3139533.227 6  -2446394.36521        18.250           0.969
  21733523.252    -7876150.205 5  -5870863.01121        11.750           0.688
  19180611.596    -9792320.094 7  -7630377.37024        27.000           4.188
  18858912.908   -27162845.008 7 -21047258.42023        27.000           3.125
 91  7 24  2 54 14.9940000  0  4G 3G21G17G23
  20232570.752    -3112865.899 6  -2425614.65621        18.500           0.969
  21721857.596    -7937452.293 5  -5918630.78821        11.750           0.688
  19180879.940    -9790900.009 7  -7629270.81424        26.500           4.094
  18854089.299   -27188184.975 7 -21067003.84023        26.750           3.000
 91  7 24  2 54 29.9940000  0  4G 3G21G17G23
  20237669.479    -3086072.741 6  -2404736.90221        18.750           1.031
  21710206.049    -7998685.833 6  -5966345.15021        12.000           0.594
  19181165.377    -9789401.247 7  -7628102.94924        26.500           4.125
  18849290.713   -27213400.369 7 -21086652.18923        26.750           3.125
 91  7 24  2 54 44.9940000  0  4G 3G21G17G23
  20242790.830    -3059155.280 6  -2383762.30021        18.500           1.031
  21698565.361    -8059851.988 6  -6014007.01421        12.250           0.688
  19181465.010    -9787825.228 7  -7626874.88924        26.750           4.188
  18844516.736   -27238492.535 7 -21106204.51523        27.000           3.125
 91  7 24  2 54 59.9940000  0  4G 3G21G17G23
  20247936.096    -3032114.020 6  -2362691.21121        18.750           1.063
  21686939.111    -8120950.913 6  -6061616.49821        12.000           0.594
  19181780.197    -9786172.291 7  -7625586.88824        26.750           4.188
  18839764.807   -27263461.903 7 -21125661.15723        26.750           3.031
 91  7 24  2 55 14.9940000  0  4G 3G21G17G23
  20253104.455    -3004950.048 6  -2341524.51121        19.000           1.094
  21675323.783    -8181983.368 5  -6109174.17621        11.500           0.688
  19182108.986    -9784443.511 7  -7624239.79424        26.750           4.219
  18835037.619   -27288309.451 7 -21145022.87423        27.250           3.031
 91  7 24  2 55 29.9940000  0  4G 3G21G17G23
  20258296.604    -2977663.654 6  -2320262.41721        18.500           1.188
  21663724.150    -8242949.498 6  -6156680.18321        12.000           0.594
  19182451.502    -9782639.006 7  -7622833.69124        26.750           4.344
  18830332.307   -27313035.344 7 -21164289.79223        27.250           3.000
 91  7 24  2 55 44.9940000  0  4G 3G21G17G23
  20263513.408    -2950257.609 6  -2298907.09921        18.750           1.125
  21652134.611    -8303851.588 6  -6204136.29521        12.250           0.656
  19182809.580    -9780760.974 7  -7621370.29624        26.750           4.250
  18825650.354   -27337642.073 7 -21183463.86423        27.500           3.094
 91  7 24  2 55 59.9940000  0  4G 3G21G17G23
  20268750.713    -2922740.858 6  -2277465.50521        18.750           1.125
  21640554.244    -8364698.416 6  -6251549.33421        12.250           0.750
  19183180.002    -9778818.594 7  -7619856.75824        26.750           4.188
  18820987.752   -27362138.743 7 -21202552.16923        27.000           2.969
 91  7 24  2 56 14.9940000  0  4G 3G21G17G23
  20274007.775    -2895102.265 6  -2255928.97021        18.500           1.094
  21628989.033    -8425478.540 6  -6298910.38621        12.250           0.719
  19183562.932    -9776800.479 7  -7618284.20524        26.500           4.219
  18816349.994   -27386513.867 7 -21221545.76023        27.250           3.000
 91  7 24  2 56 29.9940000  0  4G 3G21G17G23
  20279291.486    -2867339.656 6  -2234295.81121        18.250           1.125
  21617435.518    -8486189.305 6  -6346217.41221        12.000           0.594
  19183962.994    -9774704.168 7  -7616650.72324        26.750           4.094
  18811734.119   -27410765.093 7 -21240442.81223        27.250           2.969
 91  7 24  2 56 44.9940000  0  4G 3G21G17G23
  20284598.096    -2839447.725 6  -2212561.87421        18.250           1.031
  21605895.307    -8546825.262 5  -6393466.13121        11.750           0.750
  19184378.135    -9772524.343 7  -7614952.16524        26.500           4.188
  18807145.533   -27434887.367 7 -21259239.37923        27.750           3.000
 91  7 24  2 56 59.9940000  0  4G 3G21G17G23
  20289927.197    -2811439.309 6  -2190737.16921        17.750           1.031
  21594368.861    -8607398.842 6  -6440666.24321        12.250           0.719
  19184805.932    -9770273.762 7  -7613198.47324        26.500           4.125
  18802576.713   -27458893.120 7 -21277945.15123        27.500           2.906
 91  7 24  2 57 14.9940000  0  4G 3G21G17G23
  20295283.135    -2783299.770 6  -2168810.28821        17.250           0.906
  21582857.424    -8667895.100 6  -6487806.11821        12.250           0.656
  19185252.330    -9767937.337 7  -7611377.88724        27.000           4.188
  18798032.666   -27482767.601 7 -21296548.63323        27.000           2.969
 91  7 24  2 57 29.9940000  0  4G 3G21G17G23
  20300662.822    -2755038.025 6  -2146788.17821        17.750           0.875
  21571359.354    -8728322.694 6  -6534892.47921        12.500           0.781
  19185710.432    -9765523.862 7  -7609497.26524        27.000           4.094
  18793512.760   -27506519.642 7 -21315056.71323        27.000           2.969
 91  7 24  2 57 44.9940000  0  4G 3G21G17G23
  20306062.580    -2726658.040 6  -2124673.94121        18.000           0.938
  21559874.150    -8788685.380 6  -6581928.25921        12.750           0.688
  19186181.713    -9763037.319 7  -7607559.70624        26.500           4.188
  18789016.002   -27530153.157 7 -21333472.42823        27.250           2.938
 91  7 24  2 57 59.9940000  0  4G 3G21G17G23
  20311486.565    -2698152.888 6  -2102462.16721        17.250           0.906
  21548398.963    -8848975.896 6  -6628907.81921        12.500           0.781
  19186672.682    -9760470.641 7  -7605559.71024        27.250           4.063
  18784541.205   -27553661.268 7 -21351790.42923        27.000           2.938
 91  7 24  2 58 14.9940000  0  4G 3G21G17G23
  20316932.955    -2669536.723 6  -2080163.90021        17.250           0.969
  21536937.971    -8909207.710 6  -6675841.63821        12.250           0.719
  19187172.307    -9757837.446 7  -7603507.87424        27.500           4.094
  18780090.322   -27577057.606 7 -21370021.33423        27.000           2.906
 91  7 24  2 58 29.9940000  0  4G 3G21G17G23
  20322402.690    -2640792.186 6  -2057765.58921        17.750           0.875
  21525490.611    -8969363.436 6  -6722716.15421        12.750           0.719
  19187689.111    -9755120.573 7  -7601390.83624        27.250           4.094
  18775662.010   -27600325.007 7 -21388151.76823        27.000           2.969
 91  7 24  2 58 44.9940000  0  4G 3G21G17G23
  20327893.963    -2611928.839 6  -2035274.70521        17.500           0.750
  21514054.361    -9029452.205 6  -6769538.51121        12.500           0.719
  19188221.580    -9752329.196 7  -7599215.74424        27.250           4.188
  18771257.861   -27623472.729 7 -21406188.94423        27.500           2.938
 91  7 24  2 58 59.9940000  0  4G 3G21G17G23
  20333408.994    -2582946.982 6  -2012691.47221        16.750           0.813
  21502635.088    -9089474.118 6  -6816308.77021        12.500           0.750
  19188766.166    -9749463.518 7  -7596982.75624        26.750           4.156
  18766875.408   -27646501.025 7 -21424133.06223        27.250           2.969
 91  7 24  2 59 14.9940000  0  4G 3G21G17G23
  20338948.182    -2553843.259 6  -1990013.29121        17.250           0.844
  21491223.986    -9149425.358 6  -6863023.95721        12.500           0.813
  19189326.385    -9746520.011 7  -7594689.12424        26.750           4.219
  18762518.354   -27669406.505 7 -21441981.48123        27.750           2.906
 91  7 24  2 59 29.9940000  0  4G 3G21G17G23
  20344509.791    -2524624.684 6  -1967245.60621        17.500           0.813
  21479834.275    -9209312.680 6  -6909689.34321        13.000           0.688
  19189900.221    -9743505.693 7  -7592340.31524        26.750           4.188
  18758179.815   -27692195.952 7 -21459739.48523        27.000           2.906
 91  7 24  2 59 44.9940000  0  4G 3G21G17G23
  20350089.947    -2495285.148 6  -1944383.66021        17.000           0.813
  21468447.338    -9269129.736 6  -6956299.96621        13.000           0.750
  19190489.643    -9740414.149 7  -7589931.32524        27.000           4.063
  18753865.557   -27714863.344 7 -21477402.38323        27.250           2.844
 91  7 24  2 59 59.9940000  0  4G 3G21G17G23
  20355696.408    -2465829.797 6  -1921431.47721        17.500           0.844
  21457075.182    -9328881.367 6  -7002859.62221        12.750           0.750
  19191090.018    -9737250.324 7  -7587466.01424        26.500           4.219
  18749574.369   -27737413.583 7 -21494973.99123        27.250           2.813
 91  7 24  3  0 14.9940000  0  4G 3G21G17G23
  20361325.486    -2436254.700 6  -1898385.99221        17.750           0.813
  21445718.111    -9388563.181 6  -7049364.86321        12.750           0.781
  19191706.322    -9734009.911 7  -7584941.02224        26.000           4.156
  18745307.893   -27759842.590 7 -21512451.13023        27.750           2.875
 91  7 24  3  0 29.9940000  0  4G 3G21G17G23
  20366974.580    -2406559.002 6  -1875246.51321        17.250           0.781
  21434375.315    -9448173.927 6  -7095814.75021        13.000           0.719
  19192338.135    -9730691.901 7  -7582355.57124        26.250           4.094
  18741063.127   -27782149.339 7 -21529833.00423        27.750           2.750
 91  7 24  3  0 44.9940000  0  4G 3G21G17G23
  20372651.033    -2376742.492 6  -1852012.90621        17.000           0.844
  21423044.268    -9507713.310 6  -7142209.00021        13.000           0.719
  19192985.635    -9727296.103 7  -7579709.50324        26.250           4.063
  18736841.525   -27804333.558 7 -21547119.40223        27.750           2.938
 91  7 24  3  0 59.9940000  0  4G 3G21G17G23
  20378347.674    -2346806.878 6  -1828686.49021        16.750           0.813
  21411726.260    -9567182.628 6  -7188548.67021        13.000           0.813
  19193645.174    -9723824.026 7  -7577003.99524        26.250           4.031
  18732642.260   -27826396.721 7 -21564311.46523        27.500           2.875
 91  7 24  3  1 14.9940000  0  4G 3G21G17G23
  20384065.408    -2316752.207 6  -1805267.30221        17.000           0.906
  21400428.830    -9626581.423 6  -7234833.38821        13.750           0.688
  19194319.588    -9720275.387 7  -7574238.82924        25.500           4.094
  18728466.736   -27848338.652 7 -21581409.07323        27.750           2.844
 91  7 24  3  1 29.9940000  0  4G 3G21G17G23
  20389808.502    -2286577.713 6  -1781754.75221        17.000           0.813
  21389136.947    -9685909.095 6  -7281062.68121        13.500           0.750
  19195010.869    -9716649.588 7  -7571413.53724        26.250           3.969
  18724314.807   -27870158.941 7 -21598411.88423        27.750           2.844
 91  7 24  3  1 44.9940000  0  4G 3G21G17G23
  20395569.971    -2256284.723 6  -1758149.85321        17.000           0.875
  21377860.674    -9745166.411 6  -7327237.15521        13.500           0.688
  19195715.557    -9712947.551 7  -7568528.84124        26.250           3.969
  18720185.385   -27891858.565 7 -21615320.67323        27.750           2.875
 91  7 24  3  1 59.9940000  0  4G 3G21G17G23
  20401359.166    -2225874.020 6  -1734453.24621        17.000           0.875
  21366595.775    -9804353.753 6  -7373357.09021        13.500           0.906
  19196434.955    -9709169.800 7  -7565585.14124        26.000           3.938
  18716078.940   -27913438.157 7 -21632135.93123        27.750           2.875
 91  7 24  3  2 14.9940000  0  4G 3G21G17G23
  20407170.221    -2195345.229 6  -1710664.61621        17.500           0.719
  21355348.627    -9863470.416 6  -7419421.96321        13.500           0.688
  19197167.557    -9705315.800 7  -7562582.03124        26.000           3.719
  18711994.650   -27934897.230 7 -21648857.27923        27.500           2.844
 91  7 24  3  2 29.9940000  0  4G 3G21G17G23
  20413001.400    -2164700.005 6  -1686785.25121        17.250           0.719
  21344110.854    -9922517.687 6  -7465432.75121        14.000           0.844
  19197914.400    -9701386.913 7  -7559520.56724        25.750           3.781
  18707933.705   -27956237.195 7 -21665485.81823        27.500           2.844
 91  7 24  3  2 44.9940000  0  4G 3G21G17G23
  20418854.963    -2133935.529 6  -1662812.97421        16.750           0.813
  21332889.354    -9981492.395 6  -7511387.01421        14.000           0.844
  19198677.229    -9697380.247 7  -7556398.49924        25.750           3.750
  18703897.354   -27977455.142 8 -21682019.27423        28.000           2.906
 91  7 24  3  2 59.9940000  0  4G 3G21G17G23
  20424730.877    -2103053.008 6  -1638748.70821        16.500           0.813
  21321677.565   -10040395.570 6  -7557285.53621        13.500           0.781
  19199453.104    -9693296.929 7  -7553216.69724        25.750           3.813
  18699882.057   -27998552.247 8 -21698458.56823        28.250           2.906
 91  7 24  3  3 14.9940000  0  4G 3G21G17G23
  20430630.190    -2072052.788 6  -1614592.74221        16.000           0.875
  21310481.049   -10099227.329 6  -7603128.38821        13.250           0.750
  19200244.400    -9689137.087 7  -7549975.26824        25.750           3.844
  18695890.588   -28019528.859 8 -21714803.97023        28.000           2.969
 91  7 24  3  3 29.9940000  0  4G 3G21G17G23
  20436550.846    -2040936.495 6  -1590346.31021        16.000           0.656
  21299300.299   -10157988.525 6  -7648916.28821        13.500           0.844
  19201051.338    -9684902.001 7  -7546675.21024        25.500           3.781
  18691922.463   -28040386.177 8 -21731056.41823        28.250           2.813
 91  7 24  3  3 44.9940000  0  4G 3G21G17G23
  20442497.088    -2009704.422 6  -1566009.67821        16.250           0.750
  21288131.440   -10216679.476 6  -7694649.43321        13.750           0.813
  19201871.533    -9680591.892 7  -7543316.69124        26.000           3.813
  18687974.705   -28061124.746 7 -21747216.33223        27.750           2.781
 91  7 24  3  3 59.9940000  0  4G 3G21G17G23
  20448462.627    -1978355.361 6  -1541581.87721        17.000           0.813
  21276979.861   -10275298.472 6  -7740326.51621        14.250           0.875
  19202705.330    -9676205.124 7  -7539898.43524        26.250           3.813
  18684051.385   -28081742.796 7 -21763282.33923        27.500           2.844
 91  7 24  3  4 14.9940000  0  4G 3G21G17G23
  20454448.010    -1946888.335 6  -1517062.16821        15.750           0.781
  21265839.354   -10333844.382 6  -7785946.62421        14.000           0.750
  19203555.838    -9671740.854 7  -7536419.79324        26.750           3.875
  18680150.416   -28102239.546 7 -21779253.82723        27.250           2.719
 91  7 24  3  4 29.9940000  0  4G 3G21G17G23
  20460456.744    -1915303.592 6  -1492450.73121        15.500           0.844
  21254711.088   -10392316.966 6  -7831509.62721        13.500           0.781
  19204419.908    -9667198.953 7  -7532880.65924        26.250           3.875
  18676273.783   -28122615.117 8 -21795130.88623        28.000           2.781
 91  7 24  3  4 44.9940000  0  4G 3G21G17G23
  20466491.041    -1883602.686 6  -1467748.76621        15.750           0.719
  21243597.940   -10450717.417 6  -7877016.40621        13.750           0.781
  19205298.791    -9662580.910 7  -7529282.19024        26.000           3.781
  18672418.260   -28142870.780 8 -21810914.51523        28.000           2.813
 91  7 24  3  4 59.9940000  0  4G 3G21G17G23
  20472547.213    -1851788.268 6  -1442958.35821        15.750           0.813
  21232495.400   -10509048.369 6  -7922469.02821        13.250           0.906
  19206193.635    -9657889.302 7  -7525626.39924        26.500           3.781
  18668586.729   -28163009.239 8 -21826606.81423        28.000           2.781
 91  7 24  3  5 14.9940000  0  4G 3G21G17G23
  20478622.010    -1819860.144 6  -1418079.34721        15.750           0.813
  21221412.963   -10567309.299 6  -7967867.08821        13.250           0.844
  19207098.205    -9653123.647 7  -7521912.90924        26.000           3.750
  18664777.635   -28183030.246 8 -21842207.59023        28.500           2.844
 91  7 24  3  5 29.9940000  0  4G 3G21G17G23
  20484718.963    -1787816.505 6  -1393110.31421        15.750           0.719
  21210336.697   -10625497.718 6  -8013208.64921        13.250           0.906
  19208020.338    -9648281.631 7  -7518139.91924        26.000           3.688
  18660990.580   -28202931.486 8 -21857715.04323        28.750           2.781
 91  7 24  3  5 44.9940000  0  4G 3G21G17G23
  20490839.947    -1755657.984 6  -1368051.77721        15.750           0.875
  21199276.893   -10683614.018 6  -8058494.01721        13.250           0.906
  19208956.283    -9643363.876 7  -7514307.90824        26.500           3.594
  18657225.861   -28222713.599 8 -21873129.66923        28.750           2.688
 91  7 24  3  5 59.9940000  0  4G 3G21G17G23
  20496980.197    -1723386.788 6  -1342905.43021        15.250           0.781
  21188232.838   -10741660.187 6  -8103724.73321        13.500           1.000
  19209906.877    -9638372.334 7  -7510418.39724        26.250           3.656
  18653483.908   -28242378.720 8 -21888453.13423        28.500           2.750
 91  7 24  3  6 14.9940000  0  4G 3G21G17G23
  20503141.994    -1691002.872 6  -1317671.25621        15.000           0.750
  21177199.525   -10799635.787 6  -8148900.46321        13.500           0.906
  19210869.635    -9633306.973 7  -7506471.37124        26.250           3.625
  18649762.916   -28261926.777 8 -21903685.37923        28.250           2.719
 91  7 24  3  6 29.9940000  0  4G 3G21G17G23
  20509326.713    -1658506.484 6  -1292349.42421        15.750           0.719
  21166182.666   -10857540.684 6  -8194021.09521        13.750           0.813
  19211847.979    -9628167.499 7  -7502466.58924        26.250           3.594
  18646065.815   -28281357.734 8 -21918826.37923        28.000           2.688
 91  7 24  3  6 44.9940000  0  4G 3G21G17G23
  20515531.908    -1625897.769 6  -1266940.07621        15.250           0.719
  21155176.635   -10915374.755 6  -8239086.54421        13.750           0.938
  19212839.275    -9622953.762 7  -7498403.94024        26.250           3.688
  18642390.635   -28300671.788 8 -21933876.28923        28.750           2.656
 91  7 24  3  6 59.9940000  0  4G 3G21G17G23
  20521759.815    -1593175.987 6  -1241442.62321        15.250           0.688
  21144183.158   -10973136.876 6  -8284095.92621        13.500           0.938
  19213845.330    -9617665.110 7  -7494282.91824        26.000           3.719
  18638738.065   -28319868.083 8 -21948834.43223        29.000           2.656
 91  7 24  3  7 14.9940000  0  4G 3G21G17G23
  20528006.275    -1560340.673 6  -1215856.70521        15.000           0.688
  21133204.900   -11030826.282 6  -8329048.64421        13.500           0.906
  19214866.010    -9612300.961 7  -7490103.06624        25.750           3.750
  18635107.525   -28338945.765 8 -21963700.15123        28.750           2.656
 91  7 24  3  7 29.9940000  0  4G 3G21G17G23
  20534275.307    -1527393.241 6  -1190183.41621        14.750           0.688
  21122241.596   -11088444.076 6  -8373945.56521        13.750           1.000
  19215900.611    -9606862.411 7  -7485865.24024        25.750           3.656
  18631500.221   -28357906.418 8 -21978474.67723        28.750           2.750
 91  7 24  3  7 44.9940000  0  4G 3G21G17G23
  20540566.908    -1494334.113 6  -1164423.07721        15.250           0.719
  21111289.643   -11145990.277 6  -8418786.69621        13.750           0.938
  19216950.822    -9601349.746 7  -7481569.66624        26.250           3.750
  18627913.518   -28376750.180 8 -21993158.12323        28.750           2.781
 91  7 24  3  7 59.9940000  0  4G 3G21G17G23
  20546879.502    -1461163.091 6  -1138575.55721        15.500           0.750
  21100353.869   -11203464.465 6  -8463571.71721        13.500           0.938
  19218014.752    -9595762.566 7  -7477216.02424        26.500           3.688
  18624348.971   -28395476.748 8 -22007750.25223        28.500           2.719
 91  7 24  3  8 14.9940000  0  4G 3G21G17G23
  20553213.065    -1427880.038 6  -1112640.73821        15.750           0.719
  21089429.869   -11260865.989 6  -8508300.12221        13.750           0.875
  19219092.721    -9590100.209 7  -7472803.80824        26.500           3.688
  18620808.752   -28414085.841 8 -22022250.83823        28.500           2.656
 91  7 24  3  8 29.9940000  0  4G 3G21G17G23
  20559568.822    -1394486.301 6  -1086619.67421        16.000           0.688
  21078521.190   -11318195.986 6  -8552972.79521        14.000           0.969
  19220182.166    -9584364.055 7  -7468334.07824        26.250           3.750
  18617289.299   -28432578.730 8 -22036660.87323        28.250           2.688
 91  7 24  3  8 44.9940000  0  4G 3G21G17G23
  20565945.057    -1360978.391 6  -1060509.63421        15.250           0.719
  21067625.729   -11375450.676 6  -8597586.78221        13.750           0.938
  19221289.369    -9578550.551 7  -7463804.08024        26.750           3.656
  18613792.893   -28450951.871 8 -22050977.59923        28.250           2.563
 91  7 24  3  8 59.9940000  0  4G 3G21G17G23
  20572342.783    -1327361.767 6  -1034314.89521        15.250           0.656
  21056741.057   -11432634.901 6  -8642145.86221        13.500           0.906
  19222409.471    -9572664.573 7  -7459217.60824        26.750           3.656
  18610318.127   -28469210.430 8 -22065205.04323        28.500           2.625
 91  7 24  3  9 14.9940000  0  4G 3G21G17G23
  20578759.713    -1293634.613 6  -1008034.02621        15.500           0.688
  21045877.236   -11489746.751 6  -8686648.53221        14.250           0.906
  19223542.111    -9566704.516 7  -7454573.41524        26.250           3.688
  18606865.565   -28487352.537 8 -22079341.74423        28.000           2.688
 91  7 24  3  9 29.9940000  0  4G 3G21G17G23
  20585199.424    -1259795.853 6   -981666.19821        15.250           0.594
  21035021.518   -11546784.693 6  -8731093.60821        14.250           1.063
  19224692.338    -9560668.815 7  -7449870.26524        26.500           3.594
  18603436.315   -28505376.869 8 -22093386.66623        28.250           2.656
 91  7 24  3  9 44.9940000  0  4G 3G21G17G23
  20591658.885    -1225848.101 6   -955213.43721        15.000           0.719
  21024181.268   -11603751.299 6  -8775483.10621        14.250           0.969
  19225855.002    -9554559.776 7  -7445109.97923        26.750           3.469
  18600026.494   -28523286.026 7 -22107341.85023        27.750           2.563
 91  7 24  3  9 59.9940000  0  4G 3G21G17G23
  20598138.783    -1191789.762 6   -928674.51621        14.500           0.750
  21013353.822   -11660644.366 6  -8819815.29121        14.000           0.938
  19227031.690    -9548375.797 7  -7440291.29024        26.750           3.563
  18596642.580   -28541078.255 8 -22121205.92323        28.250           2.688
 91  7 24  3 10 14.9940000  0  4G 3G21G17G23
  20604640.838    -1157623.199 6   -902051.25221        14.500           0.625
  21002539.986   -11717465.834 6  -8864091.69421        14.250           1.031
  19228222.088    -9542118.847 7  -7435415.75424        26.500           3.563
  18593279.627   -28558755.804 8 -22134980.63323        28.250           2.688
 91  7 24  3 10 29.9940000  0  4G 3G21G17G23
  20611162.908    -1123346.912 6   -875342.48521        14.500           0.625
  20991742.854   -11774214.121 6  -8908311.07321        15.000           0.969
  19229428.080    -9535787.491 7  -7430482.23124        26.500           3.500
  18589936.346   -28576317.203 7 -22148664.82823        27.750           2.563
 91  7 24  3 10 44.9940000  0  4G 3G21G17G23
  20617708.307    -1088958.467 6   -848546.33821        14.250           0.563
  20980958.627   -11830886.363 6  -8952471.18821        14.500           1.000
  19230645.174    -9529379.059 7  -7425488.65024        26.250           3.719
  18586617.986   -28593759.821 8 -22162256.48023        28.250           2.719
 91  7 24  3 10 59.9940000  0  4G 3G21G17G23
  20624272.713    -1054460.428 6   -821664.78621        14.000           0.563
  20970187.244   -11887484.648 6  -8996573.67621        14.250           0.969
  19231879.307    -9522895.692 7  -7420436.67624        26.250           3.500
  18583320.541   -28611085.866 8 -22175757.29423        28.250           2.656
 91  7 24  3 11 14.9940000  0  4G 3G21G17G23
  20630859.322    -1019854.212 6   -794698.94821        14.750           0.594
  20959430.182   -11944010.223 6  -9040619.51621        14.250           1.063
  19233128.033    -9516338.741 7  -7415327.36624        26.000           3.563
  18580045.049   -28628296.905 8 -22189168.48723        28.000           2.656
 91  7 24  3 11 29.9940000  0  4G 3G21G17G23
  20637464.166     -985137.459 6   -767646.96321        14.750           0.594
  20948689.963   -12000460.210 6  -9084606.44821        14.750           1.094
  19234390.994    -9509705.386 7  -7410158.52524        26.000           3.688
  18576792.580   -28645390.326 8 -22202488.03323        28.000           2.594
 91  7 24  3 11 44.9940000  0  4G 3G21G17G23
  20644091.049     -950312.254 6   -740510.47821        14.750           0.656
  20937961.229   -12056836.462 6  -9128535.93321        14.750           1.094
  19235667.010    -9502997.625 7  -7404931.70124        26.000           3.594
  18573562.557   -28662368.163 8 -22215717.51423        28.250           2.531
 91  7 24  3 11 59.9940000  0  4G 3G21G17G23
  20650738.283     -915379.297 6   -713290.03121        14.250           0.719
  20927249.908   -12113139.335 6  -9172408.23821        15.250           1.031
  19236956.619    -9496215.969 7  -7399647.30224        26.250           3.563
  18570351.650   -28679230.796 7 -22228857.22623        27.750           2.656
 91  7 24  3 12 14.9940000  0  4G 3G21G17G23
  20657407.408     -880341.011 6   -685987.52821        14.250           0.719
  20916547.658   -12169370.935 6  -9216225.00421        15.000           1.156
  19238261.721    -9489362.401 7  -7394306.85824        27.000           3.531
  18567165.182   -28695980.758 7 -22241909.13923        27.500           2.625
 91  7 24  3 12 29.9940000  0  4G 3G21G17G23
  20664095.518     -845199.172 6   -658604.32521        14.750           0.656
  20905859.057   -12225532.555 6  -9259987.23321        14.750           0.969
  19239578.291    -9482438.678 7  -7388911.75024        26.500           3.625
  18564000.150   -28712619.603 7 -22254874.46923        27.750           2.563
 91  7 24  3 12 44.9940000  0  4G 3G21G17G23
  20670799.744     -809952.785 6   -631139.65521        14.500           0.719
  20895184.424   -12281622.946 6  -9303693.97321        14.750           1.031
  19240909.057    -9475443.496 7  -7383460.95924        26.250           3.563
  18560854.643   -28729146.070 8 -22267752.22623        28.000           2.719
 91  7 24  3 12 59.9940000  0  4G 3G21G17G23
  20677524.650     -774612.232 6   -603601.60421        14.000           0.625
  20884524.666   -12337652.085 6  -9347352.98221        15.250           1.031
  19242252.604    -9468386.946 7  -7377962.35324        26.500           3.656
  18557728.916   -28745570.408 7 -22280550.40423        27.750           2.625
 91  7 24  3 13 14.9940000  0  4G 3G21G17G23
  20684271.604     -739155.674 6   -575973.17121        14.250           0.688
  20873877.080   -12393598.059 6  -9390947.18921        15.250           1.000
  19243611.307    -9461247.353 7  -7372399.03424        26.250           3.563
  18554626.947   -28761871.037 7 -22293252.18523        27.500           2.625
 91  7 24  3 13 29.9940000  0  4G 3G21G17G23
  20691041.861     -703590.832 6   -548260.36121        14.500           0.594
  20863246.205   -12449468.049 6  -9434482.19021        15.250           1.000
  19244985.354    -9454031.921 7  -7366776.62624        26.500           3.719
  18551547.065   -28778055.175 7 -22305863.19423        27.500           2.656
 91  7 24  3 13 44.9940000  0  4G 3G21G17G23
  20697827.658     -667918.757 6   -520463.97521        14.750           0.594
  20852627.635   -12505262.611 6  -9477958.40721        15.250           1.031
  19246372.307    -9446741.493 7  -7361095.77224        25.750           3.750
  18548489.260   -28794123.797 7 -22318384.19123        27.750           2.594
 91  7 24  3 13 59.9940000  0  4G 3G21G17G23
  20704637.471     -632141.335 6   -492585.52421        14.750           0.594
  20842024.650   -12560983.512 6  -9521377.23321        15.000           1.031
  19247774.408    -9439377.702 7  -7355357.75624        26.000           3.719
  18545453.252   -28810078.764 7 -22330816.62723        27.750           2.563
 91  7 24  3 14 14.9930000  0  4G 3G21G17G23
  20711465.263     -596262.866 6   -464628.31421        14.500           0.656
  20831433.560   -12616628.483 6  -9564736.90621        14.500           1.063
  19249188.536    -9431942.548 7  -7349564.13424        26.000           3.813
  18542438.591   -28825920.553 7 -22343160.86923        27.750           2.500
 91  7 24  3 14 29.9930000  0  4G 3G21G17G23
  20718316.263     -560273.577 6   -436584.75221        15.000           0.688
  20820860.708   -12672199.814 6  -9608039.18321        15.250           0.906
  19250617.536    -9424430.127 7  -7343710.30524        26.000           3.750
  18539446.286   -28841646.472 7 -22355414.82023        27.500           2.531
 91  7 24  3 14 44.9930000  0  4G 3G21G17G23
  20725180.302     -524180.945 6   -408460.67421        14.750           0.719
  20810300.138   -12727698.239 6  -9651284.65021        15.250           1.094
  19252060.966    -9416845.750 7  -7337800.40624        25.750           3.875
  18536474.997   -28857260.223 7 -22367581.37223        27.750           2.563
 91  7 24  3 14 59.9930000  0  4G 3G21G17G23
  20732072.005     -487981.341 6   -380253.23521        15.000           0.656
  20799751.567   -12783119.859 6  -9694470.26521        15.250           1.000
  19253518.232    -9409185.512 7  -7331831.39124        25.250           3.813
  18533526.505   -28872757.997 7 -22379657.54923        27.750           2.563
 91  7 24  3 15 14.9930000  0  4G 3G21G17G23
  20738978.349     -451680.235 6   -351966.71821        14.500           0.563
  20789220.044   -12838469.805 6  -9737600.02821        15.750           1.125
  19254989.357    -9401454.481 7  -7325807.21724        25.250           3.906
  18530597.708   -28888145.369 7 -22391647.69923        27.500           2.594
 91  7 24  3 15 29.9930000  0  4G 3G21G17G23
  20745904.880     -415277.518 6   -323601.01921        14.250           0.563
  20778700.427   -12893747.537 6  -9780673.53821        15.500           1.094
  19256473.732    -9393652.388 7  -7319727.66624        25.250           3.844
  18527690.919   -28903421.902 7 -22403551.48923        27.750           2.594
 91  7 24  3 15 44.9930000  0  4G 3G21G17G23
  20752850.286     -378770.448 6   -295153.98521        13.750           0.719
  20768195.942   -12948950.060 6  -9823688.44121        15.250           1.000
  19257973.474    -9385776.418 7  -7313590.55124        26.000           3.906
  18524805.341   -28918584.978 8 -22415366.86623        28.000           2.563
 91  7 24  3 15 59.9930000  0  4G 3G21G17G23
  20759818.810     -342158.484 6   -266625.24321        14.500           0.625
  20757706.028   -13004076.561 6  -9866644.09821        15.500           1.000
  19259487.763    -9377825.764 7  -7307395.24024        26.500           3.719
  18521940.849   -28933633.610 7 -22427093.06623        27.250           2.594
 91  7 24  3 16 14.9930000  0  4G 3G21G17G23
  20766806.864     -305442.225 6   -238015.22021        14.500           0.625
  20747232.325   -13059127.210 6  -9909540.65921        16.000           1.000
  19261013.427    -9369800.519 7  -7301141.80524        25.750           3.656
  18519097.919   -28948568.280 7 -22438730.46323        27.250           2.688
 91  7 24  3 16 29.9930000  0  4G 3G21G17G23
  20773813.849     -268628.195 6   -209329.01521        14.750           0.563
  20736764.325   -13114108.184 6  -9952382.92821        15.500           1.188
  19262553.114    -9361707.138 7  -7294835.27824        25.750           3.625
  18516278.435   -28963395.425 7 -22450284.07023        27.750           2.563
 91  7 24  3 16 44.9930000  0  4G 3G21G17G23
  20780838.357     -231711.756 6   -180563.01721        14.750           0.531
  20726320.294   -13169014.454 6  -9995166.97921        15.750           1.125
  19264105.067    -9353540.563 7  -7288471.71824        25.000           3.531
  18513478.427   -28978110.374 8 -22461750.25523        28.000           2.656
 91  7 24  3 16 59.9930000  0  4G 3G21G17G23
  20787882.599     -194692.704 6   -151717.05221        14.750           0.531
  20715885.099   -13223845.632 6 -10037892.50721        15.750           1.031
  19265675.247    -9345300.609 7  -7282050.97724        25.750           3.719
  18510698.653   -28992712.881 7 -22473128.82523        27.250           2.625
 91  7 24  3 17 14.9930000  0  4G 3G21G17G23
  20794943.591     -157572.472 6   -122792.22421        14.250           0.469
  20705466.669   -13278602.763 6 -10080560.35821        16.250           1.125
  19267256.872    -9336988.338 7  -7275573.88823        25.500           3.469
  18507940.771   -29007204.055 7 -22484420.64423        27.250           2.750
 91  7 24  3 17 29.9930000  0  4G 3G21G17G23
  20802024.622     -120351.260 6    -93788.72821        12.750           0.594
  20695060.521   -13333285.618 6 -10123170.31821        16.250           1.063
  19268853.536    -9328603.855 7  -7269040.52723        26.250           3.438
  18505204.841   -29021583.988 7 -22495625.77823        27.250           2.781
 91  7 24  3 17 44.9930000  0  4G 3G21G17G23
  20809130.200      -83026.232 6    -64704.35721        13.000           0.500
  20684670.567   -13387890.917 6 -10165719.85821        16.500           1.188
  19270461.458    -9320144.049 7  -7262448.47024        25.500           3.531
  18502489.810   -29035849.750 7 -22506741.94623        27.750           2.750
 91  7 24  3 17 59.9930000  0  4G 3G21G17G23
  20816251.583      -45604.319 6    -35544.47521        13.000           0.500
  20674290.528   -13442425.318 6 -10208214.14621        16.250           1.094
  19272085.396    -9311615.581 7  -7255802.91524        25.750           3.500
  18499797.028   -29050008.045 7 -22517774.37823        27.500           2.750
 91  7 24  3 18 14.9930000  0  4G 3G21G17G23
  20823392.950       -8081.067 6     -6305.63021        14.000           0.469
  20663928.130   -13496884.059 6 -10250649.48221        16.750           1.188
  19273721.021    -9303013.706 7  -7249100.16224        25.000           3.594
  18497122.341   -29064054.540 7 -22528719.69423        27.500           2.688
 91  7 24  3 18 29.9930000  0  4G 3G21G17G23
  20830552.888       29541.905 6     23010.93121        14.000           0.438
  20653580.255   -13551268.394 6 -10293026.85121        16.500           1.188
  19275374.755    -9294339.983 7  -7242341.42224        25.750           3.563
  18494470.325   -29077990.652 7 -22539578.99223        27.500           2.656
 91  7 24  3 18 44.9930000  0  4G 3G21G17G23
  20837730.747       67267.394 6     52407.36521        13.500           0.438
  20643243.700   -13605575.133 6 -10335343.74321        16.500           1.156
  19277036.669    -9285591.134 7  -7235524.13424        25.500           3.656
  18491841.599   -29091813.428 7 -22550349.98023        27.500           2.656
 91  7 24  3 18 59.9930000  0  4G 3G21G17G23
  20844928.466      105092.974 6     81881.79821        12.750           0.375
  20632925.864   -13659806.395 6 -10377601.82121        16.500           1.156
  19278714.083    -9276769.600 7  -7228650.22524        25.750           3.688
  18489231.880   -29105525.007 7 -22561034.32523        27.250           2.750
 91  7 24  3 19 14.9930000  0  4G 3G21G17G23
  20852145.474      143016.319 6    111432.40621        13.000           0.469
  20622619.286   -13713964.115 6 -10419802.59121        16.250           1.156
  19280407.896    -9267877.182 7  -7221721.07324        25.750           3.688
  18486642.208   -29119127.565 7 -22571633.71123        27.250           2.781
 91  7 24  3 19 29.9930000  0  4G 3G21G17G23
  20859381.458      181038.418 6    141059.95521        13.000           0.438
  20612326.763   -13768047.060 6 -10461945.10421        16.500           1.188
  19282112.817    -9258912.935 7  -7214735.95424        25.750           3.563
  18484075.177   -29132620.109 7 -22582147.37223        27.500           2.750
 91  7 24  3 19 44.9930000  0  4G 3G21G17G23
  20866635.419      219157.241 6    170762.87521        13.000           0.438
  20602048.427   -13822056.781 6 -10504030.55521        16.500           1.250
  19283833.450    -9249878.336 7  -7207696.00724        26.000           3.625
  18481528.271   -29146004.451 7 -22592576.72523        27.500           2.781
 91  7 24  3 19 59.9930000  0  4G 3G21G17G23
  20873913.302      257417.444 6    200575.97321        12.250           0.375
  20591795.544   -13875948.219 6 -10546023.84121        17.000           1.188
  19285574.333    -9240728.615 7  -7200566.36023        26.000           3.469
  18479010.607   -29159235.867 7 -22602886.91123        27.250           2.781
 91  7 24  3 20 14.9930000  0  4G 3G21G17G23
  20881214.724      295777.094 6    230466.56821        12.500           0.344
  20581552.466   -13929763.012 6 -10587957.40621        16.500           1.094
  19287329.599    -9231505.409 7  -7193379.44823        25.500           3.438
  18476513.505   -29172356.181 7 -22613110.52423        27.250           2.750
 91  7 24  3 20 29.9930000  0  4G 3G21G17G23
  20888531.747      334235.077 6    260433.77421        12.250           0.531
  20571327.888   -13983502.056 6 -10629831.93521        16.500           1.344
  19289095.771    -9222209.587 7  -7186135.95023        25.250           3.438
  18474036.958   -29185366.395 7 -22623248.34723        27.500           2.750
 91  7 24  3 20 44.9930000  0  4G 3G21G17G23
  20895871.216      372789.157 6    290475.86521        13.000           0.469
  20561115.552   -14037167.128 6 -10671648.84421        16.500           1.250
  19290879.903    -9212843.141 7  -7178837.42423        25.250           3.375
  18471581.864   -29198268.446 7 -22633301.88423        27.500           2.875
 91  7 24  3 20 59.9930000  0  4G 3G21G17G23
  20903223.966      411437.878 6    320591.69121        13.250           0.406
  20550917.669   -14090759.114 6 -10713408.79421        15.750           1.313
  19292675.357    -9203407.016 7  -7171484.60723        25.750           3.344
  18469148.607   -29211063.666 7 -22643272.18323        27.500           2.875
 91  7 24  3 21 14.9930000  0  4G 3G21G17G23
  20910596.232      450185.053 6    350784.25521        13.000           0.594
  20540731.857   -14144273.985 6 -10755108.65121        15.750           1.313
  19294485.278    -9193897.585 7  -7164074.66223        25.500           3.313
  18466733.403   -29223748.296 7 -22653156.30623        27.750           2.844
 91  7 24  3 21 29.9930000  0  4G 3G21G17G23
  20917989.060      489026.627 6    381050.34521        12.750           0.438
  20530564.185   -14197715.464 6 -10796751.32021        16.250           1.313
  19296309.317    -9184318.656 7  -7156610.57123        25.750           3.375
  18464341.060   -29236326.108 7 -22662957.19123        27.750           2.813
 91  7 24  3 21 44.9930000  0  4G 3G21G17G23
  20925397.263      527964.267 6    411391.30721        12.500           0.563
  20520405.989   -14251081.444 6 -10838335.15621        16.000           1.281
  19298145.794    -9174668.305 7  -7149090.81723        25.500           3.438
  18461968.325   -29248795.252 7 -22672673.40423        27.750           2.844
 91  7 24  3 21 59.9930000  0  4G 3G21G17G23
  20932825.091      566996.902 6    441806.30721        12.500           0.469
  20510267.435   -14304372.510 6 -10879860.62021        16.250           1.219
  19299995.583    -9164946.980 7  -7141515.76323        25.500           3.406
  18459614.357   -29261156.702 7 -22682305.70023        27.500           2.781
 91  7 24  3 22 14.9930000  0  4G 3G21G17G23
  20940268.239      606125.487 6    472296.06021        12.000           0.469
  20500139.771   -14357587.748 6 -10921326.99521        15.750           1.219
  19301859.677    -9155153.886 7  -7133884.78223        26.000           3.281
  18457283.747   -29273409.508 7 -22691853.33523        27.750           2.813
 91  7 24  3 22 29.9930000  0  4G 3G21G17G23
  20947735.536      645349.101 6    502859.85921        12.250           0.563
  20490027.583   -14410727.578 6 -10962734.62021        16.000           1.375
  19303736.677    -9145289.195 7  -7126198.01323        25.500           3.281
  18454973.661   -29285554.222 7 -22701316.74323        27.750           2.719
 91  7 24  3 22 44.9930000  0  4G 3G21G17G23
  20955217.567      684668.435 6    533498.24821        12.250           0.500
  20479931.786   -14463790.915 6 -11004082.63121        16.000           1.313
  19305626.333    -9135352.218 7  -7118454.91923        24.750           3.313
  18452682.552   -29297590.195 8 -22710695.41923        28.000           2.750
 91  7 24  3 22 59.9930000  0  4G 3G21G17G23
  20962721.974      724081.825 6    564209.92821        13.500           0.500
  20469848.200   -14516779.057 6 -11045372.05121        16.000           1.219
  19307530.919    -9125344.501 7  -7110656.70123        24.500           3.438
  18450411.958   -29309519.014 8 -22719990.59423        28.250           2.781
 91  7 24  3 23 14.9930000  0  4G 3G21G17G23
  20970237.482      763587.234 6    594993.31221        13.250           0.406
  20459777.278   -14569693.768 6 -11086604.25021        16.250           1.250
  19309449.255    -9115267.776 7  -7102804.71323        24.750           3.438
  18448162.544   -29321342.391 8 -22729203.61023        28.000           2.719
 91  7 24  3 23 29.9930000  0  4G 3G21G17G23
  20977773.435      803184.969 6    625848.63221        12.750           0.500
  20449721.841   -14622534.370 6 -11127778.70921        16.500           1.406
  19311378.841    -9105121.364 7  -7094898.42024        25.250           3.500
  18445932.911   -29333060.016 7 -22738334.22323        27.750           2.875
 91  7 24  3 23 44.9930000  0  4G 3G21G17G23
  20985322.872      842878.180 6    656778.36521        12.000           0.406
  20439681.630   -14675297.397 6 -11168892.70721        16.500           1.375
  19313324.114    -9094901.825 7  -7086935.14623        25.250           3.313
  18443723.755   -29344668.580 7 -22747379.85123        27.750           2.781
 91  7 24  3 23 59.9930000  0  4G 3G21G17G23
  20992898.544      882663.904 6    687780.17421        12.250           0.375
  20429655.208   -14727985.262 6 -11209948.14521        16.750           1.313
  19315284.036    -9084611.875 7  -7078917.00823        25.500           3.250
  18441534.310   -29356170.875 7 -22756342.67623        27.500           2.719
 91  7 24  3 24 14.9930000  0  4G 3G21G17G23
  21000485.513      922541.771 6    718853.76921        12.750           0.469
  20419643.411   -14780597.989 6 -11250945.02321        16.500           1.375
  19317253.755    -9074251.646 7  -7070844.10523        24.750           3.063
  18439365.521   -29367567.195 7 -22765222.91823        27.750           2.781
 91  7 24  3 24 29.9930000  0  4G 3G21G17G23
  21008092.122      962511.333 6    749998.83221        12.750           0.469
  20409645.591   -14833135.702 6 -11291883.45121        16.250           1.344
  19319239.427    -9063821.430 7  -7062716.66423        24.750           3.219
  18437217.896   -29378857.670 8 -22774020.68923        28.000           2.625
 91  7 24  3 24 44.9930000  0  4G 3G21G17G23
  21015714.880     1002575.437 6    781217.57021        12.750           0.469
  20399662.411   -14885595.429 6 -11332761.13021        16.000           1.250
  19321237.622    -9053318.280 7  -7054532.39223        25.250           3.094
  18435090.567   -29390039.393 8 -22782733.71323        28.000           2.688
 91  7 24  3 24 59.9930000  0  4G 3G21G17G23
  21023357.255     1042732.068 6    812508.38621        12.500           0.469
  20389694.950   -14937978.719 6 -11373579.23121        16.500           1.344
  19323249.997    -9042743.730 7  -7046292.48423        25.250           3.313
  18432981.489   -29401114.440 7 -22791363.61323        27.750           2.750
 91  7 24  3 25 14.9930000  0  4G 3G21G17G23
  21031017.130     1082978.659 6    843869.32021        12.500           0.406
  20379741.638   -14990287.535 6 -11414339.30521        16.750           1.281
  19325275.028    -9032100.014 7  -7037998.68323        25.000           3.188
  18430894.153   -29412084.961 7 -22799912.06523        27.500           2.750
 91  7 24  3 25 29.9930000  0  4G 3G21G17G23
  21038691.638     1123316.878 5    875301.64921        11.750           0.406
  20369801.153   -15042520.063 6 -11455039.93421        17.000           1.250
  19327315.013    -9021385.342 7  -7029649.58923        25.250           3.281
  18428827.263   -29422949.443 8 -22808377.89323        28.000           2.656
 91  7 24  3 25 44.9930000  0  4G 3G21G17G23
  21046382.638     1163744.942 6    906803.98121        12.000           0.406
  20359877.653   -15094677.700 6 -11495682.20721        17.250           1.344
  19329365.614    -9010601.307 7  -7021246.45023        25.250           3.250
  18426780.677   -29433709.191 7 -22816762.10623        27.750           2.688
 91  7 24  3 25 59.9930000  0  4G 3G21G17G23
  21054092.622     1204261.245 5    938375.07021        11.500           0.406
  20349966.357   -15146761.775 6 -11536267.15721        17.000           1.313
  19331431.028    -8999749.231 7  -7012790.28523        25.250           3.250
  18424751.380   -29444365.895 8 -22825066.02423        28.000           2.719
 91  7 24  3 26 14.9930000  0  4G 3G21G17G23
  21061823.357     1244870.956 5    970018.95121        11.500           0.313
  20340068.817   -15198766.533 6 -11576790.30821        17.250           1.313
  19333510.841    -8988823.474 7  -7004276.71023        25.250           3.344
  18422744.021   -29454914.072 8 -22833285.37523        28.000           2.688
 91  7 24  3 26 29.9930000  0  4G 3G21G17G23
  21069566.278     1285567.728 5   1001730.66921        11.750           0.344
  20330189.372   -15250697.971 6 -11617256.32121        17.750           1.219
  19335601.466    -8977829.915 7  -6995710.30923        24.500           3.406
  18420757.146   -29465359.799 7 -22841424.90123        27.750           2.688
 91  7 24  3 26 44.9930000  0  4G 3G21G17G23
  21077327.622     1326351.700 6   1033510.33821        12.000           0.406
  20320318.989   -15302555.739 6 -11657664.93021        17.500           1.344
  19337708.161    -8966768.501 7  -6987091.03223        25.000           3.344
  18418787.677   -29475703.039 7 -22849484.56223        27.750           2.625
 91  7 24  3 26 59.9930000  0  4G 3G21G17G23
  21085107.302     1367226.701 5   1065360.93121        11.750           0.406
  20310464.607   -15354335.600 6 -11698012.82621        17.000           1.250
  19339825.388    -8955635.229 7  -6978415.75923        24.750           3.250
  18416840.536   -29485939.956 7 -22857461.38023        27.750           2.656
 91  7 24  3 27 14.9930000  0  4G 3G21G17G23
  21092893.739     1408160.616 5   1097257.44821        11.250           0.375
  20300621.599   -15406069.280 6 -11738324.74821        17.250           1.375
  19341952.302    -8944461.807 7  -6969709.20023        25.250           3.094
  18414907.138   -29496102.544 8 -22865380.27623        28.000           2.750
 91  7 24  3 27 29.9930000  0  4G 3G21G17G23
  21100700.052     1449174.007 5   1129215.88721        11.000           0.438
  20290787.294   -15457735.934 6 -11778584.43721        17.500           1.375
  19344089.466    -8933227.365 7  -6960955.08523        25.000           3.094
  18412991.317   -29506169.975 8 -22873225.02123        28.000           2.750
 91  7 24  3 27 44.9930000  0  4G 3G21G17G23
  21108521.028     1490279.614 5   1161246.17021        10.500           0.438
  20280970.817   -15509322.294 6 -11818781.55521        17.750           1.375
  19346240.825    -8921918.844 7  -6952143.25023        24.750           3.156
  18411096.232   -29516129.193 7 -22880985.44723        27.750           2.750
 91  7 24  3 27 59.9930000  0  4G 3G21G17G23
  21116360.841     1531475.016 5   1193346.43921        11.250           0.344
  20271169.661   -15560830.774 6 -11858917.98821        17.500           1.469
  19348407.255    -8910538.382 7  -6943275.36123        25.250           3.125
  18409220.278   -29525982.722 7 -22888663.51423        27.250           2.656
 91  7 24  3 28 14.9930000  0  4G 3G21G17G23
  21124215.278     1572758.286 6   1225515.18021        12.000           0.313
  20261381.474   -15612262.795 6 -11898994.84621        17.750           1.438
  19350586.536    -8899087.738 7  -6934352.78223        25.250           3.250
  18407364.919   -29535732.420 7 -22896260.67823        27.000           2.719
 91  7 24  3 28 29.9930000  0  4G 3G21G17G23
  21132089.935     1614126.729 5   1257750.29221        11.750           0.406
  20251611.450   -15663620.326 6 -11939013.65821        18.000           1.469
  19352777.427    -8887569.143 7  -6925377.25023        25.000           3.125
  18405529.380   -29545380.428 7 -22903778.60323        27.000           2.719
 91  7 24  3 28 44.9930000  0  4G 3G21G17G23
  21139978.130     1655582.458 5   1290053.41821        11.500           0.438
  20241852.489   -15714901.136 6 -11978972.69021        18.250           1.375
  19354983.536    -8875980.659 7  -6916347.26323        24.750           2.969
  18403714.122   -29554924.774 7 -22911215.75123        27.750           2.625
 91  7 24  3 28 59.9930000  0  4G 3G21G17G23
  21147883.794     1697127.625 5   1322426.21521        11.500           0.563
  20232107.130   -15766102.724 6 -12018869.98321        18.000           1.406
  19357204.044    -8864319.574 7  -6907260.70423        24.500           2.969
  18401916.661   -29564363.234 7 -22918570.38823        27.500           2.563
 91  7 24  3 29 14.9930000  0  4G 3G21G17G23
  21155806.552     1738759.114 5   1354866.28521        10.250           0.469
  20222380.544   -15817227.896 6 -12058707.73021        18.250           1.375
  19359436.005    -8852588.695 7  -6898119.75823        24.250           2.938
  18400140.982   -29573698.439 7 -22925844.56723        27.500           2.656
 91  7 24  3 29 29.9930000  0  4G 3G21G17G23
  21163745.333     1780472.693 5   1387370.31421        11.000           0.469
  20212664.255   -15868280.550 6 -12098488.97821        18.250           1.375
  19361678.732    -8840792.120 7  -6888927.62423        24.000           3.063
  18398382.474   -29582934.718 7 -22933041.66223        27.500           2.594
 91  7 24  3 29 44.9930000  0  4G 3G21G17G23
  21171699.278     1822269.208 5   1419938.97521        11.000           0.344
  20202963.247   -15919259.363 6 -12138212.68321        18.000           1.406
  19363938.794    -8828928.536 7  -6879683.27623        25.250           3.000
  18396643.200   -29592071.011 7 -22940160.84723        26.750           2.688
 91  7 24  3 29 59.9930000  0  4G 3G21G17G23
  21179668.333     1864150.459 5   1452573.67321        11.500           0.438
  20193277.794   -15970162.267 6 -12177877.23222        18.250           1.594
  19366207.778    -8816996.110 7  -6870385.28423        24.750           3.063
  18394924.739   -29601105.511 7 -22947200.71322        26.750           2.469
 91  7 24  3 30 14.9930000  0  4G 3G21G17G23
  21187652.950     1906116.510 5   1485274.44121        11.250           0.406
  20183605.888   -16020988.849 6 -12217482.31821        18.500           1.438
  19368492.567    -8804994.725 7  -6861033.56123        24.750           3.125
  18393224.513   -29610037.847 7 -22954160.97423        26.750           2.594
 91  7 24  3 30 29.9930000  0  4G 3G21G17G23
  21195651.935     1948166.515 5   1518040.62421        10.750           0.344
  20173948.036   -16071739.514 6 -12257028.24821        18.250           1.375
  19370788.474    -8792924.616 7  -6851628.28623        24.250           3.281
  18391545.161   -29618868.960 7 -22961042.35623        27.500           2.531
 91  7 24  3 30 44.9930000  0  4G 3G21G17G23
  21203677.919     1990299.154 5   1550871.20921        11.000           0.406
  20164305.513   -16122415.079 6 -12296515.65721        18.500           1.344
  19373098.075    -8780786.616 7  -6842170.10623        24.750           3.188
  18389883.122   -29627599.876 7 -22967845.65823        27.250           2.563
 91  7 24  3 30 59.9930000  0  4G 3G21G17G23
  21211706.958     2032515.838 5   1583767.25721        11.000           0.313
  20154674.903   -16173013.901 6 -12335943.27221        18.250           1.406
  19375422.146    -8768579.245 7  -6832657.87523        25.250           3.281
  18388241.536   -29636229.007 7 -22974569.65323        27.000           2.594
 91  7 24  3 31 14.9930000  0  4G 3G21G17G23
  21219757.778     2074817.326 5   1616729.40021        10.750           0.344
  20145061.786   -16223534.989 6 -12375310.30821        18.500           1.313
  19377758.450    -8756301.616 7  -6823090.89623        25.500           3.344
  18386618.708   -29644755.654 7 -22981213.78523        26.500           2.563
 91  7 24  3 31 29.9930000  0  4G 3G21G17G23
  21227823.747     2117197.837 5   1649753.11521        10.750           0.281
  20135460.630   -16273983.549 6 -12414620.83521        18.500           1.406
  19380106.700    -8743959.226 7  -6813473.45423        25.250           3.344
  18385013.857   -29653185.403 7 -22987782.41923        26.500           2.531
 91  7 24  3 31 44.9930000  0  4G 3G21G17G23
  21235900.528     2159660.972 5   1682841.21921        10.000           0.281
  20125875.341   -16324355.613 6 -12453871.74321        19.000           1.406
  19382467.388    -8731547.918 7  -6803802.31223        25.000           3.375
  18383429.935   -29661514.413 7 -22994272.55223        26.500           2.531
 91  7 24  3 31 59.9930000  0  4G 3G21G17G23
  21243998.567     2202204.304 5   1715991.82021        10.250           0.438
  20116305.099   -16374653.276 6 -12493064.69221        19.000           1.406
  19384841.763    -8719069.929 7  -6794079.20923        24.750           3.250
  18381862.974   -29669744.909 7 -23000685.92323        26.750           2.563
 91  7 24  3 32 14.9930000  0  4G 3G21G17G23
  21252108.239     2244827.162 5   1749204.39721        10.250           0.375
  20106747.013   -16424877.097 6 -12532200.10021        19.250           1.375
  19387230.208    -8706525.796 7  -6784304.56923        25.250           3.188
  18380315.763   -29677877.555 7 -23007023.04223        26.750           2.594
 91  7 24  3 32 29.9930000  0  4G 3G21G17G23
  21260235.544     2287531.273 5   1782480.26321         9.500           0.313
  20097202.591   -16475024.591 6 -12571276.02721        19.000           1.344
  19389628.849    -8693913.570 7  -6774476.86323        25.000           3.000
  18378787.794   -29685910.249 7 -23013282.28123        27.000           2.656
 91  7 24  3 32 44.9930000  0  4G 3G21G17G23
  21268376.849     2330318.840 5   1815821.16021         9.750           0.344
  20087678.630   -16525093.430 6 -12610290.66821        19.250           1.469
  19392043.575    -8681230.640 7  -6764594.06123        24.750           3.125
  18377278.411   -29693840.812 7 -23019461.93723        26.750           2.719
 91  7 24  3 32 59.9930000  0  4G 3G21G17G23
  21276534.661     2373184.737 5   1849223.09221        10.000           0.344
  20078164.575   -16575088.252 6 -12649247.63121        19.500           1.438
  19394468.763    -8668481.572 7  -6754659.72923        24.500           2.969
  18375789.208   -29701674.014 7 -23025565.72723        27.000           2.750
 91  7 24  3 33 14.9930000  0  4G 3G21G17G23
  21284707.810     2416128.862 5   1882686.01621         9.750           0.313
  20068664.013   -16625008.991 6 -12688146.87022        19.250           1.594
  19396906.880    -8655666.665 7  -6744674.09223        24.500           3.063
  18374314.739   -29709410.065 7 -23031593.81823        26.750           2.656
 91  7 24  3 33 29.9930000  0  4G 3G21G17G23
  21292894.146     2459156.118 5   1916213.68021        10.000           0.375
  20059177.888   -16674850.201 6 -12726984.14121        18.750           1.469
  19399361.880    -8642780.362 7  -6734632.81823        24.750           3.000
  18372862.138   -29717043.788 7 -23037542.16923        26.750           2.500
 91  7 24  3 33 44.9930000  0  4G 3G21G17G23
  21301099.349     2502262.371 5   1949802.90521        10.250           0.250
  20049710.060   -16724615.702 6 -12765762.41322        19.000           1.531
  19401826.161    -8629826.681 7  -6724539.04623        24.500           2.938
  18371428.880   -29724579.220 7 -23043413.93123        27.000           2.563
 91  7 24  3 33 59.9930000  0  4G 3G21G17G23
  21309313.536     2545444.737 5   1983451.44021        10.250           0.375
  20040253.216   -16774308.048 6 -12804483.68722        19.250           1.563
  19404302.638    -8616808.342 7  -6714394.89623        24.250           2.844
  18370012.880   -29732019.189 7 -23049211.30723        26.750           2.500
 91  7 24  3 34 14.9930000  0  4G 3G21G17G23
  21317546.122     2588706.537 5   2017161.88021        10.250           0.250
  20030813.310   -16823923.484 6 -12843145.02521        19.500           1.469
  19406792.966    -8603721.565 7  -6704197.41523        24.000           2.875
  18368616.005   -29739360.067 7 -23054931.46723        27.000           2.625
 91  7 24  3 34 29.9930000  0  4G 3G21G17G23
  21325797.724     2632046.859 5   2050933.51721        10.250           0.281
  20021383.903   -16873462.593 6 -12881746.89221        19.250           1.469
  19409295.833    -8590567.189 7  -6693947.25623        24.500           2.844
  18367237.419   -29746602.583 7 -23060574.98623        26.750           2.625
 91  7 24  3 34 44.9930000  0  4G 3G21G17G23
  21334058.263     2675464.971 5   2084765.74321        10.250           0.219
  20011971.732   -16922925.900 6 -12920289.69121        19.250           1.406
  19411811.591    -8577345.482 7  -6683644.63523        24.500           3.000
  18365878.763   -29753747.531 7 -23066142.47723        26.750           2.500
 91  7 24  3 34 59.9930000  0  4G 3G21G17G23
  21342336.482     2718961.241 5   2118658.87421        10.000           0.250
  20002573.630   -16972312.377 6 -12958772.62522        19.250           1.500
  19414339.146    -8564055.662 7  -6673288.93923        24.750           3.063
  18364538.661   -29760794.143 7 -23071633.34023        27.000           2.531
 91  7 24  3 35 14.9930000  0  4G 3G21G17G23
  21350621.591     2762532.928 5   2152610.78421         9.750           0.281
  19993191.489   -17021624.589 6 -12997197.68622        19.250           1.500
  19416882.247    -8550700.502 7  -6662882.32223        24.750           2.906
  18363215.021   -29767745.253 7 -23077049.78323        27.000           2.625
 91  7 24  3 35 29.9930000  0  4G 3G21G17G23
  21358932.841     2806180.696 5   2186621.97521         9.750           0.344
  19983822.567   -17070861.518 6 -13035564.08422        19.250           1.594
  19419436.927    -8537279.032 7  -6652424.03923        24.500           2.906
  18361910.271   -29774599.837 7 -23082391.01723        27.000           2.688
 91  7 24  3 35 44.9930000  0  4G 3G21G17G23
  21367253.060     2849907.446 5   2220694.71521        10.000           0.156
  19974467.075   -17120019.974 6 -13073869.33022        19.000           1.625
  19422003.192    -8523787.871 7  -6641911.45023        24.500           3.156
  18360625.489   -29781355.054 7 -23087654.82023        27.250           2.594
 91  7 24  3 35 59.9930000  0  4G 3G21G17G23
  21375585.380     2893708.151 5   2254825.10121        10.250           0.188
  19965125.099   -17169104.457 6 -13112116.94922        19.000           1.563
  19424583.333    -8510231.901 7  -6631348.36923        24.750           3.094
  18359356.864   -29788015.912 7 -23092845.09223        26.750           2.688
 91  7 24  3 36 14.9930000  0  4G 3G21G17G23
  21383935.560     2937582.313 5   2289012.69021        10.000           0.313
  19955799.388   -17218115.090 6 -13150307.01322        19.000           1.563
  19427175.411    -8496611.340 7  -6620734.95223        25.000           3.094
  18358107.458   -29794582.604 7 -23097961.99523        27.000           2.594
 91  7 24  3 36 29.9930000  0  4G 3G21G17G23
  21392298.942     2981533.018 5   2323259.93021        10.250           0.344
  19946487.114   -17267048.340 6 -13188436.78322        18.750           1.656
  19429779.966    -8482922.684 7  -6610068.47123        25.000           3.156
  18356876.950   -29801051.947 7 -23103003.03723        27.000           2.625
 91  7 24  3 36 44.9930000  0  4G 3G21G17G23
  21400679.653     3025556.303 5   2357563.73221        10.500           0.375
  19937190.528   -17315907.908 6 -13226509.13722        19.250           1.719
  19432396.185    -8469169.731 7  -6599351.89023        24.250           3.000
  18355664.857   -29807427.525 7 -23107971.02023        27.250           2.563
 91  7 24  3 36 59.9930000  0  4G 3G21G17G23
  21409069.935     3069658.236 5   2391928.81621        10.000           0.250
  19927906.427   -17364687.412 6 -13264519.10522        18.750           1.625
  19435027.677    -8455345.908 7  -6588580.08623        24.500           2.938
  18354469.489   -29813703.252 7 -23112861.19123        27.500           2.563
 91  7 24  3 37 14.9930000  0  4G 3G21G17G23
  21417478.677     3113834.272 5   2426351.65421        10.500           0.313
  19918638.130   -17413390.971 6 -13302469.89022        18.750           1.625
  19437670.614    -8441455.665 7  -6577756.52723        24.000           2.906
  18353293.083   -29819883.581 7 -23117677.02823        27.500           2.625
 91  7 24  3 37 29.9930000  0  4G 3G21G17G23
  21425893.567     3158083.361 5   2460831.39021        10.000           0.250
  19909386.122   -17462019.255 6 -13340362.03222        19.000           1.781
  19440327.271    -8427499.825 7  -6566881.86123        24.500           2.969
  18352134.903   -29825969.465 7 -23122419.27123        27.000           2.688
 91  7 24  3 37 44.9930000  0  4G 3G21G17G23
  21434330.114     3202401.206 5   2495364.74621        10.000           0.219
  19900145.849   -17510576.026 6 -13378198.43922        19.250           1.531
  19442992.505    -8413482.408 7  -6555959.20823        24.500           2.875
  18350995.497   -29831964.831 7 -23127090.98523        27.000           2.656
 91  7 24  3 37 59.9930000  0  4G 3G21G17G23
  21442776.013     3246794.064 5   2529956.49421         9.500           0.281
  19890920.911   -17559054.739 6 -13415974.02622        19.750           1.688
  19445674.271    -8399396.711 7  -6544983.33723        24.500           2.781
  18349873.099   -29837863.337 7 -23131687.22023        27.250           2.750
 91  7 24  3 38 14.9930000  0  4G 3G21G17G23
  21451239.700     3291265.305 5   2564609.38821         9.250           0.281
  19881710.380   -17607451.972 6 -13453686.11522        19.500           1.688
  19448368.192    -8385239.079 7  -6533951.42023        24.500           2.813
  18348768.325   -29843661.749 7 -23136205.46323        27.250           2.688
 91  7 24  3 38 29.9930000  0  4G 3G21G17G23
  21459715.107     3335810.480 5   2599319.84421         9.250           0.281
  19872515.427   -17655771.688 6 -13491337.80322        19.250           1.719
  19451076.075    -8371013.736 7  -6522866.74823        24.250           2.719
  18347683.411   -29849364.124 7 -23140648.87023        27.500           2.813
 91  7 24  3 38 44.9930000  0  4G 3G21G17G23
  21468206.974     3380426.109 5   2634085.22521         9.250           0.250
  19863334.857   -17704016.902 6 -13528931.44622        19.500           1.563
  19453794.552    -8356723.965 7  -6511731.86723        23.750           2.844
  18346616.528   -29854973.552 7 -23145019.84323        27.500           2.688
 91  7 24  3 38 59.9930000  0  4G 3G21G17G23
  21476713.044     3425118.924 5   2668910.72021         9.500           0.375
  19854168.786   -17752180.586 6 -13566461.54922        19.500           1.750
  19456528.942    -8342362.687 7  -6500541.26823        24.000           2.813
  18345567.130   -29860483.357 7 -23149313.19623        27.750           2.656
 91  7 24  3 39 14.9930000  0  4G 3G21G17G23
  21485229.419     3469884.750 5   2703793.11921         9.500           0.313
  19845019.388   -17800266.566 6 -13603931.10422        19.500           1.750
  19459274.974    -8327933.766 7  -6489297.95723        24.000           2.719
  18344536.692   -29865897.710 7 -23153532.16823        27.250           2.781
 91  7 24  3 39 29.9930000  0  4G 3G21G17G23
  21493763.114     3514721.876 5   2738731.08821         9.500           0.219
  19835881.880   -17848276.001 6 -13641341.01422        19.000           1.656
  19462032.888    -8313438.654 7  -6478003.07123        24.000           2.656
  18343524.927   -29871218.240 7 -23157678.03223        27.250           2.781
 91  7 24  3 39 44.9930000  0  4G 3G21G17G23
  21502310.599     3559633.001 5   2773726.71221         9.000           0.375
  19826762.419   -17896205.928 6 -13678688.96722        19.000           1.750
  19464803.458    -8298874.395 7  -6466654.30823        24.000           2.688
  18342529.810   -29876441.985 7 -23161748.47623        27.250           2.938
 91  7 24  3 39 59.9930000  0  4G 3G21G17G23
  21510868.599     3604613.047 5   2808776.05121         8.750           0.313
  19817655.864   -17944060.954 6 -13715978.56322        19.500           1.719
  19467585.966    -8284245.829 7  -6455255.43423        23.250           2.594
  18341554.927   -29881573.660 7 -23165747.18123        27.500           2.844
 91  7 24  3 40 14.9930000  0  4G 3G21G17G23
  21519442.794     3649664.220 5   2843880.78321         8.500           0.344
  19808562.989   -17991838.589 6 -13753207.84422        19.500           1.781
  19470384.239    -8269550.227 7  -6443804.31723        23.750           2.594
  18340596.497   -29886610.969 7 -23169672.35623        27.000           2.875
 91  7 24  3 40 29.9930000  0  4G 3G21G17G23
  21528024.911     3694786.134 5   2879040.65621         7.750           0.188
  19799488.263   -18039538.953 6 -13790376.92322        19.750           1.781
  19473193.864    -8254787.700 7  -6432301.05623        24.250           2.625
  18339655.005   -29891554.322 7 -23173524.31723        27.000           2.938
 91  7 24  3 40 44.9930000  0  4G 3G21G17G23
  21536628.138     3739974.911 5   2914252.63221         8.500           0.313
  19790424.482   -18087165.542 6 -13827488.51222        19.500           1.781
  19476013.310    -8239962.067 7  -6420748.63123        23.750           2.594
  18338731.107   -29896407.403 7 -23177305.93423        27.500           2.906
 91  7 24  3 40 59.9930000  0  4G 3G21G17G23
  21545241.599     3785232.282 5   2949518.05521         9.000           0.313
  19781374.857   -18134716.142 6 -13864540.88722        19.000           1.813
  19478847.388    -8225071.086 7  -6409145.27623        23.500           2.719
  18337825.896   -29901168.439 7 -23181015.82923        27.500           2.938
 91  7 24  3 41 14.9930000  0  5G 3G21G17G11G23
  21553864.052     3830557.551 5   2984836.39421         9.000           0.281
  19772340.700   -18182191.274 6 -13901534.45622        19.000           1.750
  19481692.849    -8210115.457 7  -6397491.54723        23.500           2.500
  22559624.341      -68538.033 5                         8.250
  18336936.208   -29905837.915 7 -23184654.37823        27.250           2.938
 91  7 24  3 41 29.9930000  0  5G 3G21G17G11G23
  21562505.802     3875955.219 5   3020211.13321         9.000           0.281
  19763320.864   -18229585.963 6 -13938465.34422        19.000           1.813
  19484553.216    -8195090.107 7  -6385783.48923        24.000           2.563
  22546590.982     -137055.956 5                         8.750
  18336067.161   -29910411.188 7 -23188217.96423        27.250           2.906
 91  7 24  3 41 44.9930000  0  5G 3G21G17G11G23
  21571156.482     3921419.287 5   3055637.62621         9.250           0.344
  19754316.552   -18276905.733 6 -13975337.85322        19.250           1.781
  19487424.966    -8180000.945 7  -6374025.71423        23.750           2.594
  22533554.458     -205559.732 5                         8.750
  18335213.411   -29914893.914 7 -23191710.99223        27.250           2.969
 91  7 24  3 41 59.9930000  0  5G 3G21G17G11G23
  21579819.755     3966952.199 5   3091117.75521         9.250           0.281
  19745327.458   -18324147.803 6 -14012149.81422        19.500           1.813
  19490306.724    -8164845.085 7  -6362215.96123        23.250           2.688
  22520524.661     -274046.227 5                         8.750
  18334378.247   -29919283.471 7 -23195131.42423        27.250           3.000
 91  7 24  3 42 14.9930000  0  5G 3G21G17G11G23
  21588498.247     4012548.758 5   3126647.46421         9.000           0.250
  19736350.192   -18371317.144 6 -14048905.09722        19.250           1.688
  19493203.864    -8149627.511 7  -6350358.12323        23.500           2.625
  22507492.435     -342520.303 5                         8.750
  18333559.544   -29923585.198 7 -23198483.41323        27.000           2.906
 91  7 24  3 42 29.9930000  0  5G 3G21G17G11G23
  21597182.622     4058208.053 5   3162226.10021         9.250           0.281
  19727390.122   -18418414.190 6 -14085604.05422        19.500           1.781
  19496113.083    -8134348.731 7  -6338452.59023        23.750           2.563
  22494464.638     -410982.073 5        -0.40931         8.750           0.250
  18332756.474   -29927799.781 7 -23201767.50423        27.000           2.969
 91  7 24  3 42 44.9930000  0  5G 3G21G17G11G23
  21605887.880     4103941.010 5   3197862.10721         9.250           0.250
  19718441.466   -18465427.633 6 -14122237.86222        19.250           1.750
  19499033.325    -8118997.650 7  -6326490.72223        23.250           2.531
  22481441.278     -479419.893 5    -53328.54021         9.250           0.344
  18331975.489   -29931916.106 7 -23204975.02623        27.250           3.031
 91  7 24  3 42 59.9930000  0  5G 3G21G17G11G23
  21614605.052     4149737.707 5   3233547.77621        10.000           0.219
  19709509.474   -18512367.229 6 -14158814.12422        19.500           1.781
  19501965.591    -8103583.925 7  -6314480.04023        22.750           2.563
  22468421.903     -547843.106 5   -106645.78021         9.250           0.438
  18331208.232   -29935943.846 7 -23208113.52623        27.250           3.031
 91  7 24  3 43 14.9930000  0  5G 3G21G17G11G23
  21623328.685     4195597.341 5   3269282.50521         9.000           0.313
  19700591.622   -18559233.178 6 -14195333.00222        19.250           1.688
  19504912.341    -8088107.798 7  -6302420.73323        23.250           2.594
  22455405.442     -616251.893 5   -159951.29221         9.250           0.313
  18330457.489   -29939883.644 7 -23211183.49723        27.250           2.969
 91  7 24  3 43 29.9930000  0  5G 3G21G17G11G23
  21632070.794     4241525.613 5   3305070.71021         9.000           0.125
  19691686.567   -18606019.572 6 -14231789.89622        18.750           1.844
  19507869.310    -8072563.424 7  -6290308.24522        23.750           2.438
  22442393.107     -684640.165 5   -213241.30121         9.500           0.344
  18329727.685   -29943729.889 7 -23214180.56423        27.500           3.063
 91  7 24  3 43 44.9920000  0  5G 3G21G17G11G23
  21640820.555     4287518.382 5   3340909.16221         8.750           0.219
  19682802.149   -18652723.916 6 -14268182.85322        19.250           1.844
  19510842.375    -8056952.767 7  -6278144.10322        24.000           2.469
  22429383.297     -753003.579 5   -266511.46221         9.500           0.344
  18329012.320   -29947483.079 7 -23217105.12623        27.000           3.063
 91  7 24  3 43 59.9920000  0  5G 3G21G17G11G23
  21649588.899     4333579.890 5   3376801.19121         8.250           0.313
  19673926.813   -18699354.013 6 -14304517.94822        19.500           1.750
  19513823.414    -8041275.181 7  -6265927.81223        23.750           2.531
  22416373.938     -821352.500 5   -319770.30421         9.500           0.313
  18328316.039   -29951145.327 7 -23219958.82123        26.750           2.969
 91  7 24  3 44 14.9920000  0  5G 3G21G17G11G23
  21658366.484     4379708.460 5   3412745.46521         8.750           0.125
  19665069.750   -18745905.034 6 -14340791.42722        19.750           1.875
  19516819.938    -8025530.143 7  -6253658.96023        23.250           2.500
  22403370.133     -889680.443 5   -373012.82021         9.250           0.344
  18327635.375   -29954715.030 7 -23222740.40823        26.750           2.875
 91  7 24  3 44 29.9920000  0  5G 3G21G17G11G23
  21667157.234     4425901.320 5   3448739.83721         8.250           0.188
  19656224.422   -18792379.088 6 -14377004.92922        19.500           1.844
  19519826.945    -8009719.926 7  -6241339.32023        23.500           2.563
  22390370.938     -957989.311 5   -426240.48221         9.000           0.406
  18326973.680   -29958194.455 7 -23225451.64423        27.000           2.969
 91  7 24  3 44 44.9920000  0  5G 3G21G17G11G23
  21675956.906     4472155.998 5   3484782.37321         9.000           0.125
  19647396.242   -18838778.502 6 -14413160.27522        19.750           1.906
  19522849.086    -7993846.912 7  -6228970.74323        23.750           2.563
  22377374.922    -1026281.177 5   -479454.87121         8.750           0.344
  18326328.805   -29961586.325 7 -23228094.65523        26.750           2.969
 91  7 24  3 44 59.9920000  0  5G 3G21G17G11G23
  21684772.344     4518466.702 5   3520868.56821         8.750           0.281
  19638579.531   -18885108.690 7 -14449261.68222        20.000           1.938
  19525881.102    -7977916.629 7  -6216557.54423        24.000           2.656
  22364383.266    -1094561.138 5   -532659.99821         8.500           0.375
  18325697.899   -29964896.294 7 -23230673.84723        26.500           2.969
 91  7 24  3 45 14.9920000  0  5G 3G21G17G11G23
  21693595.766     4564850.354 5   3557011.61721         8.250           0.188
  19629779.992   -18931352.357 7 -14485295.67222        20.000           1.844
  19528926.164    -7961911.685 7  -6204086.16923        23.500           2.688
  22351396.899    -1162811.527 5   -585842.06721         8.750           0.438
  18325087.969   -29968107.215 7 -23233175.86023        26.750           2.969
 91  7 24  3 45 29.9920000  0  5G 3G21G17G11G23
  21702435.563     4611296.819 5   3593203.63021         8.250           0.094
  19620994.703   -18977519.191 7 -14521269.78222        20.250           1.875
  19531982.016    -7945841.845 7  -6191564.22723        23.000           2.625
  22338408.563    -1231041.871 5   -639008.52621         8.500           0.313
  18324493.984   -29971228.968 7 -23235608.39423        26.750           2.969
 91  7 24  3 45 44.9920000  0  5G 3G21G17G11G23
  21711284.359     4657807.863 5   3629445.92121         7.500           0.188
  19612226.070   -19023607.371 7 -14557182.61022        20.250           1.875
  19535054.953    -7929705.476 7  -6178990.44923        23.750           2.656
  22325430.617    -1299250.058 5   -692157.69921         7.750           0.438
  18323916.469   -29974259.881 7 -23237970.13823        26.500           3.000
 91  7 24  3 45 59.9920000  0  5G 3G21G17G11G23
  21720150.984     4704382.243 5   3665737.58821         8.000           0.219
  19603468.524   -19069617.577 7 -14593034.67822        20.000           1.813
  19538138.227    -7913503.150 7  -6166365.26923        23.750           2.844
  22312454.258    -1367436.417 5   -745289.88621         8.000           0.250
  18323357.336   -29977200.787 7 -23240261.75323        26.500           2.906
 91  7 24  3 46 14.9920000  0  5G 3G21G17G11G23
  21729024.305     4751005.598 5   3702067.39721         7.500           0.344
  19594725.211   -19115563.797 7 -14628836.88922        20.250           1.875
  19541230.852    -7897249.111 7  -6153699.79523        23.500           2.750
  22299477.328    -1435614.736 5   -798415.81621         7.750           0.375
  18322811.656   -29980065.945 7 -23242494.34523        26.750           3.000
 91  7 24  3 46 29.9920000  0  5G 3G21G17G11G23
  21737905.125     4797685.794 4   3738441.50421         7.250           0.219
  19585995.375   -19161437.769 7 -14664582.81122        20.500           1.750
  19544334.500    -7880935.105 7  -6140987.59623        23.500           2.688
  22286509.930    -1503776.546 5   -851529.34221         8.500           0.344
  18322283.477   -29982847.349 7 -23244661.66923        26.500           3.031
 91  7 24  3 46 44.9920000  0  5G 3G21G17G11G23
  21746803.703     4844439.192 4   3774872.66121         7.250           0.188
  19577282.352   -19207222.708 7 -14700259.34922        20.500           1.906
  19547453.703    -7864544.441 7  -6128215.65423        23.250           2.594
  22273542.000    -1571904.736 5   -904616.20221         8.500           0.344
  18321772.945   -29985528.397 7 -23246750.79623        26.750           2.938
 91  7 24  3 46 59.9920000  0  5G 3G21G17G11G23
  21755712.641     4891262.735 4   3811358.42321         7.000           0.156
  19568586.774   -19252921.519 7 -14735868.77222        20.500           1.906
  19550587.992    -7848080.073 7  -6115386.28523        23.250           2.531
  22260589.836    -1640001.760 5   -957678.77121         9.250           0.531
  18321279.781   -29988112.164 7 -23248764.11523        26.500           3.125
 91  7 24  3 47 14.9920000  0  5G 3G21G17G11G23
  21764631.836     4938143.833 5   3847889.08421         7.500           0.281
  19559904.016   -19298546.369 7 -14771420.56722        20.250           1.875
  19553731.492    -7831554.152 7  -6102508.95023        23.250           2.594
  22247635.117    -1708079.592 5  -1010726.40121         9.500           0.375
  18320804.883   -29990611.105 7 -23250711.33923        26.750           3.000
 91  7 24  3 47 29.9920000  0  5G 3G21G17G11G23
  21773565.977     4985085.499 5   3884466.94621         7.500           0.281
  19551236.820   -19344093.655 7 -14806911.92122        20.250           1.938
  19556889.406    -7814963.181 7  -6089580.93223        23.000           2.563
  22234685.359    -1776134.343 5  -1063756.01221         9.750           0.469
  18320346.930   -29993021.876 7 -23252589.85923        26.500           2.844
 91  7 24  3 47 44.9920000  0  5G 3G21G17G11G23
  21782511.242     5032090.219 5   3921093.89621         7.500           0.250
  19542586.086   -19389560.657 7 -14842340.72122        20.500           1.875
  19560059.555    -7798304.658 7  -6076600.26623        23.000           2.563
  22221739.641    -1844163.135 5  -1116765.41421        10.000           0.500
  18319904.383   -29995341.912 7 -23254397.67523        26.250           2.938
 91  7 24  3 47 59.9920000  0  5G 3G21G17G11G23
  21791468.289     5079154.140 5   3957767.01621         8.250           0.188
  19533946.602   -19434950.866 7 -14877709.67922        20.500           1.844
  19563240.938    -7781582.053 7  -6063569.66723        23.000           2.531
  22208791.539    -1912169.072 5  -1169757.00721         9.750           0.375
  18319480.070   -29997574.894 7 -23256137.65623        26.500           3.031
 91  7 24  3 48 14.9920000  0  5G 3G21G17G11G23
  21800430.594     5126278.050 5   3994486.88121         8.000           0.250
  19525325.336   -19480263.248 7 -14913017.99222        20.750           1.938
  19566436.297    -7764794.254 7  -6050488.27123        22.750           2.531
  22195859.156    -1980150.784 5  -1222730.21021         9.750           0.500
  18319072.625   -29999720.060 7 -23257809.21123        26.750           3.063
 91  7 24  3 48 29.9920000  0  5G 3G21G17G11G23
  21809409.672     5173459.004 4   4031251.17921         6.750           0.344
  19516716.242   -19525500.215 7 -14948267.54022        20.750           1.844
  19569643.883    -7747944.065 7  -6037358.26022        23.000           2.469
  22182920.969    -2048110.603 5  -1275685.87221         9.250           0.406
  18318679.961   -30001780.019 7 -23259414.37223        27.000           3.094
 91  7 24  3 48 44.9920000  0  5G 3G21G17G11G23
  21818400.070     5220700.433 4   4068062.58921         7.250           0.219
  19508124.820   -19570657.973 7 -14983455.36622        21.000           1.875
  19572861.789    -7731027.630 7  -6024176.62722        22.750           2.469
  22169998.531    -2116044.306 5  -1328621.67821        10.000           0.406
  18318303.180   -30003751.048 7 -23260950.23623        26.250           3.031
 91  7 24  3 48 59.9920000  0  5G 3G21G17G11G23
  21827403.008     5267999.074 5   4104918.62921         7.500           0.125
  19499543.281   -19615739.561 7 -15018583.84022        20.750           1.969
  19576091.969    -7714048.049 7  -6010945.79222        22.250           2.469
  22157082.149    -2183954.602 5  -1381538.74821        10.500           0.406
  18317947.891   -30005636.550 7 -23262419.45723        26.750           3.000
 91  7 24  3 49 14.9920000  0  5G 3G21G17G11G23
  21836412.305     5315353.640 5   4141818.19821         7.750           0.219
  19490979.399   -19660745.825 7 -15053653.61622        21.000           1.938
  19579335.742    -7697006.169 7  -5997666.40723        22.750           2.500
  22144162.008    -2251842.132 5  -1434438.06821        10.750           0.438
  18317603.305   -30007437.451 7 -23263822.75323        26.250           3.031
 91  7 24  3 49 29.9920000  0  5G 3G21G17G11G23
  21845436.070     5362765.068 5   4178762.09121         8.000           0.156
  19482430.094   -19705675.411 7 -15088663.64922        21.500           2.000
  19582591.297    -7679900.488 7  -5984337.30923        22.750           2.500
  22131248.383    -2319705.251 5  -1487318.37021        10.500           0.438
  18317276.070   -30009152.680 7 -23265159.29423        26.000           3.000
 91  7 24  3 49 44.9920000  0  5G 3G21G17G11G23
  21854471.977     5410233.987 5   4215750.81221         8.250           0.188
  19473895.899   -19750527.344 7 -15123613.17122        21.500           2.000
  19585858.719    -7662730.243 7  -5970957.89522        23.000           2.406
  22118332.852    -2387542.800 5  -1540178.75221         9.750           0.438
  18316967.180   -30010781.401 7 -23266428.42623        26.000           3.063
 91  7 24  3 49 59.9920000  0  5G 3G21G17G11G23
  21863513.531     5457760.467 5   4252784.37921         8.250           0.188
  19465375.797   -19795301.242 7 -15158501.89622        21.500           2.125
  19589138.320    -7645495.376 7  -5957528.13222        23.250           2.438
  22105429.750    -2455354.012 5  -1593018.61721         9.750           0.406
  18316673.055   -30012323.538 7 -23267630.09023        26.000           2.969
 91  7 24  3 50 14.9920000  0  5G 3G21G17G11G23
  21872571.141     5505341.919 5   4289860.76021         8.250           0.156
  19456870.399   -19839999.140 7 -15193331.39622        21.000           1.969
  19592430.039    -7628197.980 7  -5944049.64322        23.250           2.344
  22092531.492    -2523140.609 5  -1645839.29921         9.750           0.438
  18316395.524   -30013781.355 7 -23268766.04823        26.000           2.906
 91  7 24  3 50 29.9920000  0  5G 3G21G17G11G23
  21881629.766     5552969.176 5   4326972.75521         8.500           0.094
  19448376.922   -19884630.050 7 -15228108.69422        21.000           2.000
  19595731.406    -7610846.935 7  -5930529.35022        23.000           2.313
  22079636.102    -2590911.270 5  -1698647.55321         9.750           0.313
  18316133.328   -30015164.096 7 -23269843.51023        26.250           3.000
 91  7 24  3 50 44.9920000  0  5G 3G21G17G11G23
  21890702.781     5600640.074 5   4364118.88921         9.000           0.156
  19439895.539   -19929195.783 7 -15262835.21122        21.250           1.938
  19599044.641    -7593444.079 7  -5916968.68222        23.000           2.375
  22066747.219    -2658667.546 5  -1751444.61721        10.000           0.344
  18315884.070   -30016473.783 7 -23270864.04023        26.250           3.063
 91  7 24  3 50 59.9920000  0  5G 3G21G17G11G23
  21899784.797     5648363.638 5   4401306.05921         8.500           0.094
  19431427.547   -19973686.643 7 -15297503.38322        21.500           1.938
  19602366.336    -7575979.854 7  -5903360.20022        22.750           2.344
  22053855.992    -2726399.517 5  -1804222.72421        10.250           0.313
  18315648.531   -30017700.838 7 -23271820.18423        26.000           3.000
 91  7 24  3 51 14.9920000  0  5G 3G21G17G11G23
  21908880.899     5696153.180 5   4438544.57621         8.500           0.156
  19422979.688   -20018089.240 7 -15332102.77722        21.750           1.906
  19605702.625    -7558441.059 7  -5889693.60422        22.500           2.375
  22040972.578    -2794093.443 5  -1856971.18521        10.500           0.438
  18315434.227   -30018832.026 7 -23272701.62923        26.250           3.063
 91  7 24  3 51 29.9920000  0  5G 3G21G17G11G23
  21917984.625     5743995.550 5   4475824.29121         7.750           0.125
  19414544.399   -20062416.443 7 -15366643.42522        21.750           2.000
  19609054.031    -7540840.328 7  -5875978.74822        22.500           2.375
  22028096.445    -2861761.865 5  -1909699.77921        10.250           0.406
  18315236.883   -30019880.407 7 -23273518.54923        26.000           3.250
 91  7 24  3 51 44.9920000  0  5G 3G21G17G11G23
  21927096.617     5791890.694 4   4513145.12221         7.250           0.094
  19406125.766   -20106667.760 7 -15401124.94222        22.000           1.969
  19612414.047    -7523177.541 7  -5862215.54022        22.500           2.406
  22015222.031    -2929404.074 5  -1962407.96321        10.250           0.375
  18315052.774   -30020845.846 7 -23274270.83623        25.750           3.125
 91  7 24  3 51 59.9920000  0  4G21G17G11G23
  19397718.977   -20150843.754 7 -15435547.76722        22.250           2.063
  19615786.758    -7505453.321 7  -5848404.46422        22.250           2.438
  22002356.953    -2997020.284 5  -2015095.85721        10.500           0.500
  18314882.649   -30021729.148 7 -23274959.12423        26.000           3.125
 91  7 24  3 52 14.9920000  0  4G21G17G11G23
  19389324.102   -20194954.831 7 -15469920.00522        21.750           1.938
  19619168.383    -7487677.870 7  -5834553.46522        22.250           2.281
  21989495.164    -3064620.465 5  -2067771.76021        10.500           0.438
  18314730.508   -30022540.767 7 -23275591.55323        26.250           3.000
 91  7 24  3 52 29.9920000  0  4G21G17G11G23
  19380944.375   -20238987.527 7 -15504231.17222        22.000           1.969
  19622565.133    -7469837.730 7  -5820652.06022        23.000           2.344
  21976633.977    -3132190.841 5  -2120423.96721        10.250           0.563
  18314590.008   -30023267.387 7 -23276157.75223        26.000           3.031
 91  7 24  3 52 44.9920000  0  4G21G17G11G23
  19372579.149   -20282938.976 7 -15538479.02622        21.750           1.969
  19625971.977    -7451930.226 7  -5806698.15922        22.750           2.375
  21963786.727    -3199728.342 5  -2173050.53221        10.750           0.375
  18314469.258   -30023906.474 7 -23276655.73823        25.750           3.063
 91  7 24  3 52 59.9920000  0  4G21G17G11G23
  19364230.984   -20326813.146 7 -15572666.66822        22.000           1.969
  19629391.430    -7433959.516 7  -5792695.00422        22.500           2.250
  21950937.383    -3267236.646 5  -2225654.34921        10.750           0.406
  18314363.445   -30024462.272 7 -23277088.82423        25.750           3.063
 91  7 24  3 53 14.9920000  0  4G21G17G11G23
  19355897.203   -20370607.382 7 -15606792.02022        22.000           1.938
  19632823.070    -7415923.086 7  -5778640.65022        22.250           2.281
  21938093.399    -3334712.800 5  -2278233.13221        10.750           0.406
  18314274.547   -30024932.265 7 -23277455.05023        25.750           3.125
 91  7 24  3 53 29.9920000  0  4G21G17G11G23
  19347576.867   -20414329.407 7 -15640861.10422        22.000           2.000
  19636265.984    -7397828.749 7  -5764541.17022        21.750           2.188
  21925255.953    -3402164.384 5  -2330792.73821        10.750           0.469
  18314197.836   -30025324.417 7 -23277760.62623        25.500           3.156
 91  7 24  3 53 44.9920000  0  4G21G17G11G23
  19339274.492   -20457962.097 7 -15674860.57722        22.000           2.031
  19639725.078    -7379659.324 7  -5750383.18222        22.000           2.188
  21912432.313    -3469573.846 5  -2383319.56721        11.000           0.438
  18314143.828   -30025621.738 7 -23277992.30323        25.750           3.281
 91  7 24  3 53 59.9920000  0  4G21G17G11G23
  19330982.547   -20501535.905 7 -15708814.16522        22.000           2.063
  19643190.883    -7361445.154 7  -5736190.32622        22.000           2.188
  21899608.242    -3536971.343 5  -2435837.04021        11.500           0.438
  18314099.555   -30025854.958 7 -23278174.03323        25.500           3.188
 91  7 24  3 54 14.9920000  0  4G21G17G11G23
  19322704.031   -20545040.872 7 -15742714.11422        22.000           2.094
  19646665.000    -7343176.372 7  -5721954.91322        22.000           2.063
  21886786.195    -3604346.491 5  -2488337.10821        11.500           0.469
  18314069.024   -30026014.261 7                        25.750
 91  7 24  3 54 29.9920000  0  4G21G17G11G23
  19314441.578   -20588464.765 7 -15776550.89222        22.000           2.063
  19650156.211    -7324840.879 7  -5707667.52122        22.000           2.094
  21873970.656    -3671686.874 5  -2540810.07721        11.250           0.531
  18314054.164   -30026087.670 7                        25.750
 91  7 24  3 54 44.9920000  0  4G21G17G11G23
  19306192.859   -20631805.881 7 -15810323.16722        22.250           2.031
  19653659.266    -7306437.201 7  -5693326.99022        22.000           1.969
  21861162.109    -3738990.388 5  -2593254.32021        11.500           0.531
  18314060.438   -30026073.600 7                        25.500
 91  7 24  3 54 59.9920000  0  4G21G17G11G23
  19297965.086   -20675046.316 7 -15844016.98822        22.500           2.094
  19657176.234    -7287947.497 7  -5678919.42622        21.500           2.000
  21848363.156    -3806238.823 5  -2645655.65421        11.250           0.469
  18314078.945   -30025954.438 7                        25.750
 91  7 24  3 55 14.9920000  0  4G21G17G11G23
  19289751.484   -20718203.511 7 -15877645.94622        22.500           2.125
  19660709.039    -7269389.106 7  -5664458.34422        22.000           2.156
  21835579.117    -3873449.348 5  -2698027.43621        11.750           0.469
  18314116.711   -30025747.863 7                        25.250
 91  7 24  3 55 29.9920000  0  4G21G17G11G23
  19281552.375   -20761293.866 7 -15911222.82122        22.250           2.063
  19664250.508    -7250778.395 7  -5649956.49422        22.000           2.156
  21822794.992    -3940637.963 6  -2750382.15121        12.000           0.500
  18314173.891   -30025470.172 7                        25.500
 91  7 24  3 55 44.9920000  0  4G21G17G11G23
  19273367.406   -20804304.513 7 -15944737.58822        21.750           2.094
  19667803.750    -7232102.770 7  -5635404.06322        22.000           2.250
  21810011.680    -4007791.603 5  -2802709.59621        11.500           0.406
  18314242.141   -30025109.032 7 -23277592.80123        25.750           3.156
 91  7 24  3 55 59.9920000  0  4G21G17G11G23
  19265199.805   -20847232.750 7 -15978188.14522        22.000           2.156
  19671371.188    -7213359.582 7  -5620798.98322        22.250           2.188
  21797239.211    -4074907.164 5  -2855007.38721        11.250           0.406
  18314325.063   -30024661.811 7 -23277244.32223        25.750           3.250
 91  7 24  3 56 14.9920000  0  4G21G17G11G23
  19257043.180   -20890083.182 7 -16011578.06622        21.750           2.156
  19674950.320    -7194553.621 7  -5606144.99722        22.000           2.156
  21784477.477    -4141989.024 5  -2907278.90821        11.750           0.563
  18314426.813   -30024133.491 7 -23276832.64223        25.750           3.219
 91  7 24  3 56 29.9920000  0  4G21G17G11G23
  19248904.281   -20932850.181 7 -16044902.98422        22.000           2.125
  19678542.438    -7175679.149 7  -5591437.62722        21.750           2.063
  21771717.469    -4209031.282 5  -2959519.57921        11.250           0.563
  18314544.031   -30023518.429 7 -23276353.37323        25.750           3.281
 91  7 24  3 56 44.9920000  0  4G21G17G11G23
  19240781.727   -20975538.671 7 -16078166.71922        21.750           2.000
  19682144.844    -7156741.001 7  -5576680.62722        21.750           2.063
  21758966.555    -4276038.444 5  -3011732.90121        11.500           0.563
  18314675.109   -30022821.871 7 -23275810.60123        25.500           3.156
 91  7 24  3 56 59.9920000  0  4G21G17G11G23
  19232675.656   -21018148.249 7 -16111368.96522        22.250           2.125
  19685761.305    -7137738.902 7  -5561873.80622        22.000           2.250
  21746222.328    -4343009.775 5  -3063918.30621        11.500           0.531
  18314823.930   -30022043.540 7 -23275204.11423        25.500           3.219
 91  7 24  3 57 14.9920000  0  4G21G17G11G23
  19224580.781   -21060683.089 7 -16144512.97822        22.000           2.125
  19689390.484    -7118677.201 7  -5547020.53622        21.750           2.031
  21733487.102    -4409949.005 5  -3116078.68121        11.750           0.563
  18314986.336   -30021187.792 7 -23274537.29823        25.500           3.375
 91  7 24  3 57 29.9920000  0  4G21G17G11G23
  19216500.500   -21103139.458 7 -16177595.84322        22.000           2.188
  19693028.352    -7099552.112 7  -5532117.87222        21.500           2.094
  21720753.008    -4476852.221 5  -3168211.01021        11.250           0.469
  18315165.609   -30020251.219 7 -23273807.50623        26.000           3.313
 91  7 24  3 57 44.9920000  0  4G21G17G11G23
  19208432.914   -21145527.996 7 -16210625.84722        21.500           2.125
  19696678.258    -7080374.281 7  -5517174.12022        21.250           2.094
  21708028.352    -4543729.739 5  -3220323.30521        11.750           0.563
  18315356.344   -30019244.520 7 -23273023.06923        26.250           3.375
 91  7 24  3 57 59.9920000  0  4G21G17G11G23
  19200382.750   -21187831.929 7 -16243589.92722        22.000           2.125
  19700339.461    -7061127.016 7  -5502176.26222        21.750           2.063
  21695307.688    -4610564.378 5  -3272402.70121        11.250           0.625
  18315565.906   -30018151.140 7 -23272171.08623        26.000           3.250
 91  7 24  3 58 14.9920000  0  4G21G17G11G23
  19192315.656   -21230234.013 7 -16276630.49022        22.250           2.219
  19703980.188    -7041993.080 7  -5487266.70322        22.000           2.000
  21682564.281    -4677538.561 5  -3324590.31821        11.250           0.563
  18315754.867   -30017153.962 7 -23271394.07123        25.750           3.219
 91  7 24  3 58 29.9920000  0  4G21G17G11G23
  19184262.102   -21272556.056 7 -16309608.68222        22.500           2.281
  19707634.641    -7022794.643 7  -5472306.89022        22.500           1.875
  21669829.266    -4744473.911 5  -3376747.69121        11.500           0.625
  18315959.258   -30016075.120 7 -23270553.41423        25.500           3.188
 91  7 24  3 58 44.9920000  0  4G21G17G11G23
  19176224.164   -21314793.993 7 -16342521.33922        22.500           2.125
  19711300.719    -7003527.649 7  -5457293.64722        22.000           1.844
  21657098.203    -4811365.996 5  -3428871.33421        11.500           0.563
  18316181.742   -30014910.880 7 -23269646.21623        25.500           3.344
 91  7 24  3 58 59.9920000  0  4G21G17G11G23
  19168203.547   -21356941.332 7 -16375363.39922        22.250           2.063
  19714980.406    -6984185.499 7  -5442221.84222        22.000           1.875
  21644375.180    -4878207.979 5  -3480955.94321        11.000           0.469
  18316418.414   -30013654.700 7 -23268667.37923        25.000           3.344
 91  7 24  3 59 14.9920000  0  4G21G17G11G23
  19160198.008   -21399016.485 7 -16408149.20922        22.250           2.125
  19718673.156    -6964786.676 7  -5427105.88522        21.750           2.094
  21631664.664    -4945017.916 5  -3533015.58521        11.500           0.594
  18316673.063   -30012325.198 7 -23267631.40823        25.500           3.344
 91  7 24  3 59 29.9920000  0  4G21G17G11G23
  19152205.219   -21441017.949 7 -16440877.59822        22.250           2.156
  19722374.258    -6945329.866 7  -5411944.74722        21.000           2.063
  21618955.797    -5011794.034 5  -3585048.88121        11.500           0.656
  18316939.438   -30010921.185 7 -23266537.37323        26.000           3.344
 91  7 24  3 59 44.9920000  0  4G21G17G11G23
  19144228.039   -21482943.339 7 -16473546.71422        22.500           2.156
  19726088.695    -6925812.661 7  -5396736.54722        21.000           2.094
  21606261.508    -5078533.515 6  -3637053.61621        12.500           0.594
  18317221.484   -30009440.313 7 -23265383.44823        25.750           3.344
 91  7 24  3 59 59.9920000  0  4G21G17G11G23
  19136259.469   -21524809.284 7 -16506169.50822        22.250           2.156
  19729810.477    -6906251.797 7  -5381494.32522        21.500           1.938
  21593557.906    -5145252.726 6  -3689042.58221        12.000           0.563
  18317516.219   -30007899.531 7 -23264182.84223        26.000           3.344
 91  7 24  4  0 14.9920000  0  4G21G17G11G23
  19128311.969   -21566574.943 7 -16538714.15422        22.250           2.188
  19733550.250    -6886606.386 7  -5366186.21222        21.500           1.938
  21580875.516    -5211910.457 6  -3740983.62921        12.500           0.469
  18317827.531   -30006258.435 7 -23262904.06823        25.500           3.375
 91  7 24  4  0 29.9920000  0  4G21G17G11G23
  19120377.922   -21608267.610 7 -16571201.92522        22.250           2.156
  19737299.734    -6866903.761 7  -5350833.51622        21.000           1.906
  21568195.227    -5278533.737 6  -3792897.82821        12.500           0.563
  18318153.469   -30004544.252 7 -23261568.34423        25.500           3.313
 91  7 24  4  0 44.9920000  0  4G21G17G11G23
  19112458.274   -21649889.212 7 -16603634.31822        22.500           2.219
  19741056.602    -6847145.944 7  -5335437.82222        20.250           1.906
  21555525.992    -5345123.982 6  -3844786.30121        12.750           0.594
  18318493.977   -30002759.028 7 -23260177.26423        25.750           3.281
 91  7 24  4  0 59.9920000  0  4G21G17G11G23
  19104552.266   -21691435.061 7 -16636007.68822        22.500           2.125
  19744829.492    -6827328.293 7  -5319995.50322        20.000           2.000
  21542861.961    -5411676.167 6  -3896645.11721        13.500           0.563
  18318846.203   -30000898.284 7 -23258727.33623        25.500           3.313
 91  7 24  4  1 14.9920000  0  4G21G17G11G23
  19096659.039   -21732909.697 7 -16668325.56422        22.500           2.219
  19748612.195    -6807455.284 7  -5304510.05022        20.000           2.000
  21530202.195    -5478194.588 6  -3948477.62221        13.000           0.594
  18319214.609   -29998966.782 7 -23257222.27323        25.500           3.250
 91  7 24  4  1 29.9920000  0  4G21G17G11G23
  19088784.680   -21774291.637 7 -16700571.21122        22.750           2.219
  19752408.734    -6787505.667 7  -5288964.90022        20.250           2.063
  21517554.508    -5544657.581 6  -4000266.92121        12.500           0.625
  18319599.344   -29996943.456 7 -23255645.65823        25.750           3.313
 91  7 24  4  1 44.9920000  0  4G21G17G11G23
  19080921.961   -21815607.307 7 -16732765.21622        22.250           2.313
  19756214.594    -6767505.923 7  -5273380.69522        20.000           1.938
  21504914.133    -5611090.964 6  -4052033.16321        12.750           0.594
  18319997.274   -29994854.739 7 -23254018.08823        26.000           3.344
 91  7 24  4  1 59.9920000  0  4G21G17G11G23
  19073076.945   -21856832.567 7 -16764888.77622        22.500           2.250
  19760031.930    -6747432.271 7  -5257738.90222        20.000           2.000
  21492282.945    -5677470.396 6  -4103757.36521        12.500           0.719
  18320412.469   -29992676.735 7 -23252320.94523        26.250           3.375
 91  7 24  4  2 14.9920000  0  4G21G17G11G23
  19065244.125   -21897995.812 7 -16796964.01122        22.500           2.406
  19763861.399    -6727312.886 6  -5242061.46422        19.750           1.969
  21479653.984    -5743823.925 6  -4155461.37521        12.750           0.656
  18320836.625   -29990438.095 7 -23250576.55223        25.750           3.344
 91  7 24  4  2 29.9920000  0  4G21G17G11G23
  19057426.828   -21939080.226 7 -16828977.81522        22.750           2.281
  19767704.141    -6707130.969 6  -5226335.30622        19.750           1.875
  21467036.664    -5810134.459 6  -4207131.89021        12.750           0.656
  18321278.508   -29988122.100 7 -23248771.88323        25.500           3.344
 91  7 24  4  2 44.9920000  0  4G21G17G11G23
  19049624.953   -21980082.777 7 -16860927.83622        22.750           2.188
  19771554.828    -6686883.494 7  -5210558.05922        20.250           1.938
  21454425.242    -5876398.580 6  -4258766.24421        12.750           0.656
  18321735.531   -29985726.000 7 -23246904.79123        25.250           3.469
 91  7 24  4  2 59.9920000  0  4G21G17G11G23
  19041836.961   -22021006.458 7 -16892816.39122        22.500           2.375
  19775423.469    -6666573.613 7  -5194732.18422        21.750           1.938
  21441822.899    -5942618.894 6  -4310366.45721        12.000           0.625
  18322204.367   -29983252.819 7 -23244977.64223        25.000           3.344
 91  7 24  4  3 14.9920000  0  4G21G17G11G23
  19034066.703   -22061836.583 7 -16924632.05122        22.750           2.375
  19779300.641    -6646186.475 7  -5178846.10722        21.000           2.063
  21429234.414    -6008780.409 6  -4361920.85821        12.500           0.625
  18322693.047   -29980687.849 7 -23242978.96823        25.000           3.344
 91  7 24  4  3 29.9920000  0  4G21G17G11G23
  19026312.234   -22102581.438 7 -16956381.26422        22.750           2.375
  19783194.156    -6625730.533 7  -5162906.41622        21.000           2.031
  21416652.539    -6074891.094 6  -4413435.65821        12.500           0.688
  18323197.930   -29978039.845 7 -23240915.58623        25.500           3.344
 91  7 24  4  3 44.9920000  0  4G21G17G11G23
  19018572.086   -22143254.894 7 -16988074.84522        22.250           2.313
  19787097.477    -6605219.714 7  -5146923.97522        20.500           1.875
  21404083.883    -6140964.348 6  -4464921.77121        13.000           0.750
  18323715.406   -29975322.928 7 -23238798.51223        25.750           3.344
 91  7 24  4  3 59.9920000  0  4G21G17G11G23
  19010849.203   -22183839.121 7 -17019698.89722        22.750           2.313
  19791012.336    -6584636.529 7  -5130885.14522        20.000           1.906
  21391522.133    -6206982.016 6  -4516364.08821        13.000           0.594
  18324248.688   -29972519.309 7 -23236613.87223        25.750           3.313
 91  7 24  4  4 14.9920000  0  4G21G17G11G23
  19003146.305   -22224325.526 7 -17051246.72622        23.000           2.281
  19794945.539    -6563972.350 7  -5114783.19322        20.750           1.688
  21378969.734    -6272935.244 6  -4567756.18021        12.500           0.563
  18324797.258   -29969620.823 7 -23234355.30923        25.250           3.344
 91  7 24  4  4 29.9920000  0  4G21G17G11G23
  18995453.742   -22264748.302 7 -17082744.97222        23.000           2.281
  19798885.633    -6543261.292 7  -5098644.71422        21.000           1.625
  21366423.820    -6338857.895 6  -4619124.95321        12.750           0.688
  18325362.664   -29966661.753 7 -23232049.54223        25.500           3.406
 91  7 24  4  4 44.9920000  0  4G21G17G11G23
  18987776.188   -22305097.862 7 -17114186.16522        23.000           2.281
  19802839.547    -6522493.775 7  -5082462.22922        21.000           1.531
  21353882.641    -6404740.027 6  -4670461.65721        12.500           0.594
  18325938.141   -29963632.738 7 -23229689.27123        25.500           3.313
 91  7 24  4  4 59.9920000  0  4G21G17G11G23
  18980116.141   -22345350.108 7 -17145551.53222        23.000           2.281
  19806804.422    -6501645.783 7  -5066217.04022        20.500           1.656
  21341358.555    -6470557.144 6  -4721747.70321        13.250           0.750
  18326533.352   -29960509.812 7 -23227255.82423        25.250           3.469
 91  7 24  4  5 14.9920000  0  4G21G17G11G23
  18972465.547   -22385550.544 7 -17176876.53222        23.250           2.281
  19810781.016    -6480762.911 7  -5049944.68222        20.250           1.719
  21328839.320    -6536354.368 6  -4773018.74721        13.750           0.750
  18327135.828   -29957338.508 7 -23224784.68023        25.250           3.438
 91  7 24  4  5 29.9920000  0  4G21G17G11G23
  18964832.625   -22425674.568 7 -17208141.98822        23.250           2.281
  19814765.805    -6459820.406 7  -5033625.86222        20.000           1.781
  21316327.414    -6602106.772 6  -4824254.35921        13.750           0.625
  18327753.524   -29954094.664 7 -23222257.00923        25.500           3.438
 91  7 24  4  5 44.9920000  0  4G21G17G11G23
  18957210.172   -22465724.184 7 -17239349.46022        23.250           2.344
  19818760.602    -6438820.570 6  -5017262.36922        19.750           1.719
  21303821.563    -6667815.984 6  -4875456.32721        14.000           0.688
  18328384.172   -29950780.335 7 -23219674.41923        25.250           3.344
 91  7 24  4  5 59.9920000  0  4G21G17G11G23
  18949605.164   -22505687.336 7 -17270489.55822        23.250           2.469
  19822769.883    -6417751.544 7  -5000844.95122        20.000           1.813
  21291331.391    -6733469.612 6  -4926614.98121        14.000           0.688
  18329030.922   -29947383.862 7 -23217027.81723        25.500           3.313
 91  7 24  4  6 14.9920000  0  4G21G17G11G23
  18942015.047   -22545568.253 7 -17301566.07822        23.250           2.406
  19826792.531    -6396617.272 7  -4984377.19222        20.250           1.844
  21278848.359    -6799072.531 6  -4977733.83621        14.000           0.750
  18329692.164   -29943909.511 7 -23214321.02723        25.250           3.313
 91  7 24  4  6 29.9920000  0  4G21G17G11G23
  18934443.680   -22585361.659 7 -17332573.90822        23.500           2.406
  19830828.047    -6375413.042 6  -4967854.41622        19.750           1.813
  21266375.399    -6864617.181 6  -5028807.56421        14.000           0.781
  18330369.563   -29940352.267 7 -23211549.15023        25.250           3.313
 91  7 24  4  6 44.9920000  0  4G21G17G11G23
  18926886.422   -22625079.012 7 -17363522.47922        23.750           2.406
  19834871.844    -6354149.898 7  -4951285.74222        20.000           1.938
  21253908.664    -6930115.602 6  -5079845.27921        13.750           0.656
  18331060.797   -29936723.445 7 -23208721.49523        25.000           3.406
 91  7 24  4  6 59.9920000  0  4G21G17G11G23
  18919345.516   -22664695.819 7 -17394392.70323        23.750           2.531
  19838936.313    -6332803.556 7  -4934652.24222        20.000           1.844
  21241459.727    -6995542.933 6  -5130827.59321        13.500           0.688
  18331767.797   -29932998.978 7 -23205819.31123        25.000           3.406
 91  7 24  4  7 14.9920000  0  4G21G17G11G23
  18911822.328   -22704232.902 7 -17425200.80122        23.750           2.438
  19843007.899    -6311394.635 6  -4917969.98622        19.500           1.875
  21229018.594    -7060919.669 6  -5181770.49021        13.500           0.781
  18332490.547   -29929199.989 7 -23202859.06123        24.750           3.375
 91  7 24  4  7 29.9920000  0  4G21G17G11G23
  18904313.649   -22743685.422 7 -17455943.00523        23.500           2.500
  19847095.516    -6289918.535 7  -4901235.37522        20.500           1.875
  21216587.719    -7126240.607 6  -5232669.88821        13.000           0.813
  18333227.438   -29925321.574 7 -23199836.92223        24.750           3.469
 91  7 24  4  7 44.9920000  0  4G21G17G11G23
  18896823.539   -22783053.095 7 -17486619.09622        23.750           2.313
  19851194.969    -6268375.139 7  -4884448.31922        21.000           1.719
  21204171.508    -7191505.006 6  -5283525.23621        13.250           0.781
  18333983.227   -29921363.663 7 -23196752.83324        24.750           3.531
 91  7 24  4  7 59.9920000  0  4G21G17G11G23
  18889341.727   -22822360.951 7 -17517248.57222        23.250           2.469
  19855304.109    -6246789.445 7  -4867628.29922        21.000           1.781
  21191757.875    -7256737.641 6  -5334355.82421        13.250           0.719
  18334746.938   -29917351.522 7 -23193626.49123        25.250           3.469
 91  7 24  4  8 14.9920000  0  4G21G17G11G23
  18881869.703   -22861627.276 7 -17547845.69423        23.750           2.500
  19859415.266    -6225179.886 7  -4850789.68522        20.500           1.531
  21179345.781    -7321956.416 6  -5385175.62421        13.750           0.844
  18335515.914   -29913303.840 7 -23190472.44923        24.750           3.375
 91  7 24  4  8 29.9920000  0  4G21G17G11G23
  18874414.477   -22900808.707 7 -17578376.66222        23.750           2.438
  19863540.555    -6203503.190 7  -4833898.75422        20.250           1.719
  21166946.180    -7387117.622 6  -5435950.56721        14.000           0.719
  18336301.188   -29909177.196 7 -23187256.88024        24.750           3.563
 91  7 24  4  8 44.9920000  0  4G21G17G11G23
  18866974.578   -22939908.380 7 -17608843.91823        23.500           2.531
  19867679.141    -6181762.548 7  -4816958.00022        20.750           1.719
  21154557.813    -7452224.008 6  -5486682.78121        14.000           0.750
  18337101.500   -29904975.168 7 -23183982.57323        24.250           3.438
 91  7 24  4  8 59.9920000  0  4G21G17G11G23
  18859549.406   -22978927.414 7 -17639248.34422        23.500           2.469
  19871825.461    -6159959.027 7  -4799968.25722        20.500           1.781
  21142178.422    -7517276.316 6  -5537372.87321        14.750           0.750
  18337914.234   -29900698.860 7 -23180650.38223        24.000           3.438
 91  7 24  4  9 14.9920000  0  4G21G17G11G23
  18852141.524   -23017864.151 7 -17669588.63822        23.750           2.438
  19875988.156    -6138090.964 7  -4782928.21522        20.000           1.781
  21129809.352    -7582272.455 6  -5588019.69021        15.000           0.750
  18338742.258   -29896346.792 7 -23177259.15323        24.000           3.344
 91  7 24  4  9 29.9920000  0  4G21G17G11G23
  18844745.961   -23056723.594 7 -17699868.70923        23.500           2.531
  19880159.781    -6116163.576 6  -4765841.95022        19.750           1.688
  21117451.391    -7647217.055 6  -5638625.84321        15.000           0.906
  18339584.727   -29891924.235 7 -23173813.00323        24.250           3.469
 91  7 24  4  9 44.9920000  0  4G21G17G11G23
  18837366.609   -23095502.853 7 -17730086.29923        23.750           2.563
  19884344.852    -6094173.912 6  -4748707.15922        19.500           1.594
  21105106.297    -7712107.158 6  -5689189.53821        15.250           0.781
  18340439.141   -29887428.468 7 -23170309.80623        24.250           3.469
 91  7 24  4  9 59.9920000  0  4G21G17G11G23
  18830002.078   -23134202.073 7 -17760241.51623        23.500           2.563
  19888542.102    -6072122.183 6  -4731524.00521        18.750           1.469
  21092764.688    -7776942.356 6  -5739710.93121        15.250           0.938
  18341309.180   -29882859.700 7 -23166749.72423        24.750           3.344
 91  7 24  4 10 14.9920000  0  4G21G17G11G23
  18822653.906   -23172822.488 7 -17790335.32423        24.000           2.531
  19892748.508    -6050009.697 6  -4714293.50122        18.250           1.531
  21080436.469    -7841723.439 6  -5790189.66821        14.750           0.844
  18342192.844   -29878219.506 7 -23163133.98324        25.000           3.563
 91  7 24  4 10 29.9920000  0  4G21G17G11G23
  18815316.875   -23211365.379 7 -17820368.73423        23.500           2.500
  19896969.836    -6027837.696 6  -4697016.63121        19.500           1.469
  21068122.164    -7906451.296 6  -5840626.92821        15.000           0.813
  18343088.508   -29873509.276 7 -23159463.67324        25.000           3.594
 91  7 24  4 10 44.9920000  0  4G21G17G11G23
  18807997.711   -23249828.736 7 -17850340.16022        23.500           2.469
  19901199.836    -6005604.217 6  -4679691.84022        19.250           1.531
  21055813.297    -7971123.551 6  -5891020.85921        15.250           0.813
  18343998.656   -29868726.951 7 -23155737.18224        25.000           3.500
 91  7 24  4 10 59.9920000  0  4G21G17G11G23
  18800693.570   -23288211.406 7 -17880248.71323        24.000           2.500
  19905443.656    -5983308.147 6  -4662318.28521        19.500           1.469
  21043516.461    -8035738.869 6  -5941370.42821        14.500           0.813
  18344921.883   -29863871.723 7 -23151953.88923        24.500           3.469
 91  7 24  4 11 14.9920000  0  4G21G17G11G23
  18793403.594   -23326514.677 7 -17910095.40123        23.750           2.563
  19909697.844    -5960950.873 6  -4644897.04122        19.000           1.531
  21031232.188    -8100298.016 6  -5991676.22921        14.750           0.969
  18345858.774   -29858945.031 7 -23148114.90323        24.500           3.406
 91  7 24  4 11 29.9920000  0  4G21G17G11G23
  18786130.586   -23364739.553 7 -17939880.99722        24.500           2.469
  19913963.961    -5938533.390 6  -4627428.89322        19.000           1.656
  21018953.391    -8164801.700 6  -6041938.81221        14.000           0.688
  18346809.250   -29853948.218 7 -23144221.28023        24.750           3.438
 91  7 24  4 11 44.9920000  0  4G21G17G11G23
  18778872.406   -23402885.182 7 -17969604.84423        24.500           2.500
  19918239.016    -5916055.043 6  -4609913.30921        18.750           1.406
  21006694.805    -8229248.582 6  -6092157.11221        14.000           0.906
  18347774.820   -29848880.449 7 -23140272.36524        25.000           3.500
 91  7 24  4 11 59.9920000  0  4G21G17G11G23
  18771628.492   -23440952.820 7 -17999267.91623        24.250           2.563
  19922529.047    -5893517.114 6  -4592351.30021        19.500           1.438
  20994440.719    -8293639.608 6  -6142331.91021        14.750           0.969
  18348752.289   -29843743.119 7 -23136269.24723        24.750           3.438
 91  7 24  4 12 14.9920000  0  4G21G17G11G23
  18764399.422   -23478941.744 7 -18028869.65323        24.500           2.531
  19926828.977    -5870918.988 6  -4574742.37821        19.500           1.469
  20982197.172    -8357973.671 6  -6192462.31121        14.750           0.906
  18349743.164   -29838535.888 7 -23132211.65823        25.000           3.438
 91  7 24  4 12 29.9920000  0  4G21G17G11G23
  18757185.336   -23516849.966 7 -18058408.50523        24.000           2.563
  19931139.531    -5848258.633 6  -4557084.96121        19.250           1.469
  20969967.172    -8422248.441 6  -6242546.51921        14.750           0.875
  18350748.711   -29833256.851 7 -23128098.11823        25.250           3.406
 91  7 24  4 12 44.9920000  0  4G21G17G11G23
  18749987.859   -23554677.673 7 -18087884.61323        24.000           2.594
  19935465.164    -5825536.319 6  -4539379.27422        19.250           1.531
  20957748.617    -8486463.708 6  -6292584.35421        15.250           0.781
  18351768.477   -29827906.313 7 -23123928.86624        25.500           3.656
 91  7 24  4 12 59.9920000  0  4G21G17G11G23
  18742805.899   -23592422.469 7 -18117296.12123        24.250           2.531
  19939800.102    -5802749.908 6  -4521623.64622        18.750           1.563
  20945539.320    -8550616.713 6  -6342573.67921        15.000           0.906
  18352799.867   -29822482.161 7 -23119702.25224        25.500           3.531
 91  7 24  4 13 14.9920000  0  4G21G17G11G23
  18735637.242   -23630089.988 7 -18146647.41423        24.250           2.688
  19944147.945    -5779904.817 6  -4503822.29222        18.750           1.563
  20933343.734    -8614712.677 6  -6392519.04121        16.000           0.969
  18353843.063   -29816990.210 7 -23115422.80223        25.000           3.469
 91  7 24  4 13 29.9920000  0  4G21G17G11G23
  18728484.656   -23667679.011 7 -18175937.53923        24.250           2.500
  19948508.141    -5756999.917 6  -4485974.32822        19.750           1.500
  20921157.891    -8678749.980 6  -6442418.20921        16.000           0.875
  18354900.899   -29811429.302 7 -23111089.62824        24.750           3.594
 91  7 24  4 13 44.9920000  0  4G21G17G11G23
  18721346.883   -23705190.090 7 -18205166.93123        24.500           2.563
  19952876.813    -5734035.884 6  -4468080.28222        19.500           1.500
  20908984.953    -8742728.794 6  -6492271.81021        16.250           0.813
  18355972.508   -29805800.099 7 -23106703.23624        24.500           3.500
 91  7 24  4 13 59.9920000  0  4G21G17G11G23
  18714222.516   -23742622.210 7 -18234334.79723        24.250           2.563
  19957258.828    -5711011.681 6  -4450139.35622        19.000           1.656
  20896819.711    -8806647.797 6  -6542078.79321        16.000           0.906
  18357057.500   -29800101.935 7 -23102263.10524        24.750           3.531
 91  7 24  4 14 14.9920000  0  4G21G17G11G23
  18707114.922   -23779973.885 7 -18263439.97923        24.250           2.563
  19961653.016    -5687925.787 6  -4432150.35022        18.250           1.531
  20884666.203    -8870505.119 6  -6591838.22321        15.750           0.875
  18358154.899   -29794333.345 7 -23097768.10024        25.250           3.625
 91  7 24  4 14 29.9910000  0  4G21G17G11G23
  18700023.378   -23817243.786 7 -18292481.44123        24.500           2.625
  19966055.956    -5664781.037 6  -4414115.49522        18.250           1.656
  20872527.987    -8934297.172 6  -6641546.28821        16.000           0.906
  18359265.573   -29788495.979 7 -23093219.49823        25.000           3.344
